GFSGBSN_sfc_temp_000.txt.gz
Temp
60 60 60 60 60 60 61 60 59 58 57 57 57 58 58 59 59 58 57 57 57 57 57 57 58 59 62 64 67 82 74 77 81 79 75 72 69 64 60 61 63 59 61 64 67 66 62
60 60 60 60 59 60 60 59 58 58 57 57 57 57 57 58 58 58 57 57 57 57 57 57 58 57 64 59 79 82 81 82 79 76 74 74 68 69 64 63 60 63 63 63 66 65 64
60 60 60 59 59 59 59 58 58 58 57 57 57 57 57 58 58 58 57 57 57 56 57 57 58 65 63 67 76 75 79 76 79 75 72 73 71 69 66 62 67 64 59 62 63 62 61
60 60 60 59 59 58 58 58 57 58 57 57 58 57 57 57 57 57 57 57 57 57 57 57 57 62 62 80 76 81 78 77 80 80 76 77 75 68 63 66 64 59 56 50 61 63 64
59 60 59 59 58 58 58 58 57 57 57 57 57 57 57 57 57 57 58 57 57 57 57 56 59 61 64 79 76 79 77 76 77 77 75 81 71 63 64 53 50 51 45 49 57 63 60
60 60 59 59 59 59 59 58 57 56 57 57 57 57 57 57 57 56 57 58 57 57 57 63 69 60 71 69 74 77 77 77 72 71 71 67 61 55 53 49 41 45 47 45 46 56 55
60 60 59 59 59 59 59 59 57 56 56 57 57 57 57 57 57 57 63 64 62 61 63 62 63 66 69 76 76 74 76 73 70 65 57 61 54 47 51 53 56 52 49 46 50 57 55
59 59 59 59 59 59 59 59 57 56 56 56 56 57 57 57 57 58 62 62 62 63 57 70 69 70 74 72 66 71 73 65 63 55 59 56 49 57 61 59 55 54 48 47 52 58 53
58 58 58 59 59 58 59 58 57 56 56 56 56 56 56 56 57 62 63 61 67 65 56 65 69 68 70 71 64 66 67 63 59 57 55 51 56 63 59 55 54 50 48 47 49 52 52
58 58 58 58 57 57 57 57 57 57 56 56 55 56 55 56 63 62 61 66 66 63 47 57 64 68 71 70 63 72 70 64 61 55 56 55 60 59 56 54 52 46 55 53 51 46 40
57 58 57 57 57 56 56 56 56 56 55 55 55 55 56 58 61 61 64 65 63 62 31 60 64 75 72 65 65 67 71 65 56 57 55 54 54 54 53 53 55 52 56 52 50 44 42
57 57 57 57 57 56 56 55 55 55 55 55 55 55 56 62 59 60 63 61 62 43 34 56 64 62 62 64 65 66 64 67 63 58 57 56 59 57 54 58 56 58 53 50 48 44 34
57 57 57 57 56 56 55 55 55 55 55 55 54 55 62 65 60 61 61 59 44 35 59 55 57 61 58 57 61 59 56 53 48 44 43 53 54 57 58 52 55 51 43 30 30 28 30
56 56 57 56 56 56 55 55 55 55 55 54 54 55 61 64 61 61 59 49 39 51 54 60 59 58 54 56 56 56 54 48 53 50 43 41 39 53 59 52 47 48 45 30 26 24 30
56 57 57 56 56 55 55 55 55 55 54 54 55 59 59 61 62 60 54 37 38 50 57 56 58 52 52 57 54 54 49 49 51 52 43 39 43 55 57 57 54 49 40 48 36 25 26
56 56 57 56 55 55 55 55 55 55 55 54 58 58 57 62 61 58 44 44 51 58 58 58 49 52 46 50 50 50 48 53 52 54 52 48 39 50 55 56 55 50 52 38 33 22 26
56 55 56 56 55 55 55 55 55 55 55 55 59 55 60 62 61 52 39 42 55 60 60 55 52 50 51 48 50 48 48 52 54 54 54 48 45 43 49 48 45 45 40 44 44 35 28
55 55 55 55 55 55 55 55 55 54 54 55 55 48 61 61 51 44 45 54 55 59 60 57 55 53 50 50 48 48 48 51 55 53 47 49 40 32 43 51 53 49 45 43 29 33 31
55 54 54 55 55 55 55 55 54 54 53 52 52 52 61 60 38 35 52 55 56 57 56 55 53 54 54 49 42 49 50 55 55 52 48 48 36 29 37 44 48 45 48 45 41 32 30
54 54 54 54 54 55 55 55 54 54 54 53 51 41 49 52 50 50 50 50 51 57 56 57 55 56 52 48 50 45 49 54 54 53 52 50 42 36 30 37 41 39 45 46 39 24 33
54 54 54 54 54 54 54 54 53 54 54 55 50 46 50 39 45 49 51 52 51 50 56 57 53 52 49 40 42 41 47 49 52 51 50 47 36 39 41 44 44 44 43 43 40 39 31
53 53 53 53 54 54 53 51 51 53 53 54 49 48 50 47 52 50 44 50 51 53 53 51 49 50 50 43 44 40 45 44 45 48 44 46 33 35 37 43 41 38 42 42 41 42 40
53 52 52 54 54 54 51 50 52 53 55 52 52 52 50 43 44 39 40 50 52 54 52 56 53 49 41 48 51 51 51 50 49 45 39 40 32 29 34 35 34 32 36 39 42 44 41
53 53 53 53 54 54 51 50 52 52 53 53 52 50 41 36 34 42 52 53 52 52 49 54 53 45 53 56 52 49 46 45 43 45 47 33 30 30 28 32 26 41 47 47 42 44 45
52 52 53 53 54 53 50 51 53 52 52 53 53 51 41 34 38 45 49 50 51 50 48 51 53 55 53 45 36 32 32 35 37 46 43 43 34 30 27 29 35 40 45 40 36 39 44
52 52 52 52 52 53 52 53 53 52 52 54 54 52 46 37 39 52 48 49 39 37 41 47 54 54 47 35 30 22 23 31 34 40 43 38 33 28 30 26 26 36 45 49 47 32 45
51 51 52 52 52 52 52 52 53 52 53 53 53 56 50 39 48 52 44 43 49 41 41 40 46 42 45 35 31 31 28 37 29 26 27 27 30 25 20 23 28 41 47 48 28 34 42
51 51 51 51 51 51 52 52 52 52 53 54 54 56 52 43 47 53 55 50 48 43 36 44 43 39 36 33 32 30 33 31 29 36 33 32 26 28 27 27 27 46 47 37 41 42 46
50 50 50 50 50 51 51 51 51 51 52 53 51 55 55 48 49 53 55 56 56 54 47 44 44 43 39 34 33 29 32 33 28 31 40 34 37 32 33 33 43 46 48 48 48 48 45

GFSGBSN_sfc_temp_003.txt.gz
Temp
60 60 60 60 60 60 60 60 59 58 57 57 57 57 58 58 58 58 57 57 57 57 57 57 58 59 60 63 65 78 72 75 75 74 72 69 66 61 58 59 60 57 58 60 62 61 58
60 60 60 59 59 60 60 59 58 57 57 57 57 57 57 58 58 58 57 57 56 56 57 57 58 58 62 58 76 77 76 78 76 72 72 72 66 65 61 60 58 60 59 61 61 61 60
60 60 59 59 59 59 59 57 57 57 57 57 57 57 57 57 57 57 57 56 56 56 56 57 58 64 63 65 73 73 77 72 72 73 71 71 68 67 62 59 64 62 57 59 59 59 59
60 60 59 59 58 58 58 57 57 57 57 57 58 57 57 57 57 57 57 56 56 56 56 56 57 63 60 77 73 77 76 76 77 75 72 72 72 65 62 62 60 56 53 48 59 57 58
59 59 59 59 58 58 57 57 57 57 57 57 57 57 57 57 57 57 56 56 56 56 56 56 61 60 61 76 73 74 73 72 74 74 72 77 70 60 60 51 48 48 42 46 53 59 57
60 59 59 59 58 58 58 57 56 56 57 57 57 57 57 57 57 56 56 56 56 56 59 64 67 60 70 67 72 74 74 73 69 69 68 66 57 53 50 48 39 42 43 41 45 53 54
60 59 59 59 59 59 59 58 57 56 56 57 57 57 57 57 57 56 55 56 60 61 63 58 61 63 66 73 73 72 71 70 68 64 55 57 52 46 48 50 52 50 46 43 47 54 53
59 59 59 59 58 58 59 58 57 56 56 56 57 57 57 57 57 58 62 60 59 61 55 65 66 66 70 69 65 69 72 64 61 54 56 54 48 54 57 56 53 50 46 45 50 55 50
58 58 58 58 58 58 58 58 57 56 56 56 56 56 56 57 57 62 61 60 64 63 54 62 66 65 67 69 62 64 66 60 58 54 53 49 53 59 56 52 51 47 45 44 47 50 48
58 58 57 58 58 57 57 57 57 56 56 56 56 56 55 59 63 59 59 62 62 62 45 55 62 66 69 66 62 68 68 62 60 52 53 52 57 55 52 51 49 43 51 49 48 44 39
58 58 57 57 57 56 56 56 56 56 56 55 55 55 55 62 61 60 62 61 61 61 30 58 61 72 67 63 61 65 67 63 54 54 53 50 52 52 51 52 52 49 52 48 47 42 40
58 58 57 57 56 56 55 55 55 55 55 55 55 55 56 62 58 58 60 58 61 41 32 54 61 59 60 61 61 63 61 63 59 54 55 51 56 54 52 54 54 56 49 47 44 41 33
57 57 57 57 56 55 55 55 55 55 55 55 54 55 62 62 59 59 59 58 43 33 56 52 54 58 55 55 57 56 53 50 45 43 41 50 51 54 56 50 53 50 41 29 29 27 29
57 57 57 56 56 55 55 55 55 55 54 54 54 57 59 61 59 59 57 48 37 48 49 57 56 56 52 55 53 53 50 45 50 47 40 39 37 50 56 49 46 45 42 29 25 23 28
56 57 57 57 56 55 55 55 55 55 54 54 57 58 57 60 60 59 53 35 38 47 53 53 54 50 49 53 52 50 46 46 47 49 41 36 41 52 53 52 50 46 38 45 32 23 25
56 56 57 57 55 55 55 55 55 55 55 55 58 56 56 59 59 56 42 42 48 55 55 54 47 48 44 48 48 47 46 50 49 51 50 45 38 48 52 53 52 49 49 36 32 21 24
55 56 57 56 55 54 55 55 55 55 54 55 57 54 59 59 59 50 37 40 52 58 57 52 49 48 48 45 47 45 45 50 52 51 52 46 43 42 47 46 42 43 39 41 41 33 26
54 55 55 55 55 55 55 55 55 54 54 56 53 48 59 58 50 42 44 52 52 55 57 55 53 51 48 47 45 46 45 49 53 51 45 46 39 31 40 48 50 47 42 41 32 30 29
54 55 55 55 55 55 55 55 54 54 54 54 51 50 58 59 38 33 49 52 54 54 53 52 50 52 51 45 41 47 48 53 54 50 45 46 36 29 37 43 45 42 43 42 37 31 30
53 54 54 54 54 55 54 54 53 54 54 54 50 41 48 49 47 48 47 48 49 54 54 54 52 53 49 46 48 43 46 51 51 51 50 49 40 35 30 36 40 37 41 42 38 24 30
53 54 53 53 54 55 53 50 51 54 53 55 48 44 48 38 43 47 48 50 48 47 53 53 50 48 46 38 40 39 45 47 50 50 48 45 35 37 39 41 41 41 40 42 37 37 33
53 53 53 52 54 54 50 50 52 53 54 52 48 47 47 45 49 47 43 47 48 49 50 48 47 47 48 42 43 39 43 42 43 46 42 43 32 34 33 40 39 37 40 39 39 39 37
53 52 51 52 54 53 50 50 52 53 54 51 48 49 49 40 41 38 38 47 49 51 51 53 51 46 39 47 49 49 49 49 48 44 39 39 31 29 27 34 32 29 34 37 38 41 40
52 53 52 53 54 52 50 49 51 52 53 52 50 48 41 35 32 41 48 50 49 49 48 51 50 44 50 53 50 48 45 43 42 43 45 33 30 29 24 32 23 40 44 45 41 42 43
52 52 53 53 54 53 49 50 52 52 53 53 50 49 41 33 37 42 48 48 48 49 47 49 50 52 50 45 35 31 31 34 34 41 39 39 34 30 30 29 32 40 43 38 37 38 43
52 52 53 52 53 52 52 53 52 52 52 53 52 48 46 37 39 50 47 47 37 36 38 44 51 50 45 32 30 23 23 30 33 38 40 36 31 28 29 26 25 36 43 45 43 31 44
51 52 52 52 52 52 52 52 52 52 52 53 52 52 49 38 47 49 42 42 45 39 39 38 43 41 43 34 30 23 26 35 28 25 27 27 30 27 28 27 29 40 44 45 30 34 43
51 51 51 51 51 51 52 52 52 52 52 53 52 53 50 41 46 50 52 48 45 42 36 43 41 37 36 32 28 29 22 30 29 34 31 32 29 25 27 26 24 44 45 37 42 43 44
51 51 50 50 50 50 51 52 51 52 52 53 50 53 52 48 49 51 54 54 54 53 46 42 43 41 38 35 33 29 29 32 28 32 38 33 37 31 36 33 42 45 48 49 48 44 41

GFSGBSN_sfc_temp_006.txt.gz
Temp
60 60 60 60 60 59 60 60 59 58 57 57 57 58 58 58 58 57 57 57 57 57 57 58 59 58 55 61 63 75 71 73 73 74 70 67 64 59 56 57 59 56 55 59 59 60 57
60 60 59 59 59 59 60 59 58 57 57 57 57 57 57 57 58 57 57 57 56 57 57 57 58 58 58 57 72 74 74 75 72 69 68 69 63 61 61 58 57 57 57 56 58 59 57
60 59 59 59 59 58 58 57 57 57 57 57 57 57 57 57 57 57 57 57 56 56 57 57 58 59 63 63 70 72 75 68 69 69 67 66 65 64 60 57 61 58 55 57 58 56 55
60 59 59 59 58 58 57 57 57 57 57 57 57 57 57 57 57 57 57 56 56 57 57 57 58 60 60 73 70 75 73 72 73 71 69 68 68 64 60 59 57 53 51 47 57 55 56
59 59 59 59 58 58 57 57 57 57 57 57 57 57 57 57 56 56 56 56 56 57 57 57 58 62 59 75 72 72 71 69 71 72 70 74 67 57 57 50 47 46 41 43 50 55 54
60 59 59 59 58 58 58 57 56 56 57 57 57 57 57 57 56 55 55 56 57 55 58 63 66 60 68 65 69 71 70 70 67 65 66 63 56 52 49 48 39 40 41 37 41 51 52
59 59 59 59 58 58 59 58 56 56 57 57 57 58 57 57 56 55 53 53 60 60 63 58 58 60 63 71 70 69 67 67 65 62 53 55 51 45 46 48 49 47 43 41 43 50 50
59 59 59 59 58 59 59 58 56 56 56 57 57 57 57 57 57 55 56 59 57 60 54 62 63 63 67 66 63 67 69 62 59 52 52 52 46 51 54 53 50 48 43 42 48 50 47
58 58 58 58 58 58 58 58 56 56 56 56 56 56 56 56 58 59 59 57 62 60 54 61 63 63 64 68 60 63 65 59 56 53 51 47 50 56 54 50 48 45 43 42 45 48 45
58 57 57 57 58 58 57 56 56 56 56 55 56 56 56 58 62 57 57 59 60 60 44 53 61 64 67 64 59 64 64 60 57 50 50 50 54 53 51 49 47 41 49 47 45 41 38
57 57 57 57 57 56 55 55 56 56 55 56 55 55 57 63 60 58 60 59 60 60 29 56 61 69 65 61 58 63 64 62 51 51 51 47 49 50 49 48 49 48 49 45 44 40 38
57 57 57 57 56 56 55 55 55 55 55 55 55 55 57 62 57 55 59 57 60 39 32 51 59 58 58 59 58 60 58 61 56 52 52 48 53 51 49 52 50 53 46 45 42 39 32
57 57 57 56 56 55 55 55 55 55 55 55 55 57 61 60 57 57 57 57 42 32 54 49 52 56 53 52 54 54 50 47 44 42 39 48 48 52 53 48 51 48 39 29 29 27 28
56 56 56 56 56 55 55 55 55 54 54 55 55 58 58 59 57 58 57 48 37 46 47 54 53 53 49 51 50 50 48 44 48 45 38 37 36 48 54 47 43 43 40 28 25 21 27
56 56 56 56 56 55 55 55 55 55 54 54 57 56 55 58 58 57 52 34 37 45 50 50 52 47 46 50 49 48 44 44 46 46 39 35 39 50 50 49 48 43 36 42 31 22 23
56 56 56 55 55 55 55 55 55 55 54 55 57 54 55 57 57 55 42 41 46 52 53 52 45 46 42 46 45 45 43 48 46 49 47 43 37 45 49 50 51 47 48 35 31 21 22
55 55 55 55 54 54 55 55 55 54 54 55 56 52 58 56 57 49 36 38 50 54 54 51 47 45 45 43 45 42 43 48 49 49 49 44 41 41 45 43 40 42 37 38 38 32 23
54 54 54 54 54 54 55 54 54 54 54 56 51 47 57 56 49 39 42 48 51 52 55 53 51 49 46 45 43 43 43 47 51 49 44 44 37 31 39 45 46 43 40 39 27 29 28
54 54 54 54 53 54 54 53 52 53 54 54 50 50 56 57 38 32 47 50 52 52 51 50 48 50 49 44 39 45 46 49 50 48 43 44 35 28 36 41 44 40 41 40 34 31 29
53 54 54 54 53 54 53 50 51 53 53 52 50 42 47 48 45 47 45 45 47 53 51 50 49 50 47 44 45 41 43 48 50 48 48 48 38 35 28 35 37 35 39 39 37 30 30
53 54 53 53 52 53 50 50 52 53 52 54 47 43 46 38 42 45 46 48 46 46 51 51 48 48 45 38 39 38 43 46 48 48 45 44 35 36 38 40 39 39 38 38 34 36 33
53 53 52 51 51 52 50 49 51 53 53 51 47 46 45 43 47 46 41 45 46 47 49 46 46 46 46 41 42 38 42 41 42 44 40 41 32 32 32 36 36 33 37 37 37 37 36
52 53 51 51 52 51 50 49 50 52 54 50 46 47 49 38 40 38 38 46 48 49 49 50 49 45 39 46 48 47 48 47 44 41 39 38 30 29 26 32 31 28 35 35 36 39 38
52 52 52 52 53 52 49 49 52 52 52 51 48 47 41 34 32 39 46 48 47 47 47 49 48 42 48 51 49 46 44 41 40 41 43 32 29 28 25 32 24 39 43 44 39 41 43
52 52 52 53 53 53 50 51 52 52 53 51 48 48 41 33 36 41 46 46 46 47 45 47 48 48 49 44 34 31 31 32 32 38 37 37 32 29 30 29 32 40 43 37 36 36 41
52 52 52 52 52 52 52 52 52 52 52 53 50 47 45 37 39 48 45 45 37 35 37 41 47 47 45 31 30 23 23 30 32 35 37 36 30 27 29 26 25 36 41 43 41 30 40
51 52 52 52 52 51 52 52 52 52 52 53 50 50 48 38 44 47 41 42 43 38 38 36 42 40 41 30 29 23 26 33 28 24 24 27 30 32 32 28 30 39 42 45 31 33 43
51 51 51 51 51 51 51 52 52 52 52 53 50 51 49 40 44 49 50 46 44 41 36 41 40 36 36 33 29 30 20 29 29 34 30 30 25 22 27 26 23 42 42 36 41 43 46
51 51 50 50 50 50 51 51 51 51 52 53 50 51 50 46 47 48 50 51 51 51 44 39 42 39 37 33 33 29 27 28 30 30 35 31 35 33 36 32 41 47 46 49 48 44 42

GFSGBSN_sfc_temp_009.txt.gz
Temp
60 60 60 60 60 60 60 60 59 58 57 57 57 58 59 59 59 58 57 56 57 57 57 58 59 59 59 68 70 80 70 74 78 77 73 73 70 67 64 66 67 65 66 66 68 66 68
60 60 60 59 59 59 60 59 58 57 57 57 57 57 57 58 58 58 57 56 56 57 57 58 59 58 66 63 79 77 75 78 78 78 74 75 72 71 67 65 66 67 67 65 67 67 67
60 59 59 59 58 58 59 58 57 57 57 57 57 57 57 57 57 57 56 56 56 56 57 58 58 59 69 69 78 76 78 77 77 78 75 75 74 73 69 66 66 65 63 64 64 64 66
60 59 59 59 58 58 58 57 57 57 57 57 57 57 56 57 57 57 56 56 56 57 57 58 58 61 66 78 77 77 78 78 78 78 77 75 74 69 67 68 64 61 60 58 63 64 65
59 59 59 59 58 58 58 57 57 57 57 57 57 57 57 56 56 56 56 56 56 57 57 57 62 68 66 78 75 76 77 75 75 76 74 74 71 64 65 60 58 56 55 54 58 61 62
60 59 59 59 58 58 58 57 56 56 57 57 57 57 57 57 56 55 55 56 57 57 59 62 68 66 71 69 72 74 76 74 71 72 71 69 63 61 59 60 50 52 53 54 53 60 61
59 59 59 59 58 59 59 58 56 56 56 57 57 58 58 57 56 55 58 61 65 64 66 63 63 63 67 74 74 72 72 73 71 66 60 61 60 54 56 57 57 56 53 52 56 58 58
58 58 58 59 58 59 58 58 56 56 56 57 57 57 57 56 56 55 58 62 62 65 60 64 65 66 69 70 66 70 73 67 64 58 61 59 53 59 58 57 57 56 53 52 55 56 56
58 58 58 58 58 58 58 57 56 56 56 56 56 57 56 56 55 59 61 62 65 65 58 63 66 66 68 71 63 64 68 65 60 56 55 54 57 59 58 55 54 53 53 51 51 55 55
57 57 57 58 58 57 57 56 56 56 56 56 56 56 56 56 61 61 61 64 63 64 48 55 63 68 69 68 62 68 67 66 61 56 57 56 59 56 55 53 54 49 55 53 51 50 49
57 57 57 57 57 56 56 56 56 56 55 56 56 56 57 62 61 61 63 62 63 62 35 58 62 73 67 63 62 66 67 65 56 55 58 54 55 54 53 54 55 53 53 51 51 49 49
57 57 57 56 56 56 56 56 55 55 55 55 56 56 58 62 59 61 61 62 62 43 35 54 62 60 60 59 59 62 60 64 62 56 56 54 59 58 56 57 56 55 52 50 49 48 42
56 56 56 56 56 56 56 56 55 55 55 55 56 57 61 61 60 60 59 59 46 37 55 52 55 58 55 54 55 56 52 51 49 49 44 52 54 57 57 55 57 54 48 42 40 39 40
55 56 56 56 56 56 55 55 55 54 54 55 56 57 57 59 58 59 59 51 39 47 50 56 56 54 52 54 53 52 51 48 52 49 45 44 44 53 56 53 50 49 47 39 32 34 38
56 55 56 55 55 55 55 55 55 54 54 54 56 57 57 58 58 58 55 38 41 47 54 54 55 50 50 53 52 51 48 48 50 51 46 42 45 54 54 55 55 50 44 48 37 28 34
56 55 55 55 55 55 55 55 55 54 54 54 57 56 57 57 58 56 45 43 49 54 55 55 48 50 47 49 49 48 48 52 51 52 54 48 42 50 53 56 55 53 52 43 41 31 30
55 55 55 54 54 54 55 54 54 54 53 54 55 54 59 57 58 51 40 43 51 55 56 54 51 48 49 48 49 47 48 52 54 53 53 50 46 47 50 48 46 49 46 44 44 39 33
54 54 54 54 53 54 54 53 52 53 53 56 52 50 58 58 51 43 45 52 52 54 56 55 53 52 49 48 47 47 47 50 53 55 49 49 43 39 45 50 52 50 46 45 38 35 36
54 54 54 54 53 54 53 50 51 53 53 56 52 53 57 58 41 37 50 51 53 53 51 53 51 52 52 47 43 48 49 52 52 53 50 50 41 36 42 46 50 47 47 43 40 38 36
53 53 54 54 53 53 50 50 51 53 53 54 51 44 49 49 48 48 47 48 49 53 52 51 51 53 49 46 47 46 47 52 52 52 47 50 42 40 37 42 44 40 43 44 43 35 37
53 53 53 52 50 51 50 50 50 52 52 55 49 46 48 41 45 48 49 50 48 48 53 53 50 50 48 41 44 44 48 50 51 49 49 48 40 41 42 44 43 42 42 42 40 42 36
53 53 52 51 50 50 50 50 50 52 53 52 49 47 46 44 48 48 43 48 48 49 51 49 48 49 50 45 46 44 48 47 47 50 47 45 39 38 35 39 39 35 41 41 42 42 41
53 53 51 50 51 50 50 50 51 52 54 52 48 49 50 39 42 42 42 49 50 50 50 52 50 48 43 49 52 53 51 49 50 48 44 42 37 34 32 35 35 33 39 40 42 44 44
52 52 51 51 53 51 49 50 52 52 53 53 49 49 44 37 37 42 48 50 49 50 48 51 52 45 52 54 52 49 46 45 46 44 46 34 34 33 32 33 28 45 48 48 44 46 48
52 52 52 52 53 53 52 51 51 52 53 52 49 50 44 33 38 42 47 47 48 48 47 49 50 49 52 47 39 35 36 35 36 39 40 41 35 32 30 31 36 43 47 45 42 44 47
51 52 52 52 52 52 52 51 51 51 52 53 50 49 47 37 41 49 47 47 41 41 42 44 49 49 47 37 35 31 32 34 37 38 40 38 36 35 31 29 27 40 47 49 47 37 47
51 51 52 52 51 51 52 51 51 51 52 54 51 51 50 40 47 49 45 45 46 43 41 41 46 43 46 35 32 33 35 36 35 29 29 31 32 31 33 30 35 44 46 48 34 36 44
51 51 51 51 51 51 51 51 51 51 52 54 52 52 51 42 47 51 52 47 46 45 40 44 43 40 37 34 33 33 31 35 35 38 35 36 33 29 29 29 27 47 46 39 45 45 46
50 50 50 50 50 51 51 51 51 51 51 53 52 51 51 48 49 50 53 55 55 53 46 42 46 42 41 35 34 33 31 29 33 33 40 35 39 36 36 37 46 49 50 50 47 45 42

GFSGBSN_sfc_temp_012.txt.gz
Temp
60 60 60 60 60 60 60 60 59 58 58 58 58 58 59 60 60 59 58 57 57 57 57 58 59 59 68 79 78 91 72 79 89 88 87 85 83 80 75 77 79 75 76 77 77 77 77
60 60 60 60 59 60 60 59 58 58 57 57 57 57 58 59 59 59 58 57 56 56 57 58 59 58 78 72 90 91 89 90 91 91 88 87 83 84 78 75 76 75 76 75 76 75 75
60 60 59 59 59 59 59 58 57 58 58 58 57 57 57 57 58 58 57 57 55 57 57 58 59 70 81 77 91 92 89 89 89 89 85 85 86 82 81 75 76 75 71 75 73 74 73
60 60 60 59 58 58 59 58 57 58 58 58 58 57 57 57 57 57 57 56 57 57 58 59 59 73 76 88 93 89 91 88 89 89 87 86 87 81 78 78 75 73 73 67 71 74 73
59 60 59 59 58 58 58 57 57 58 58 58 58 58 57 57 56 56 57 57 57 58 59 59 72 80 75 84 84 87 87 84 86 86 85 84 83 77 77 74 70 71 66 64 67 72 72
60 60 59 59 59 58 58 57 57 57 57 58 58 58 58 57 57 56 56 57 58 60 67 72 80 77 80 76 82 83 87 84 83 82 81 80 82 76 77 73 63 62 63 66 64 70 71
60 60 59 59 59 59 59 58 57 56 57 58 58 59 59 58 57 55 60 74 76 75 80 73 74 74 77 84 85 83 82 82 83 80 73 74 74 66 66 67 67 66 63 62 67 68 66
59 59 59 59 59 59 59 58 57 56 57 57 58 58 58 57 56 56 70 78 73 78 70 75 75 77 78 81 76 81 86 78 76 70 72 72 63 67 68 67 65 64 62 62 64 65 64
58 58 58 58 59 58 58 58 56 56 56 57 57 57 57 56 55 64 77 73 76 77 73 72 75 76 77 81 71 74 80 76 73 68 69 66 64 66 66 65 63 62 60 59 58 64 66
57 57 57 58 58 57 57 57 57 56 56 56 57 56 57 55 65 76 74 75 76 74 66 64 71 75 77 77 70 78 77 74 70 66 68 65 66 64 64 61 63 58 62 61 59 59 59
57 57 57 57 57 56 56 56 56 56 56 56 56 58 56 59 75 78 73 76 75 74 47 66 70 82 78 72 71 73 76 76 66 64 66 59 63 63 61 60 63 59 61 60 59 59 59
57 57 57 57 56 56 56 56 55 55 55 56 56 58 58 71 76 72 75 74 74 59 44 61 70 68 69 70 68 73 72 76 71 68 69 64 68 66 64 64 63 64 60 59 60 60 51
56 56 57 56 56 56 56 56 55 55 55 56 56 58 68 75 73 72 73 75 60 51 61 60 62 66 65 62 64 66 64 61 61 57 56 62 62 66 65 63 65 65 59 51 46 47 47
56 56 56 56 56 55 56 55 55 54 55 56 56 59 60 71 75 71 75 67 50 55 58 64 64 64 60 62 61 62 61 60 63 61 59 55 51 60 64 60 57 58 57 48 38 43 48
56 56 56 55 55 55 55 55 55 54 54 55 57 72 73 70 70 72 73 55 54 59 64 62 64 59 58 61 62 61 58 58 59 61 55 53 52 62 61 63 61 57 53 56 45 36 42
56 56 55 55 54 55 55 54 54 54 54 55 75 74 71 69 70 73 65 52 59 62 64 65 57 59 55 58 58 58 57 59 57 61 63 55 50 57 60 63 63 60 60 51 52 36 36
55 55 55 54 54 54 54 53 51 53 54 55 73 70 69 69 70 73 58 57 60 63 64 62 59 57 58 56 59 55 55 58 61 60 63 59 55 54 57 56 55 57 55 53 54 49 40
54 54 54 54 54 54 53 51 52 53 54 63 68 64 69 69 66 64 61 62 56 62 65 63 63 61 58 57 55 55 54 57 61 61 56 57 54 49 52 57 59 58 54 54 46 40 45
54 54 54 54 53 53 50 51 51 53 54 72 70 68 71 69 55 53 59 59 61 62 60 61 59 61 61 56 51 56 56 58 60 61 57 58 51 46 49 53 57 54 55 54 50 46 41
54 54 54 54 52 51 50 50 51 53 53 71 70 57 66 69 64 63 59 58 57 62 59 62 59 62 59 56 58 54 54 57 58 59 48 55 53 49 46 50 53 49 52 54 51 41 44
54 54 53 50 50 50 50 50 51 53 53 70 67 60 60 55 58 63 62 61 58 56 61 62 59 60 58 51 53 52 56 56 57 52 57 57 47 50 52 54 54 51 50 52 50 50 42
54 54 52 51 50 50 50 50 52 52 53 67 64 62 62 59 60 62 54 59 59 57 60 57 58 59 60 54 56 52 56 56 55 57 56 55 47 45 43 49 51 47 52 53 52 52 51
53 53 51 51 51 50 50 50 52 52 56 69 63 63 68 48 56 58 57 60 59 61 58 63 62 59 53 59 63 61 60 59 58 55 51 50 46 41 37 44 44 37 47 51 52 53 52
52 52 50 51 53 50 50 52 52 52 56 69 65 67 59 50 56 59 59 61 59 59 57 59 63 55 58 63 62 61 58 55 55 53 55 41 43 39 36 37 31 49 58 56 52 54 57
52 52 52 53 53 52 52 52 51 52 53 66 63 66 58 38 56 55 59 58 59 59 58 59 57 57 64 60 51 40 45 39 42 48 49 51 43 35 32 36 44 49 52 50 48 48 54
51 52 52 53 52 52 52 51 51 52 53 64 61 61 62 43 52 61 58 60 56 55 55 52 56 59 60 51 45 36 41 43 45 45 45 46 44 41 35 30 30 47 53 55 54 43 53
51 52 52 52 52 52 52 51 51 52 53 66 61 59 66 53 59 60 58 58 60 58 55 54 54 51 57 43 38 39 43 46 43 37 35 35 35 34 36 32 41 53 54 55 36 40 52
50 51 51 51 52 52 52 52 52 51 52 63 60 60 64 54 58 59 60 58 58 61 53 54 54 51 46 37 37 40 36 45 43 48 43 43 37 34 35 31 30 54 54 41 50 52 46
50 50 50 51 51 51 52 52 52 52 52 57 64 60 60 62 59 59 60 62 63 66 61 55 56 55 55 45 40 38 34 34 39 39 50 42 48 45 44 45 57 59 56 58 54 50 43

GFSGBSN_sfc_temp_015.txt.gz
Temp
61 60 60 60 60 60 61 61 60 60 59 58 58 59 59 60 60 60 59 59 58 58 58 58 59 60 70 79 82 96 77 77 91 94 93 90 86 84 78 81 82 78 79 82 82 81 82
60 60 60 60 60 60 61 60 59 58 58 58 58 58 58 59 60 59 59 57 57 57 57 58 59 59 76 75 94 97 96 96 96 96 92 92 87 88 83 82 80 82 81 80 81 80 80
60 60 60 59 59 59 59 59 58 58 58 58 58 58 58 58 59 58 58 57 57 56 57 59 60 73 81 81 96 98 95 94 95 94 89 91 92 87 86 78 84 81 75 78 79 80 78
60 60 60 59 59 59 58 59 58 58 59 59 59 58 57 57 57 57 57 56 56 57 58 59 60 78 79 93 99 94 96 93 95 95 93 93 93 87 85 85 81 77 77 70 77 79 79
59 60 60 59 59 58 58 58 58 58 59 59 59 58 58 57 57 57 57 57 57 58 59 60 73 78 77 82 88 93 94 89 91 91 91 90 90 84 82 76 73 75 69 69 70 79 77
60 60 60 59 59 59 59 58 57 58 58 59 59 59 58 58 57 57 57 57 58 60 66 80 86 79 83 81 87 89 93 91 87 86 84 84 84 79 80 76 64 68 68 71 69 75 76
60 60 60 59 59 59 59 58 57 57 58 59 60 60 59 58 58 57 60 77 78 76 83 78 80 78 82 88 91 87 89 88 87 84 76 80 75 71 71 73 73 71 69 68 73 74 70
59 59 59 59 59 59 59 59 57 57 58 58 59 59 59 58 58 57 70 81 79 84 73 82 82 82 84 87 80 84 91 81 79 75 77 75 69 72 73 72 71 69 67 67 70 71 70
59 59 59 59 59 59 59 58 57 57 57 58 58 59 58 57 56 64 82 80 86 86 75 76 80 80 80 86 77 78 86 82 78 74 74 70 70 72 71 70 68 68 66 64 64 70 73
58 58 58 58 58 58 58 58 57 57 57 57 58 59 57 55 63 83 80 83 85 82 69 68 75 78 82 82 73 84 84 80 76 71 73 70 72 69 69 66 68 63 68 65 65 64 62
58 58 58 58 58 57 57 56 56 57 57 57 57 59 56 57 81 82 80 85 84 79 50 70 74 86 83 76 77 77 85 81 72 71 71 65 67 67 65 65 68 64 67 66 66 64 65
58 58 58 58 57 56 56 56 55 56 57 57 57 59 57 71 82 81 84 83 80 62 48 65 74 73 73 75 74 78 78 82 79 72 74 69 74 71 68 69 68 70 66 66 66 65 53
59 58 57 57 57 56 56 56 55 55 57 58 57 59 63 84 78 81 81 78 62 53 68 63 66 71 71 68 69 72 69 68 68 61 61 67 66 71 70 67 70 70 64 53 49 50 50
57 57 57 57 56 56 56 55 55 55 56 58 58 60 67 80 84 79 78 70 52 62 65 71 70 70 65 69 66 68 68 65 69 68 66 60 54 65 69 65 62 63 62 50 41 45 52
57 57 57 56 56 56 55 55 54 54 55 58 57 78 79 76 78 78 75 57 59 65 70 67 69 64 62 66 67 66 64 63 64 67 61 59 57 67 67 69 68 62 57 62 50 46 46
57 57 57 56 55 55 55 53 52 54 55 58 80 79 78 76 77 76 68 57 64 69 71 72 62 64 60 63 63 64 62 64 62 66 69 62 54 63 65 68 68 64 66 54 56 39 39
56 57 56 55 54 54 53 51 52 54 55 58 78 73 73 78 76 75 61 63 66 70 71 68 64 62 64 61 64 61 60 63 66 65 69 65 60 59 63 61 60 62 60 58 59 52 42
55 55 55 55 54 54 51 51 51 54 55 59 74 67 76 77 69 71 65 67 60 68 71 68 69 67 64 63 61 60 60 62 66 66 61 62 59 52 58 63 65 63 60 59 48 45 49
55 55 55 55 54 51 51 51 51 53 54 81 75 72 77 74 59 59 66 65 68 67 68 67 64 67 68 63 56 61 61 63 65 65 61 63 56 49 54 58 62 59 60 59 55 50 44
54 55 55 53 51 51 51 51 51 53 54 72 75 61 71 74 74 69 64 64 61 68 66 68 66 68 65 61 65 59 59 61 63 64 50 58 59 52 47 53 59 54 58 60 57 45 46
54 55 53 51 51 51 51 51 52 53 54 72 77 67 69 60 65 69 69 67 63 60 67 69 64 66 63 56 60 58 62 60 62 52 61 61 50 55 57 59 59 57 56 57 55 55 46
54 54 51 51 51 51 51 51 52 52 53 77 71 68 71 68 69 67 58 64 64 63 65 63 64 66 66 58 61 57 62 61 60 61 61 60 49 49 47 56 57 52 56 58 58 57 56
54 52 51 51 51 51 51 52 52 52 55 78 74 74 73 55 66 63 63 65 66 66 63 70 68 65 59 64 67 67 66 65 64 60 56 54 50 46 41 49 46 39 50 56 57 59 56
53 51 51 53 51 51 52 52 52 52 55 78 74 76 62 56 62 65 66 67 65 66 62 67 69 61 63 70 69 66 64 62 62 59 61 48 48 43 38 38 33 54 63 61 57 58 61
52 51 52 53 53 53 53 52 52 52 53 75 74 74 63 42 65 64 66 66 65 66 64 63 62 67 71 66 55 45 46 39 46 56 56 58 49 38 35 40 47 53 55 53 51 51 61
52 52 53 53 53 53 52 52 52 52 53 73 68 70 70 48 55 69 65 66 60 59 59 57 63 67 66 56 48 37 42 50 48 49 53 52 50 44 38 32 32 49 59 60 59 44 56
52 52 53 53 53 53 53 52 52 52 53 69 69 66 73 59 66 68 63 62 69 64 60 60 59 56 64 46 39 40 46 53 46 39 35 37 38 37 37 34 43 58 58 60 40 44 56
51 51 52 52 52 53 53 52 52 52 53 65 67 68 69 61 63 66 67 64 65 66 55 60 58 57 53 39 40 44 38 49 48 54 46 41 37 34 38 33 32 59 57 43 52 57 55
50 51 51 51 52 52 53 52 52 52 52 55 71 69 70 68 63 66 66 67 67 69 68 62 61 59 60 51 45 45 39 37 42 42 59 46 51 47 48 47 61 61 57 59 59 55 50

GFSGBSN_sfc_temp_021.txt.gz
Temp
61 61 61 60 60 60 61 61 60 60 59 59 59 59 59 60 60 59 60 59 59 59 58 58 58 59 59 62 69 86 71 70 74 78 77 75 73 71 67 69 70 67 68 72 72 72 70
61 60 60 60 60 60 61 60 59 59 59 58 58 58 58 58 59 59 59 59 58 57 57 58 58 59 58 62 86 90 87 77 81 78 79 78 77 78 72 70 66 70 71 69 69 69 70
61 60 60 59 59 59 59 59 59 59 58 58 58 58 57 58 58 58 59 58 57 57 57 58 59 62 65 69 84 83 88 81 83 83 80 82 80 75 73 69 73 72 65 67 67 69 66
60 60 60 59 59 59 59 58 59 58 58 58 58 58 57 57 57 57 58 57 57 56 57 58 59 61 64 86 82 88 85 84 87 87 84 82 82 76 71 72 71 65 62 55 65 69 69
60 60 60 59 59 59 58 58 58 58 58 58 58 58 57 57 57 57 57 56 56 57 58 59 58 60 66 81 80 84 83 82 83 84 80 88 78 69 71 60 55 57 50 56 61 70 67
60 60 60 60 59 59 59 59 58 58 58 58 58 58 58 57 57 56 56 57 57 57 59 67 71 63 73 75 81 83 81 83 78 77 75 71 67 61 60 56 48 52 55 54 56 59 63
60 60 60 60 59 59 59 59 58 58 58 59 59 59 58 57 57 56 53 54 60 60 63 65 68 70 77 81 82 79 84 79 77 71 61 68 58 53 57 61 64 62 59 56 56 65 61
59 59 59 59 59 59 59 59 58 57 58 59 59 59 58 58 57 57 53 60 68 69 60 74 76 76 81 81 74 77 82 70 68 61 66 61 54 64 68 66 63 63 59 55 60 66 60
59 59 59 59 59 59 59 59 57 57 58 59 59 59 59 57 57 54 59 67 76 72 60 70 76 76 76 79 72 72 75 72 67 63 62 56 61 70 68 62 61 59 55 55 55 61 58
58 58 58 59 59 58 58 58 57 57 58 59 59 58 57 56 57 63 63 75 74 68 51 62 69 73 78 77 68 78 79 71 68 62 63 61 68 66 63 61 61 54 62 60 59 53 45
58 58 58 58 58 57 57 57 56 57 58 59 58 58 56 58 58 64 71 75 72 66 32 65 69 81 77 70 70 70 77 72 63 65 63 57 61 60 59 60 63 57 61 58 57 51 48
58 58 58 58 57 57 57 56 56 56 57 59 59 58 56 59 56 67 71 70 66 46 35 61 70 67 66 69 70 72 70 73 72 66 64 61 67 63 60 65 64 65 59 58 56 51 36
57 58 58 57 57 57 57 56 55 56 57 58 58 56 58 69 62 69 67 63 44 36 65 59 62 67 65 63 66 67 64 60 55 50 50 60 60 62 66 58 62 59 51 35 34 32 33
57 57 59 57 57 57 56 54 52 55 56 58 58 56 62 70 68 67 63 54 39 59 59 68 65 65 60 63 63 64 61 54 60 58 53 48 44 58 65 59 53 55 52 33 31 29 34
57 57 58 57 57 56 55 52 52 52 56 57 58 61 63 64 68 65 57 41 47 58 66 63 64 58 58 63 60 60 56 55 57 58 51 49 49 61 63 63 60 55 45 54 41 35 30
57 57 57 57 56 55 52 51 52 54 56 57 59 60 62 67 67 61 51 46 58 67 68 66 56 60 53 58 57 56 56 60 58 61 60 56 47 59 62 62 62 57 59 42 38 30 30
56 56 57 56 55 54 51 51 52 54 55 58 58 56 63 68 64 56 44 51 63 70 67 62 59 58 60 57 59 57 56 59 62 61 60 55 51 50 58 53 51 52 49 50 49 38 29
55 56 56 56 55 51 51 51 51 53 55 58 57 50 63 64 52 51 49 61 58 64 67 65 63 63 59 59 56 56 53 56 62 60 54 54 49 36 50 57 60 56 52 51 32 36 32
55 55 55 55 50 51 51 51 53 53 54 58 55 56 64 62 42 41 58 63 65 63 63 62 61 63 63 56 50 54 54 59 60 56 50 53 46 33 42 50 56 52 56 55 46 36 34
54 54 55 53 50 51 51 51 53 53 55 58 56 47 54 55 57 55 58 57 58 65 63 65 63 63 59 56 59 52 52 57 58 56 51 53 51 42 34 44 49 45 51 53 46 30 33
54 54 54 50 50 50 51 51 53 53 55 61 57 53 55 44 50 54 58 59 57 56 62 63 59 60 57 47 52 50 53 54 56 53 54 52 42 46 48 51 52 49 49 49 47 45 35
54 54 52 51 50 50 51 53 52 52 53 58 56 56 57 54 58 55 52 57 57 60 60 58 56 60 59 51 52 49 54 53 51 54 52 52 36 38 37 49 48 43 47 48 49 49 47
54 53 51 51 50 50 53 53 52 52 54 58 60 62 57 50 53 49 51 57 59 59 59 63 59 53 47 54 55 55 55 55 55 52 48 45 36 32 31 40 37 30 41 48 49 51 48
53 52 51 52 50 53 53 52 52 52 53 59 59 58 49 43 49 54 61 61 59 60 56 58 58 51 57 60 56 53 52 53 56 53 54 40 36 32 26 29 22 45 54 52 49 50 51
51 51 51 54 53 53 53 52 52 52 53 60 59 58 48 36 52 57 59 59 58 56 54 55 58 59 60 55 40 38 35 36 43 52 50 50 35 27 26 27 36 46 51 47 43 42 50
50 50 53 53 53 52 52 52 52 52 54 60 56 58 53 42 45 62 57 57 48 47 48 52 59 59 57 38 33 30 29 38 37 43 47 46 39 31 28 21 19 39 52 55 52 31 48
51 52 53 53 53 52 52 52 52 52 53 58 57 59 57 46 55 57 52 52 56 51 45 50 50 49 52 34 33 31 32 45 34 32 28 32 33 26 23 20 31 47 54 55 32 34 46
52 52 52 52 53 53 52 52 52 52 53 57 56 59 57 48 53 58 58 55 56 51 41 49 45 44 36 36 33 32 29 34 36 42 34 30 28 25 30 29 24 52 52 39 43 47 47
51 51 52 52 53 55 53 52 52 52 53 54 56 61 61 54 52 57 58 59 58 57 53 52 49 49 45 38 34 35 33 35 34 30 47 35 38 33 35 33 47 52 49 49 50 46 44

GFSGBSN_sfc_temp_024.txt.gz
Temp
62 62 61 60 60 60 61 61 60 59 59 59 59 58 59 59 60 59 58 58 59 59 58 58 58 59 57 59 65 81 70 68 71 73 72 72 69 68 63 64 65 64 64 68 67 69 64
61 60 60 60 60 60 61 60 59 58 59 58 58 58 58 58 58 59 58 58 58 58 57 58 58 59 56 57 80 82 78 72 75 74 74 73 72 73 67 66 65 67 67 66 67 65 66
61 60 59 59 59 59 59 59 58 58 59 58 57 57 57 57 58 58 58 58 58 57 57 57 58 60 59 65 78 78 80 79 78 77 75 77 75 69 67 66 70 67 62 64 62 63 62
60 60 59 59 59 58 58 58 58 58 58 58 58 57 57 57 57 57 57 57 56 57 57 57 58 57 60 81 78 81 78 80 82 83 79 77 77 70 68 67 68 63 59 53 61 64 64
59 59 59 59 59 58 58 58 58 58 58 57 57 57 57 56 56 56 56 56 56 56 57 58 55 56 63 79 78 84 80 78 80 81 79 84 75 66 67 57 53 55 48 51 56 65 63
60 59 59 59 59 59 58 58 58 57 57 57 58 57 57 57 56 56 56 56 57 56 57 63 66 59 70 71 78 79 79 79 75 74 73 71 62 58 56 53 45 49 50 45 54 57 57
60 59 59 59 59 59 59 59 58 57 57 57 58 58 57 57 56 56 53 53 57 57 59 63 64 66 72 76 79 75 78 76 73 68 58 63 57 51 56 57 61 61 54 52 51 59 59
59 59 59 59 59 59 59 59 57 57 57 58 58 58 57 57 57 56 52 58 64 66 58 70 70 70 75 76 69 73 77 67 65 58 62 57 52 61 64 63 59 58 54 52 57 63 57
58 58 58 59 59 59 59 59 57 57 57 57 58 58 58 56 56 54 55 62 70 69 57 67 71 70 73 75 67 68 72 67 63 59 58 53 59 65 63 58 57 54 52 50 52 55 54
57 57 57 58 58 58 58 57 57 57 57 57 57 57 56 55 56 58 60 70 69 66 48 59 65 70 74 73 65 73 73 68 64 57 59 58 64 62 58 57 56 49 58 57 54 49 44
57 57 57 58 57 57 57 56 56 56 57 57 57 57 55 56 57 61 68 68 67 63 31 61 65 77 72 67 67 67 73 69 59 60 59 54 57 57 56 56 59 54 58 55 53 47 45
57 57 57 57 57 57 56 56 55 55 56 57 57 56 55 56 54 62 66 64 63 43 34 57 66 64 63 65 65 67 66 70 67 61 60 58 62 59 56 61 60 60 56 53 51 47 35
56 56 57 57 57 57 56 55 53 55 56 56 56 55 55 65 61 64 63 59 43 34 60 56 58 62 61 59 61 62 59 56 52 48 47 56 56 60 62 56 59 56 47 34 33 31 32
56 56 56 57 57 56 55 52 52 52 55 56 55 54 57 66 64 63 60 52 38 53 55 62 61 60 57 60 59 59 56 51 56 54 49 45 42 55 61 55 50 51 48 32 31 29 33
56 56 56 56 56 55 52 52 52 51 55 56 55 56 59 62 65 61 55 39 44 53 61 60 60 54 53 59 58 56 51 51 53 54 48 45 47 57 58 59 56 51 44 51 38 33 29
56 56 56 56 56 53 51 51 52 53 55 57 57 57 58 63 62 58 49 43 53 62 63 62 53 56 50 55 54 53 51 56 54 57 56 52 44 55 58 60 59 54 55 41 36 29 29
55 55 56 55 54 50 51 51 51 53 56 54 56 54 59 63 60 52 42 47 58 64 64 59 56 55 56 53 55 51 51 55 57 57 56 52 48 47 54 50 48 49 46 46 44 35 29
54 55 55 55 51 50 51 51 52 53 54 57 53 48 60 61 50 45 46 57 58 61 64 62 59 58 56 55 52 50 50 52 57 55 50 51 45 35 46 55 56 52 49 46 31 36 30
54 54 54 52 50 51 51 50 53 54 54 55 52 52 60 59 40 37 52 59 61 59 59 59 57 59 58 53 47 50 50 55 56 54 49 50 43 32 40 47 52 49 51 49 42 34 34
54 54 54 50 50 51 50 51 53 53 55 56 52 44 51 52 51 51 51 53 54 60 59 61 59 60 56 52 53 48 49 55 55 54 50 52 46 40 34 40 46 43 47 47 42 29 32
53 53 51 49 50 50 50 52 53 53 54 56 52 49 52 43 47 50 54 56 54 53 59 60 57 57 54 45 48 46 50 51 55 52 52 49 40 43 45 47 47 45 44 44 43 41 34
53 52 49 50 50 50 51 52 52 52 54 56 54 53 51 48 54 52 49 53 54 56 57 54 53 55 54 48 50 46 50 48 48 50 48 48 36 37 37 44 43 40 44 44 44 45 45
53 52 50 50 50 51 53 52 52 52 54 59 59 58 55 46 48 47 48 54 55 57 57 58 55 49 45 50 51 50 51 52 52 50 45 42 35 31 30 36 36 30 40 45 45 45 45
52 51 50 50 50 53 52 52 51 52 54 60 59 56 48 41 47 50 56 57 55 55 52 55 54 49 54 57 53 52 50 50 51 49 50 38 33 29 25 27 21 42 49 50 46 46 45
51 50 51 51 52 52 52 51 51 52 52 56 57 56 47 35 47 53 55 52 52 52 51 51 53 55 56 51 38 38 34 37 40 46 45 45 32 27 23 26 34 42 47 45 43 41 46
50 50 52 52 52 51 51 51 51 52 53 55 54 55 50 41 43 55 51 53 46 44 45 49 56 56 50 35 32 29 29 35 35 40 45 42 36 29 28 20 19 37 48 52 49 32 47
49 51 52 52 52 51 52 51 52 52 53 56 54 56 54 45 51 53 49 50 51 46 43 46 48 47 48 29 32 26 31 42 32 31 28 30 27 25 17 17 29 42 50 51 32 35 45
51 52 51 52 52 51 51 51 52 52 52 57 54 56 56 45 50 54 54 52 51 47 40 47 45 42 37 32 28 33 25 33 33 39 34 31 28 24 24 18 24 47 48 39 42 44 45
51 51 51 52 52 51 51 51 51 52 52 55 54 57 57 52 51 55 55 55 55 56 50 47 47 45 42 36 35 36 27 34 31 30 43 35 36 32 35 34 45 48 47 48 47 44 43

GFSGBSN_sfc_temp_027.txt.gz
Temp
62 62 61 61 60 60 60 60 60 59 58 58 59 59 59 59 59 59 59 58 58 59 58 58 58 58 55 57 63 77 68 68 70 71 69 68 66 65 61 61 63 61 62 64 65 67 63
61 61 61 60 60 60 60 60 59 58 58 58 58 58 58 58 58 58 58 57 59 58 58 58 58 58 53 56 75 77 72 71 72 69 69 70 69 69 63 63 61 66 62 62 64 64 63
61 61 60 59 59 59 59 59 58 58 58 58 58 57 57 57 57 57 57 57 58 57 57 57 58 58 57 64 72 72 76 73 73 73 71 72 72 68 67 61 66 64 59 61 60 59 60
61 60 60 59 58 58 58 58 58 58 58 58 58 57 57 56 57 57 57 57 57 57 57 57 58 55 58 76 73 77 73 77 78 76 75 77 74 69 65 64 62 57 56 50 57 61 60
60 60 59 59 58 58 58 58 58 58 58 57 57 57 56 56 56 56 56 56 55 56 57 58 53 53 61 77 75 80 78 76 76 77 73 81 72 63 63 55 50 52 45 48 54 60 59
60 60 59 59 58 58 58 58 58 58 57 57 57 57 57 56 56 55 55 56 56 56 56 61 62 56 68 69 74 75 75 75 73 71 70 68 61 57 54 51 43 47 47 41 50 55 56
60 60 59 59 59 59 59 59 58 57 57 57 57 57 57 56 56 55 52 51 55 55 57 60 62 63 67 73 75 72 75 73 72 67 58 61 55 49 51 53 56 54 49 48 49 55 55
59 59 59 59 59 59 59 59 58 57 57 57 57 58 57 57 56 56 52 58 63 64 55 64 66 66 71 72 66 70 73 66 63 55 59 56 50 56 61 58 57 55 51 48 52 58 55
58 58 58 59 59 59 59 59 58 57 57 57 57 58 57 56 55 53 56 61 67 65 55 63 68 67 69 71 65 66 69 64 60 57 55 51 55 62 60 55 55 51 49 48 50 53 54
58 57 57 58 58 58 58 58 57 57 56 57 57 57 55 55 54 56 58 66 66 64 47 56 63 68 71 70 62 70 70 66 61 56 57 55 60 59 56 54 53 47 54 54 52 48 42
57 57 57 57 57 57 57 57 57 56 56 57 57 56 55 56 56 57 66 66 65 62 31 58 63 74 69 64 64 65 70 66 57 58 57 51 53 54 54 53 55 52 55 52 51 44 42
57 57 57 57 56 56 56 56 55 55 56 57 56 55 55 55 53 61 63 61 62 42 33 54 63 60 61 62 61 63 65 67 63 58 57 55 58 56 54 57 56 57 53 50 46 44 34
56 56 56 56 56 56 56 56 54 54 56 56 55 55 55 62 60 63 60 58 41 33 56 52 54 59 57 55 58 58 55 53 50 46 45 53 53 57 58 52 55 53 45 33 32 30 31
56 56 56 56 56 56 56 54 52 51 55 55 55 54 55 60 61 61 58 51 36 50 52 58 57 56 54 56 55 55 52 49 54 51 46 43 41 52 58 52 49 48 46 32 33 28 32
56 56 55 55 55 56 54 51 52 51 55 54 54 53 56 59 61 59 53 38 42 48 57 56 56 51 50 55 55 53 48 48 50 51 46 43 44 54 55 55 54 48 41 48 35 31 29
56 56 55 55 55 54 51 51 52 53 55 54 56 55 56 61 59 57 47 43 50 58 59 59 50 53 48 52 51 49 48 53 52 54 53 50 42 52 56 56 55 52 53 39 34 28 29
55 55 55 55 54 51 51 51 51 54 55 55 55 53 58 60 58 51 41 45 54 61 61 57 54 51 53 50 51 48 48 52 53 54 54 50 46 45 51 48 45 48 44 43 41 33 27
54 55 54 54 52 51 51 51 51 54 54 56 52 47 58 58 48 42 45 53 56 58 62 59 57 55 52 51 48 48 48 50 54 53 48 48 43 34 44 52 53 49 45 43 30 34 28
54 54 54 52 51 51 51 51 52 54 56 54 50 50 58 57 39 36 49 56 57 56 57 56 54 55 55 49 45 48 48 52 53 51 48 49 41 32 39 46 50 45 47 43 39 33 32
54 54 52 50 51 51 50 50 53 53 54 55 50 43 49 50 48 49 48 51 52 58 57 57 56 57 53 49 50 46 47 52 52 51 50 51 43 39 34 39 43 40 44 43 41 29 31
53 53 50 50 50 50 50 51 53 53 53 56 50 46 49 42 45 48 51 52 51 50 56 57 54 54 51 44 45 43 47 49 52 51 49 47 39 40 41 43 43 43 43 42 40 39 34
53 50 50 50 50 50 50 53 52 53 53 54 50 48 48 46 50 50 46 50 52 53 54 52 52 51 51 48 49 45 48 46 46 48 45 45 35 37 36 41 40 38 43 41 41 41 41
52 49 50 50 50 50 53 51 51 53 56 53 52 53 52 43 45 45 45 52 54 55 52 54 53 48 44 48 49 48 48 50 50 47 42 40 34 32 29 34 35 30 39 42 43 44 43
51 50 50 50 50 53 52 51 51 53 54 57 54 52 46 38 43 48 53 54 53 53 51 52 53 48 52 53 51 51 48 47 48 46 47 36 31 26 24 26 21 41 45 46 44 44 43
49 50 50 50 52 52 51 51 51 52 53 59 55 53 46 34 45 50 51 49 50 50 48 49 51 52 53 48 38 39 34 37 39 43 42 43 31 26 22 25 34 41 45 43 41 40 44
50 51 51 52 51 51 50 51 51 52 53 57 53 52 50 43 45 53 49 50 44 42 44 47 53 52 48 34 32 29 30 36 34 38 42 39 34 29 26 19 19 37 45 49 47 32 45
50 51 52 52 51 51 51 51 51 51 54 56 54 54 53 44 48 50 47 48 48 44 42 45 47 45 46 28 25 27 31 39 32 30 28 29 25 23 16 17 29 41 47 49 33 35 43
51 51 51 51 52 51 50 50 51 51 53 56 53 54 54 45 48 52 52 50 48 46 41 46 44 41 34 32 28 28 23 32 32 37 33 31 29 27 26 19 26 46 45 38 42 41 44
51 51 51 51 50 50 50 50 51 51 53 55 54 55 54 50 50 53 53 53 52 54 47 45 47 43 42 33 30 31 26 33 29 28 39 32 36 32 34 34 44 46 44 46 45 44 43

GFSGBSN_sfc_temp_030.txt.gz
Temp
62 62 62 61 61 60 61 60 60 59 58 58 58 58 59 59 59 59 58 58 58 59 59 58 58 58 53 53 60 68 67 67 68 69 67 65 62 61 57 59 60 59 62 62 63 65 63
62 61 61 61 60 60 61 60 59 59 58 58 58 58 58 58 58 58 58 58 57 58 58 58 58 58 51 53 71 71 68 67 68 68 67 67 66 67 61 62 61 63 60 59 61 61 62
62 61 61 60 60 59 60 59 59 58 58 58 58 58 57 58 58 58 57 57 57 57 57 58 58 57 53 61 72 69 72 69 69 70 68 68 68 65 62 59 64 60 58 60 61 58 58
61 61 60 60 59 58 58 58 58 58 58 58 58 57 56 56 56 56 56 56 57 56 57 57 58 54 54 73 69 73 69 71 72 72 71 72 70 67 63 62 60 56 54 49 56 58 56
61 61 60 60 58 58 58 58 58 58 58 58 57 57 56 56 56 56 56 56 56 55 56 57 52 51 58 74 71 76 74 72 73 71 69 77 70 62 60 54 49 50 45 46 51 57 56
61 60 60 59 58 58 58 58 58 58 57 57 57 57 56 56 55 55 55 56 56 56 55 59 59 53 64 65 72 74 75 73 69 68 67 65 58 56 53 52 44 45 46 40 46 50 53
61 60 60 59 59 58 59 59 58 57 57 57 57 57 57 56 56 55 53 50 52 51 53 58 59 60 64 72 72 69 72 70 68 65 56 60 54 49 53 53 54 52 48 46 45 53 52
60 60 60 59 59 59 59 59 58 57 57 57 57 57 57 56 56 55 50 52 60 62 53 61 62 63 67 68 62 67 71 63 61 55 56 54 49 55 56 55 54 52 48 46 49 54 51
59 59 59 59 59 59 59 59 58 57 57 56 56 57 56 56 55 52 50 59 66 65 52 60 63 64 66 69 62 63 67 63 59 56 53 51 52 58 56 53 53 49 47 45 47 49 51
59 58 58 59 58 58 58 58 58 57 56 56 56 56 55 54 52 53 55 65 64 61 46 54 60 66 68 67 60 68 68 64 59 53 54 53 56 56 54 52 51 45 51 51 49 45 40
58 57 57 57 57 57 56 57 57 57 56 56 56 56 55 57 54 56 64 63 62 60 32 56 60 71 67 63 63 63 67 64 55 54 53 49 51 53 52 50 53 49 53 50 47 43 41
58 57 57 57 56 56 56 56 56 56 55 56 56 55 54 53 50 58 61 60 60 42 33 52 61 59 58 59 58 60 61 65 61 55 54 51 55 54 51 54 54 55 51 48 44 42 33
56 57 57 56 56 56 56 56 55 55 55 55 55 55 54 59 58 60 59 57 42 33 54 50 52 57 55 52 55 55 53 51 49 45 43 51 51 54 55 51 52 50 44 32 31 29 30
53 56 56 56 56 56 56 55 55 52 53 55 54 54 54 58 58 59 57 50 36 47 49 54 54 53 52 53 52 52 50 47 51 49 43 41 40 50 56 50 47 45 44 33 32 27 31
51 56 56 56 55 55 55 55 52 52 52 54 53 50 53 58 57 57 52 36 40 46 54 53 53 49 47 52 52 50 46 47 48 49 45 42 42 51 53 53 52 45 39 45 34 31 28
53 56 56 55 55 55 54 53 52 51 53 54 52 52 55 58 58 55 45 43 48 54 55 55 47 49 45 48 48 47 46 49 49 51 51 48 41 49 52 54 53 48 50 38 33 28 28
55 55 55 55 54 54 53 51 52 51 54 55 53 51 56 57 57 50 40 44 51 58 58 55 51 48 49 48 48 45 46 49 51 51 52 48 45 44 49 46 44 46 42 40 39 32 27
54 55 55 54 54 53 52 51 51 51 54 53 50 46 57 56 47 41 44 50 54 55 58 56 55 53 50 48 46 46 46 48 50 51 47 46 42 35 42 49 49 46 43 42 30 33 28
54 54 54 54 53 51 51 51 51 52 54 53 49 49 56 55 38 35 47 52 55 54 54 53 52 53 52 47 43 45 46 50 51 49 47 48 40 32 39 44 47 43 44 41 37 33 32
54 54 54 53 52 51 51 51 51 51 54 53 49 42 48 48 45 47 48 49 50 55 54 55 53 54 50 46 47 44 45 49 50 49 49 49 41 38 34 38 40 39 42 41 40 28 31
54 53 52 51 51 51 51 51 52 52 54 53 48 45 48 41 43 45 49 51 49 49 54 55 52 52 49 42 43 42 45 47 50 49 47 46 38 38 38 39 40 40 41 40 39 38 35
53 51 50 50 50 50 51 50 52 52 53 52 49 47 45 43 47 48 45 49 50 51 51 49 50 48 49 46 48 43 47 45 45 46 42 43 35 36 35 38 38 37 40 40 39 38 38
51 50 50 50 50 50 50 52 52 52 54 52 50 51 49 41 42 43 43 49 51 52 50 51 51 47 44 46 47 46 47 47 47 45 40 38 34 32 29 32 33 29 38 40 39 40 40
50 50 50 50 50 51 52 51 51 52 55 54 52 51 45 36 40 46 50 51 51 51 49 49 50 47 48 50 49 50 47 45 46 43 44 35 32 26 24 26 20 39 43 42 42 43 43
49 50 50 50 52 51 51 51 51 52 52 55 52 52 44 33 41 46 49 47 48 47 46 47 48 49 51 47 38 38 34 37 38 40 39 40 31 24 22 24 34 41 43 41 40 40 44
50 50 50 51 51 50 50 50 51 53 53 55 52 50 49 41 43 51 47 47 43 41 42 45 49 50 47 32 32 29 30 36 34 36 40 38 34 29 21 20 19 37 42 46 45 33 44
50 51 51 51 51 50 50 50 51 53 54 56 52 52 51 43 47 48 46 46 46 43 40 44 46 43 44 28 24 26 30 37 32 30 27 28 25 23 17 17 29 40 45 46 33 36 41
51 51 51 51 50 50 50 50 51 53 54 58 54 52 52 44 47 50 51 47 46 45 40 44 43 41 33 32 29 27 24 31 32 36 32 31 29 28 25 17 25 44 45 38 42 40 42
51 51 50 51 49 48 49 50 51 53 53 57 55 53 52 49 48 51 52 52 50 52 46 43 46 43 42 33 27 29 29 32 29 29 37 32 35 30 33 33 43 44 43 44 44 44 42

GFSGBSN_sfc_temp_033.txt.gz
Temp
63 63 62 62 61 61 61 61 60 59 58 58 58 58 59 60 59 59 58 58 58 59 59 58 58 59 55 58 63 73 67 67 70 73 72 69 67 67 63 65 67 65 67 67 68 69 70
62 62 61 61 61 61 61 61 60 59 58 58 58 58 58 59 58 58 58 58 58 59 58 58 58 58 54 57 77 73 69 70 72 72 70 71 70 70 67 66 66 66 67 66 68 67 68
63 61 61 60 60 60 60 59 59 58 58 58 58 57 57 58 58 58 58 57 57 57 57 57 59 58 55 63 77 73 73 72 72 73 69 71 73 70 69 65 70 67 64 66 66 68 65
62 61 61 60 59 59 59 58 58 58 58 58 58 57 57 57 56 57 57 56 56 57 57 58 58 57 56 74 74 72 72 74 73 74 75 75 73 71 70 69 65 64 62 59 66 67 65
60 61 61 60 59 59 58 58 58 58 58 58 57 57 56 56 55 55 56 55 57 56 57 57 54 54 60 74 74 79 78 77 72 72 73 75 73 67 67 62 60 58 55 57 61 66 66
59 61 61 60 59 59 58 58 57 57 57 57 57 57 56 56 56 55 55 55 56 56 56 59 59 54 66 70 74 76 80 79 73 71 70 70 65 62 61 62 52 54 55 57 59 63 62
61 59 61 60 59 59 59 58 58 57 57 57 57 57 57 56 56 55 55 53 52 53 54 58 61 61 67 73 74 75 78 76 74 70 63 64 63 58 61 61 61 59 57 56 58 61 57
59 58 60 60 60 59 59 59 58 57 57 57 57 57 56 56 55 54 52 51 60 65 57 60 62 63 67 70 66 72 77 70 67 61 64 61 56 61 60 61 58 57 56 55 57 58 57
58 57 59 60 60 59 59 59 58 57 57 57 56 56 56 55 55 54 50 56 66 68 57 61 62 64 68 70 66 68 73 69 65 61 59 57 60 61 60 58 58 55 55 54 55 57 57
57 55 57 59 59 59 59 58 58 57 57 56 56 56 55 54 52 53 54 64 64 64 50 55 62 67 69 70 64 73 74 70 64 59 58 58 61 59 58 56 58 53 58 57 55 55 52
56 56 54 58 58 58 57 57 57 57 57 56 55 55 55 57 54 56 64 65 63 61 35 59 63 74 69 66 66 67 70 69 60 58 60 56 57 57 56 56 59 55 58 56 54 52 52
55 54 54 56 57 57 56 56 56 56 56 56 55 55 54 54 52 58 63 63 61 46 36 55 63 62 62 63 63 66 66 68 65 59 59 57 63 61 60 58 59 57 56 54 51 51 44
55 54 54 52 57 56 56 56 56 55 55 55 55 55 55 58 57 62 61 59 45 38 55 52 55 60 58 57 58 59 57 55 56 50 49 55 56 60 61 58 59 57 53 43 41 41 40
55 53 53 51 56 56 56 56 55 55 54 54 54 54 54 56 59 59 59 52 41 48 50 57 56 57 54 57 56 56 55 53 56 55 50 48 47 57 60 58 55 52 53 43 36 36 41
55 53 52 52 55 56 55 55 55 54 52 53 53 52 52 57 57 57 54 41 43 48 55 54 56 52 52 56 55 54 52 52 54 56 51 48 48 59 58 60 59 52 48 52 40 36 38
54 53 52 52 55 55 55 55 54 53 52 54 51 50 54 59 58 56 49 44 50 55 57 57 50 52 48 53 52 52 52 54 54 56 58 53 46 54 58 60 57 56 55 46 44 34 34
53 51 51 52 52 55 55 54 53 52 52 55 53 51 57 59 58 53 44 46 53 58 59 56 52 51 52 51 52 50 51 54 56 56 58 54 52 50 54 53 52 52 48 45 46 41 37
52 51 51 51 53 55 55 53 52 52 53 53 50 47 56 56 49 45 46 51 54 57 59 58 58 55 53 52 50 50 50 54 54 57 54 53 48 43 49 55 56 55 51 49 41 39 36
50 50 51 51 55 54 53 52 52 52 54 51 49 50 56 56 41 39 49 54 57 56 56 57 55 56 55 50 47 50 50 54 54 55 52 52 46 41 45 51 54 52 50 46 43 41 38
49 50 51 52 54 54 52 51 51 52 55 55 50 45 50 50 48 49 49 51 53 56 56 57 54 55 52 50 50 47 49 53 54 54 49 52 46 45 42 46 48 46 46 47 47 39 40
50 50 50 53 53 52 51 51 51 52 54 54 50 47 50 43 46 48 53 52 52 51 57 57 54 54 51 46 47 45 50 51 53 50 51 52 45 45 44 44 46 47 46 45 46 45 43
50 50 52 52 52 51 51 51 51 52 53 52 48 47 46 45 48 50 47 50 52 53 54 53 52 52 54 49 51 46 50 50 50 51 49 48 42 43 41 42 42 43 46 46 45 45 45
51 52 52 51 51 51 50 50 52 53 55 52 51 52 51 41 45 45 46 49 52 53 52 53 54 51 48 51 52 50 50 50 51 49 44 44 40 39 36 37 39 36 43 46 45 46 49
52 51 51 51 50 50 50 50 52 54 55 55 53 52 45 38 43 46 50 53 52 54 51 51 53 51 51 54 53 54 50 48 48 45 47 40 37 34 34 32 31 47 49 49 47 49 49
51 50 50 50 50 49 50 51 51 53 54 55 53 53 46 34 43 47 49 48 49 49 48 49 50 51 53 51 43 42 39 40 41 43 43 44 37 30 33 33 39 48 45 45 44 48 51
50 50 50 49 50 51 50 50 51 52 53 55 53 52 50 41 42 51 48 49 45 44 46 46 51 52 49 39 38 35 36 41 40 41 43 41 39 39 30 32 31 43 49 51 52 41 51
50 50 49 51 50 50 50 50 51 53 53 56 53 53 53 45 49 51 48 48 48 46 43 46 48 48 49 36 34 36 38 41 38 34 32 34 32 33 26 33 37 46 50 52 40 44 47
50 50 50 50 50 50 50 51 52 53 53 57 52 54 54 45 49 52 53 48 48 48 44 47 47 45 39 37 36 36 35 38 39 41 36 37 33 31 27 29 32 48 50 44 50 49 49
50 50 49 48 48 49 50 51 52 54 54 55 53 54 53 50 49 53 54 54 54 55 48 46 50 46 46 39 35 33 33 33 34 36 41 37 41 38 39 40 48 50 50 51 50 50 51

GFSGBSN_sfc_temp_036.txt.gz
Temp
63 63 63 62 62 61 61 61 60 59 59 58 58 58 59 59 60 59 58 58 58 58 59 59 58 59 62 65 73 82 68 68 79 83 82 79 76 76 72 75 76 73 76 75 76 78 79
61 62 62 62 61 61 62 61 60 59 59 58 58 58 58 58 60 59 58 57 58 58 58 58 58 58 62 62 87 85 82 81 84 83 82 82 78 80 74 74 74 76 74 72 74 77 76
61 60 61 61 61 61 61 60 60 59 59 58 58 58 58 58 58 59 59 58 57 57 58 58 58 63 61 70 87 87 82 84 85 85 81 84 83 78 77 73 77 74 70 72 72 75 73
60 60 61 60 60 60 59 59 59 59 58 58 58 58 57 57 57 57 57 56 56 58 57 57 58 60 65 84 89 84 87 83 84 86 85 83 83 78 75 76 74 71 72 64 71 74 72
60 60 60 60 60 59 59 59 58 59 58 58 58 58 57 56 56 56 56 56 57 57 57 57 58 60 68 80 80 88 88 82 81 81 82 81 80 75 74 70 67 69 63 65 66 74 73
60 60 60 60 60 59 59 58 58 58 58 58 58 57 57 57 56 56 56 56 56 57 59 61 66 60 74 77 82 85 89 86 80 78 75 74 75 72 72 70 59 62 63 67 66 71 74
60 60 60 60 60 60 60 59 58 57 57 58 58 58 57 57 56 55 57 65 63 63 62 68 70 69 74 83 84 85 87 84 79 78 70 72 68 65 70 71 71 70 67 66 69 70 71
59 59 59 60 60 60 60 60 58 57 57 58 57 57 57 57 56 55 63 65 71 71 65 70 70 70 76 79 74 81 86 78 74 70 71 69 66 69 70 69 68 67 66 64 65 68 69
58 58 58 59 59 60 60 60 58 57 57 57 57 57 57 56 55 55 63 68 77 75 65 68 72 72 76 77 75 78 82 78 72 70 69 67 66 69 70 68 66 65 64 63 64 66 69
57 57 57 58 57 59 60 59 58 57 57 57 56 56 55 54 56 65 62 73 75 72 61 63 68 74 75 77 71 81 82 78 72 66 68 67 68 67 68 65 66 62 66 66 65 64 60
56 56 56 56 56 56 58 58 58 57 57 57 56 56 54 57 66 65 73 78 75 69 44 68 70 82 78 73 76 74 80 78 70 68 67 63 66 66 65 64 66 62 67 66 65 65 62
55 55 56 56 55 55 57 57 56 56 56 56 56 55 54 57 64 70 74 74 70 55 43 61 71 69 69 71 71 75 75 78 74 68 70 66 71 70 67 66 68 67 65 65 65 63 52
54 55 55 55 55 54 56 57 56 56 56 56 55 55 57 67 66 71 72 69 55 47 63 60 63 68 68 65 66 69 68 67 65 58 59 65 64 69 69 65 67 67 63 54 48 49 48
54 54 54 54 54 54 55 56 56 55 55 55 54 54 57 67 72 68 67 62 47 58 60 65 66 68 63 66 64 64 64 63 65 66 63 59 53 64 67 66 64 63 62 52 41 44 51
54 54 54 54 53 54 53 56 55 55 54 54 53 56 59 65 65 66 64 51 54 59 66 63 64 61 60 64 65 64 63 65 65 66 61 58 56 66 65 67 67 60 58 61 51 44 46
53 53 53 53 53 53 52 55 55 54 53 54 60 57 63 68 68 64 59 52 61 65 66 66 58 63 58 62 61 62 61 63 62 65 67 62 54 62 63 67 65 64 65 53 55 40 41
53 53 53 53 52 52 51 54 55 53 53 54 62 59 68 70 69 61 53 58 63 67 68 64 63 60 63 60 63 61 61 62 64 64 68 67 62 57 61 61 61 59 58 57 58 52 46
52 52 52 52 52 52 51 54 54 53 53 55 62 55 64 68 57 60 58 63 59 66 66 67 69 66 63 63 60 61 60 63 65 67 63 63 61 53 58 62 64 63 61 61 51 47 49
52 52 52 51 51 50 51 52 53 52 54 62 60 60 59 62 52 53 61 62 65 65 65 65 64 67 66 62 57 60 61 60 61 64 63 63 58 50 52 58 61 59 61 61 56 54 48
51 52 52 51 51 50 51 52 52 52 54 68 64 52 56 60 65 62 59 60 61 65 65 66 63 65 62 60 60 57 58 59 60 62 49 59 59 56 50 56 60 55 57 59 59 49 52
51 51 50 51 50 51 51 53 52 52 54 63 65 59 64 52 56 62 64 63 61 60 65 67 63 66 63 56 57 56 59 58 59 52 59 62 55 56 55 55 55 56 57 57 56 58 50
51 51 50 49 49 51 52 52 52 52 54 62 61 60 61 62 62 60 56 60 63 61 64 63 63 64 64 60 63 57 60 60 60 59 60 58 53 52 49 52 52 51 57 58 59 59 58
51 50 49 49 50 51 52 52 51 52 53 66 64 64 67 50 59 58 60 61 64 64 59 63 67 63 60 60 62 65 63 64 64 60 56 56 52 49 46 47 48 40 52 58 59 60 59
50 49 49 50 51 52 51 51 51 51 53 73 69 68 62 51 57 60 61 63 64 64 61 60 65 63 58 65 66 65 62 61 60 56 59 51 51 46 43 39 35 57 59 59 59 61 65
49 49 51 51 51 51 51 51 51 52 53 68 67 67 61 42 59 59 61 60 60 61 58 59 58 61 65 62 57 51 50 46 50 53 54 56 51 39 38 43 51 58 56 54 53 57 64
50 51 51 51 50 50 50 51 51 52 54 66 63 65 67 52 52 65 60 62 58 58 56 53 58 62 61 56 51 45 44 51 47 49 52 52 52 49 40 37 36 53 56 59 59 50 61
50 50 50 50 50 49 50 51 51 52 53 65 62 62 69 57 60 63 61 59 63 61 57 55 55 55 58 50 44 46 48 51 47 42 37 42 42 39 40 38 48 58 58 59 45 51 61
50 49 49 49 49 50 50 50 51 53 53 64 60 63 68 57 58 60 61 60 60 64 56 56 57 55 53 47 47 48 44 49 49 52 47 46 42 38 39 36 36 58 56 50 58 61 60
49 49 50 50 50 50 50 50 51 53 53 58 61 62 67 63 58 62 60 62 61 63 63 60 61 59 61 53 48 45 40 38 46 46 51 46 52 51 51 52 58 60 61 63 61 59 61

GFSGBSN_sfc_temp_039.txt.gz
Temp
62 62 62 63 62 62 62 62 61 60 60 59 59 59 59 60 60 60 59 58 59 59 59 59 59 59 64 69 77 86 69 69 81 83 84 83 80 79 74 78 80 76 79 80 81 82 79
61 61 61 61 62 62 62 62 61 60 59 59 59 59 59 59 59 59 59 58 58 58 58 59 59 58 66 65 92 92 89 85 89 86 86 86 82 84 79 77 77 80 80 78 79 79 81
62 61 61 60 61 61 61 61 60 60 59 59 59 58 58 58 58 58 58 59 58 58 58 58 59 66 67 72 93 94 90 89 91 89 85 89 88 80 81 76 81 79 72 76 75 79 77
60 61 60 60 60 60 60 60 60 60 59 59 59 58 58 58 57 57 57 57 57 58 58 58 59 69 67 90 95 92 93 90 91 91 89 89 88 82 79 81 77 73 72 64 75 78 79
60 60 60 60 59 59 59 59 59 59 59 59 59 58 58 57 57 57 57 57 57 58 58 59 63 67 70 81 84 93 94 87 87 88 88 86 84 78 78 70 67 71 64 66 70 80 78
59 60 60 60 59 60 59 59 59 59 59 58 58 58 58 57 57 57 56 57 57 56 61 70 72 66 76 80 88 90 94 90 84 82 79 78 76 71 73 68 57 62 64 69 68 75 76
59 59 59 60 59 59 60 60 59 58 58 58 58 58 58 57 57 56 58 68 66 64 69 71 75 75 79 87 91 88 92 87 84 80 73 75 68 65 70 72 73 71 69 68 73 76 72
59 59 59 59 60 60 60 60 59 58 58 58 58 58 58 58 57 56 62 70 76 75 67 75 77 77 82 85 77 85 91 80 75 70 76 70 65 73 77 74 72 71 68 66 72 75 73
58 58 58 59 59 59 59 60 59 57 57 58 58 58 58 57 55 58 68 72 84 79 68 75 79 77 80 83 78 81 86 83 74 70 72 63 69 74 73 72 69 69 66 64 67 71 74
57 57 57 58 58 59 58 59 59 58 57 57 57 57 56 55 55 71 68 78 81 77 61 67 71 77 81 82 75 88 88 82 74 67 69 64 71 72 72 69 71 63 72 70 68 66 60
56 56 56 57 57 57 56 57 58 58 57 57 57 56 55 55 68 69 78 83 81 72 45 71 74 88 84 76 79 79 88 82 71 71 72 67 70 70 69 69 72 64 71 71 70 68 66
55 56 56 56 56 56 56 56 57 57 57 57 56 56 55 58 64 74 80 81 74 55 44 65 75 72 72 75 76 82 79 84 81 73 73 62 78 75 72 72 73 73 69 69 70 67 54
54 55 55 55 55 56 56 55 56 56 56 56 56 55 57 70 68 77 76 71 55 48 69 64 67 71 71 69 71 73 71 70 67 60 61 69 70 73 75 69 72 71 66 53 50 52 50
53 54 55 55 55 55 55 55 55 56 56 56 55 54 57 70 75 73 71 59 48 61 64 72 71 70 65 71 70 70 70 66 73 71 64 59 55 69 74 71 67 68 66 54 43 46 53
52 52 54 54 55 55 55 54 55 55 55 55 54 60 61 65 70 69 63 50 55 64 71 67 69 63 64 69 69 68 67 68 71 73 59 58 58 71 71 73 72 66 61 68 57 52 49
52 51 53 53 54 54 54 53 54 55 55 54 62 58 63 70 69 63 55 53 63 73 74 71 61 66 61 65 63 65 66 72 70 72 75 68 57 68 68 72 71 68 71 57 58 43 43
51 50 53 53 53 53 53 53 53 54 54 55 64 58 71 72 68 57 51 59 67 74 74 68 66 65 66 64 66 65 66 69 73 71 74 73 66 61 66 64 66 64 62 63 62 58 47
50 49 52 52 53 53 53 53 52 53 54 55 61 54 69 70 56 58 57 65 66 71 73 71 71 70 67 68 65 66 65 70 75 74 67 71 66 57 62 69 71 70 66 65 52 52 54
49 48 51 52 52 52 52 52 50 53 54 64 57 59 62 68 51 54 64 66 71 69 69 69 68 72 73 67 61 66 68 66 69 70 68 69 62 53 56 63 67 63 67 67 65 59 52
49 49 51 51 52 52 52 51 51 52 54 64 61 50 51 61 66 61 60 63 63 72 71 72 71 73 68 66 70 64 65 64 66 70 53 62 64 59 52 59 66 59 63 66 63 51 53
49 51 51 51 52 52 51 51 51 52 55 57 59 61 61 52 59 56 65 65 63 62 71 72 69 69 67 61 64 63 67 63 64 54 64 66 58 62 64 64 63 63 63 64 61 61 54
49 50 51 51 51 51 51 51 50 51 54 52 55 65 67 62 63 58 59 63 64 67 68 65 66 70 71 65 65 62 66 65 63 65 65 67 57 59 54 62 61 58 62 64 64 64 64
50 51 51 51 51 51 51 50 50 51 52 53 63 74 70 59 61 60 62 64 66 69 65 72 72 70 67 68 71 72 73 73 71 65 63 62 58 53 48 55 55 43 56 61 64 67 65
50 51 51 51 50 51 50 50 49 52 52 65 68 69 65 55 62 62 66 68 67 68 65 68 74 70 66 74 73 71 70 68 67 64 68 59 57 52 46 41 34 61 67 65 62 66 70
50 51 51 50 50 50 50 50 50 51 52 55 61 70 67 46 64 65 66 66 68 68 67 66 64 70 73 71 61 54 53 51 57 61 62 64 57 45 40 46 55 60 64 60 58 60 68
50 50 50 49 49 49 49 50 50 51 52 53 57 71 73 58 61 70 66 68 63 62 61 58 68 70 67 64 56 50 48 55 52 54 60 59 59 52 45 37 34 56 62 65 64 51 66
49 49 49 49 49 49 50 51 51 51 52 55 62 67 74 65 71 72 65 64 71 68 64 59 60 60 65 54 45 50 51 59 50 46 39 46 45 43 45 41 50 63 64 64 48 51 64
49 48 48 49 50 50 50 50 50 51 52 53 65 70 74 65 65 68 72 70 69 71 59 63 61 60 59 50 50 53 48 54 54 59 51 48 45 40 46 37 37 65 63 53 60 66 66
48 49 50 49 49 49 50 50 50 51 52 53 63 71 75 69 63 67 66 67 67 69 71 65 67 64 66 60 54 53 43 41 52 48 60 51 57 54 55 54 63 66 65 68 67 64 65

GFSGBSN_sfc_temp_042.txt.gz
Temp
62 62 62 62 61 62 63 62 61 61 60 60 60 59 60 60 60 59 58 59 58 59 59 59 59 59 64 67 73 83 69 69 80 82 81 81 78 77 72 76 78 74 77 81 81 81 80
61 61 61 61 61 62 63 62 61 60 60 60 59 59 59 59 59 59 58 59 59 59 59 59 59 58 63 62 93 93 90 81 86 83 83 84 81 83 77 76 76 79 79 78 79 79 79
61 61 61 61 60 60 61 61 61 60 60 60 59 59 59 59 59 58 58 58 58 59 59 59 59 65 66 69 93 95 91 89 90 87 83 87 87 81 80 74 81 79 72 74 76 77 73
60 60 60 60 59 59 59 60 60 60 60 60 59 59 58 58 58 58 58 57 57 59 59 59 58 66 64 89 93 90 93 89 92 92 88 90 88 82 77 79 76 72 72 62 72 75 77
60 60 60 59 59 59 59 59 59 60 60 59 59 59 58 58 57 57 57 57 57 59 59 59 61 65 67 84 84 90 92 87 89 89 88 89 84 77 76 67 65 68 58 61 65 78 76
59 59 59 59 59 59 59 59 59 59 59 59 59 59 58 58 57 57 57 57 59 57 59 69 71 64 73 77 88 90 95 91 84 83 79 77 76 69 69 65 53 56 59 64 64 73 75
59 59 59 59 59 59 59 59 59 58 58 59 59 59 58 58 58 57 57 63 61 59 65 68 72 72 81 88 91 86 92 87 84 79 68 73 65 61 66 68 69 68 66 64 71 76 71
58 59 59 59 59 59 60 60 59 58 58 58 58 58 58 58 58 56 60 64 75 74 63 74 76 78 83 85 76 83 92 78 75 68 64 64 60 70 70 71 69 69 63 64 71 74 71
57 58 58 58 59 59 59 59 58 58 58 58 58 58 58 57 56 57 63 68 81 79 64 72 77 76 79 83 75 79 86 81 74 65 66 60 64 68 72 69 67 67 60 61 61 70 73
56 56 57 58 58 58 59 59 58 58 57 57 58 58 57 55 54 67 66 75 77 77 55 66 72 77 81 81 73 86 89 82 74 67 66 61 66 67 68 68 70 60 67 67 66 63 56
55 55 56 57 57 57 57 57 57 58 57 57 57 57 55 55 64 68 77 81 80 70 40 72 73 88 82 74 78 79 89 82 68 69 69 56 57 64 65 67 72 60 67 65 68 65 58
54 55 55 56 56 56 56 56 56 56 57 56 56 56 55 57 60 67 75 77 72 51 42 65 74 71 72 74 75 81 79 83 81 70 70 61 70 70 71 73 73 70 66 68 68 63 47
53 54 54 55 56 56 56 56 55 56 56 56 56 56 56 69 64 74 73 68 51 45 69 64 66 70 69 68 71 73 70 68 64 58 59 66 67 74 75 68 72 70 64 49 36 38 46
52 53 54 54 55 55 56 56 55 55 55 56 55 54 56 66 72 72 69 53 44 59 61 73 71 69 64 70 69 70 68 64 71 69 63 58 53 69 74 69 57 61 63 44 37 35 48
52 53 53 53 54 55 55 55 55 55 54 55 54 58 59 63 65 69 58 43 50 61 69 68 69 63 63 68 69 68 66 66 70 71 59 54 54 66 73 75 68 61 59 67 56 50 45
51 52 52 52 52 54 54 54 54 54 54 54 53 57 58 66 67 62 51 48 58 69 73 72 61 66 59 64 64 65 64 70 69 75 72 59 46 60 69 73 72 67 71 56 57 41 40
50 51 52 52 51 52 54 54 54 54 54 54 54 52 66 68 65 54 48 53 60 72 74 68 66 64 65 64 66 63 65 71 74 73 74 61 51 53 66 63 63 63 60 62 62 57 43
50 50 51 52 50 52 54 54 53 54 54 52 53 47 67 67 51 55 52 60 62 68 74 71 71 69 66 67 64 64 64 69 76 74 65 70 64 54 60 71 73 69 64 64 48 49 52
49 50 50 51 50 51 53 54 53 53 53 51 50 54 63 64 47 50 57 60 65 66 68 68 67 70 72 67 61 66 68 69 72 72 67 70 61 49 55 64 68 63 66 66 64 59 50
49 50 50 50 50 49 53 53 52 53 54 53 52 47 50 56 63 56 54 58 59 70 70 72 70 72 69 65 69 64 66 66 69 70 55 63 63 57 49 57 64 59 62 66 63 47 49
49 49 50 49 48 49 53 53 52 52 53 52 52 54 54 44 52 58 60 61 59 61 70 72 68 68 66 60 64 63 68 63 66 56 65 66 56 61 63 65 65 62 62 64 61 61 51
49 49 49 48 48 50 52 52 52 51 52 49 50 53 60 60 58 57 55 59 61 66 67 64 65 68 69 63 65 62 67 64 62 64 64 67 56 58 55 62 62 58 61 63 63 63 63
49 49 48 48 48 51 51 51 51 51 50 48 56 63 61 54 57 55 57 60 62 68 70 72 70 68 65 69 73 72 74 72 71 64 61 62 56 51 45 55 53 42 54 59 62 65 64
49 49 49 49 50 51 51 51 50 51 50 48 60 60 53 53 58 58 61 63 62 68 62 71 72 68 69 76 74 72 71 69 69 67 69 60 56 50 43 40 35 57 68 66 61 64 67
49 49 49 50 51 51 51 50 50 50 50 48 52 53 54 45 61 61 61 63 66 67 57 68 67 72 74 70 59 52 51 49 56 64 63 66 55 43 38 43 52 58 63 61 58 58 65
49 49 50 50 50 50 50 50 50 50 50 50 48 50 52 53 57 67 64 67 63 58 54 60 68 73 71 62 54 48 45 54 52 54 63 61 60 48 43 37 33 55 62 67 65 48 64
49 50 50 50 50 50 50 50 49 49 50 48 49 52 50 53 68 68 64 64 66 53 49 59 59 60 66 51 42 49 49 61 49 46 38 44 44 40 41 39 47 63 65 65 46 48 63
49 50 50 50 49 49 49 49 49 50 51 49 50 54 51 55 69 72 72 70 65 51 47 61 59 61 58 49 50 51 45 54 54 58 48 44 43 38 44 35 34 66 63 52 58 63 63
49 49 49 49 49 49 49 49 49 50 50 51 49 56 57 56 62 66 66 68 69 65 64 63 65 63 63 58 53 53 41 41 48 46 63 49 56 50 50 49 62 67 64 67 65 63 62

GFSGBSN_sfc_temp_045.txt.gz
Temp
61 61 61 61 61 61 62 63 61 61 60 60 60 60 60 60 60 59 58 58 58 59 59 59 59 59 56 57 62 79 69 68 74 75 72 71 69 67 63 65 66 64 70 72 73 68 67
61 61 60 60 61 61 62 62 61 61 60 60 60 59 59 59 59 59 58 58 57 58 58 59 59 58 52 54 78 78 76 74 76 72 73 73 71 74 68 67 63 70 70 68 71 70 71
61 60 60 60 60 60 60 60 60 61 60 60 59 59 59 59 59 58 58 57 57 57 58 59 59 58 57 59 77 77 81 77 77 77 73 77 77 69 69 65 71 71 63 67 67 66 63
60 60 60 60 59 59 59 59 60 60 60 60 60 59 58 58 58 57 57 57 57 57 58 59 58 55 52 78 75 76 77 80 82 81 79 80 79 72 67 69 67 62 61 54 63 67 67
60 60 60 59 59 58 58 58 59 59 60 60 59 59 58 58 57 57 57 57 57 58 58 58 52 52 56 79 75 81 81 79 82 81 79 86 74 66 66 57 52 56 51 56 59 69 64
60 59 59 59 59 58 58 58 58 58 59 59 59 59 58 58 57 56 56 56 58 56 58 62 62 53 63 70 79 82 83 83 77 75 72 69 64 58 57 53 45 51 54 51 56 64 65
59 59 59 59 59 59 59 59 58 58 58 58 59 59 58 58 57 57 54 55 52 51 55 57 61 63 72 80 82 79 83 79 75 68 58 59 54 50 56 60 64 61 58 56 61 66 60
58 58 59 59 59 59 59 59 58 57 58 58 58 58 58 58 57 56 52 53 61 63 53 64 66 69 74 77 71 76 81 70 66 56 60 56 48 62 67 66 62 61 59 58 63 66 62
57 57 58 58 59 59 59 59 58 57 58 57 58 58 58 57 56 52 53 57 67 65 52 63 69 67 70 75 69 70 76 71 64 56 57 51 56 65 67 63 61 58 54 54 54 59 61
56 56 56 58 59 59 58 58 58 57 57 57 57 57 57 55 51 56 54 65 64 61 44 57 65 70 74 74 66 78 79 73 66 60 58 58 64 63 61 60 63 53 65 62 60 54 45
56 56 56 56 56 57 57 57 57 57 57 57 56 56 55 56 51 54 64 66 65 60 31 63 67 80 75 68 70 71 80 73 63 63 60 54 57 59 57 60 65 57 63 62 60 56 53
55 55 55 56 56 56 56 56 56 56 56 56 56 56 55 53 52 56 62 63 61 44 33 60 69 66 65 67 69 71 71 73 71 64 61 60 65 62 60 65 65 66 60 60 53 50 40
54 54 54 54 55 55 56 56 56 55 55 56 55 55 55 62 54 63 60 56 41 36 62 59 60 65 63 61 64 66 63 60 55 49 49 58 62 65 67 57 63 61 53 39 35 33 34
54 53 54 54 54 55 55 56 55 55 55 55 54 54 55 60 61 60 57 48 37 51 54 67 64 63 58 62 62 63 59 54 60 58 51 48 46 58 64 60 56 57 53 38 32 31 35
53 53 53 53 51 54 55 55 55 54 54 54 54 53 55 57 58 57 51 41 41 53 62 61 63 56 56 62 63 60 56 56 61 62 50 47 49 61 65 65 62 54 47 58 44 39 32
52 52 52 52 52 53 54 54 55 54 54 54 51 51 52 59 58 54 47 43 50 61 65 63 55 58 51 57 57 56 56 62 61 65 61 54 45 55 61 63 64 59 62 45 44 34 32
51 52 52 52 51 52 53 54 54 54 54 54 51 47 56 61 58 49 41 46 53 62 65 61 59 57 58 56 58 55 57 63 65 64 62 55 50 48 56 54 54 55 52 54 52 43 33
51 51 51 51 51 52 52 54 54 54 54 52 50 42 57 61 44 45 42 50 54 59 64 61 63 60 58 58 58 56 56 61 67 67 59 58 49 41 49 59 64 62 56 52 35 41 40
50 50 50 50 50 51 52 53 53 53 54 49 46 49 57 58 39 40 48 51 55 57 59 60 60 62 61 57 54 57 58 61 63 63 58 58 49 37 45 53 59 55 58 58 54 44 40
49 50 50 51 50 50 51 52 52 54 54 51 47 41 48 51 53 48 45 48 50 60 59 62 62 63 58 56 59 56 54 61 62 60 53 59 55 47 38 47 53 50 55 57 52 34 39
49 49 49 49 48 50 51 50 52 54 54 50 47 47 52 42 44 49 51 51 50 51 60 62 60 60 57 51 55 54 56 57 61 55 58 57 48 51 53 56 56 55 54 55 55 51 41
49 49 49 48 49 50 50 50 49 53 53 46 44 46 51 48 51 48 49 49 51 56 58 57 57 60 59 55 56 54 57 56 54 55 55 57 46 48 45 55 54 48 53 53 54 54 52
49 48 48 47 49 50 50 49 49 53 52 45 49 52 53 47 48 46 47 52 54 58 60 64 61 58 56 59 61 59 63 61 60 54 51 51 47 39 36 46 46 35 47 51 53 54 52
48 48 49 49 49 49 49 48 50 52 52 48 51 52 48 43 47 48 52 55 55 57 56 63 63 58 61 65 62 60 58 59 59 57 59 49 46 37 32 33 26 48 58 59 54 54 54
48 48 49 49 49 49 48 50 52 52 53 49 49 48 48 36 51 52 53 55 58 60 57 60 59 63 63 61 47 44 41 42 48 56 54 55 42 34 31 30 42 50 54 52 50 47 54
48 49 49 48 48 48 48 50 51 51 51 49 48 48 44 44 47 58 54 57 53 51 48 50 59 58 60 52 42 37 34 44 43 49 53 52 47 36 31 28 24 43 55 59 57 37 54
48 48 48 47 48 48 49 50 50 50 51 49 45 49 44 43 51 59 54 54 56 49 45 48 51 52 54 35 36 33 36 52 38 37 35 33 34 31 26 25 35 54 58 58 37 38 52
48 49 48 48 49 49 50 50 50 50 50 48 46 50 46 45 49 56 63 54 52 49 42 48 49 49 46 40 38 34 34 40 41 47 40 37 33 27 32 31 30 58 55 44 47 52 52
48 48 49 49 49 49 49 49 50 50 50 50 45 51 53 47 48 55 60 59 62 57 53 50 52 51 53 45 41 38 37 35 38 33 51 37 42 37 40 37 50 55 51 53 53 51 52

GFSGBSN_sfc_temp_048.txt.gz
Temp
62 61 61 61 61 61 62 62 61 60 60 60 60 60 60 60 60 59 58 58 58 58 58 59 59 59 54 54 58 73 68 68 71 72 69 67 63 61 57 62 63 60 64 68 68 63 61
61 61 60 60 60 61 61 61 61 60 60 59 59 59 59 59 59 59 58 58 57 57 57 58 59 58 52 50 74 74 72 69 72 69 69 68 67 67 64 62 60 65 66 67 64 64 64
61 60 60 60 59 60 60 60 59 60 60 60 59 59 59 59 58 58 58 57 57 57 57 58 59 58 52 56 70 70 75 73 72 72 70 73 71 65 66 62 67 65 60 63 63 62 60
60 60 60 59 59 58 58 59 59 59 60 60 59 59 58 58 58 57 57 56 56 57 57 58 58 53 49 71 67 71 70 73 76 75 74 76 73 68 63 65 64 59 57 51 60 63 62
60 60 60 59 59 58 58 58 58 59 59 59 59 59 58 57 57 56 56 56 56 57 58 58 51 51 51 72 70 75 75 74 75 74 74 80 71 63 63 54 50 53 47 52 56 65 64
59 60 59 59 59 58 58 58 58 58 58 59 59 59 58 57 57 56 55 56 57 56 57 60 60 50 59 66 74 77 77 77 73 71 69 66 60 55 53 49 42 47 51 50 53 60 59
59 59 60 59 59 59 59 58 58 57 58 58 58 59 58 58 57 56 53 52 52 52 53 55 57 57 65 73 77 74 77 73 70 66 56 58 52 47 54 55 59 59 56 54 57 63 57
58 58 58 59 59 59 59 59 58 57 57 58 58 58 58 58 57 56 51 50 56 59 50 60 62 63 69 70 64 70 77 67 62 55 56 55 49 60 61 63 60 57 53 53 59 62 60
57 57 57 58 59 59 59 59 58 57 57 57 57 58 58 57 56 52 50 54 63 63 49 57 63 62 65 68 63 66 72 67 59 55 54 51 57 62 60 59 57 54 52 53 54 56 57
56 56 56 57 57 58 58 58 58 57 57 57 56 57 57 55 52 53 51 61 60 59 42 52 59 65 69 70 62 73 74 69 60 55 56 56 63 60 58 56 58 51 60 59 56 50 43
56 55 55 56 56 56 56 57 57 57 57 57 56 56 55 57 52 53 60 60 59 56 28 59 62 75 69 64 65 67 74 68 59 57 56 53 54 54 54 58 62 53 58 59 57 50 46
54 56 56 55 56 55 55 56 56 56 56 56 56 56 54 53 51 53 58 58 58 42 31 55 64 61 60 62 63 68 67 69 67 61 57 56 59 60 58 62 62 62 56 53 50 47 38
52 54 56 55 55 55 55 55 56 56 56 55 55 55 55 58 52 56 57 55 42 36 56 55 56 60 58 57 59 62 59 57 53 47 47 54 55 59 63 58 60 57 48 36 33 32 34
52 52 54 55 55 54 55 54 55 55 55 55 54 54 54 58 54 55 54 47 36 46 49 61 59 58 54 58 58 59 56 52 55 55 47 45 42 57 62 56 53 54 49 36 33 30 36
52 53 52 54 54 53 53 54 55 55 54 54 54 53 53 56 56 55 49 39 37 47 57 56 58 52 51 57 58 56 53 52 57 57 47 43 46 57 60 61 58 52 47 54 40 36 31
52 52 50 53 53 53 53 53 55 55 55 54 50 50 52 57 58 54 46 43 46 56 60 58 51 54 48 53 52 52 52 57 57 60 59 52 42 53 59 63 60 56 58 44 42 33 32
51 51 50 52 53 52 52 51 54 55 54 54 48 45 55 60 58 47 40 43 51 59 59 55 53 52 54 52 54 51 53 59 61 60 59 53 47 47 53 52 52 51 49 50 47 40 34
51 51 50 51 52 52 52 51 53 54 54 51 46 40 53 59 43 43 43 49 52 55 59 56 57 55 54 54 52 52 53 58 61 60 54 55 47 39 49 59 59 54 49 50 35 39 37
50 50 50 50 52 52 52 52 51 54 54 48 43 46 53 56 38 37 46 50 52 53 55 55 55 57 59 53 50 54 54 59 58 59 54 55 45 36 43 52 55 50 53 54 48 41 37
50 50 49 49 51 51 51 52 51 53 54 50 45 39 45 49 49 45 43 44 45 55 54 56 54 56 54 53 56 53 54 57 57 58 53 57 49 43 36 45 50 46 53 53 48 33 37
50 49 50 49 51 51 51 51 51 53 53 48 43 43 46 40 43 45 47 46 45 45 55 57 54 54 51 49 51 50 52 55 56 55 55 54 46 49 50 52 52 51 51 51 48 47 40
50 49 49 49 50 50 51 51 51 52 52 45 40 42 46 44 48 45 46 44 46 49 52 53 51 54 54 52 53 51 54 52 52 53 53 54 45 46 44 50 51 46 49 48 50 50 49
48 48 49 49 50 51 50 50 49 52 51 43 48 48 48 46 46 43 43 46 48 52 54 58 57 55 52 55 59 58 60 58 57 53 49 49 44 37 36 42 43 34 45 49 49 49 51
47 47 49 49 49 49 49 49 49 51 50 47 50 46 45 40 45 44 47 49 50 52 50 57 60 55 58 60 58 56 55 56 55 52 54 45 42 35 30 32 25 46 54 53 48 49 50
48 48 49 49 49 49 49 49 49 50 48 47 48 47 44 37 47 48 48 49 53 55 53 56 58 61 61 55 46 43 38 42 46 52 51 52 39 33 30 30 39 47 52 50 46 43 49
48 49 49 49 48 47 48 49 49 50 48 48 49 48 44 41 44 53 49 51 48 48 48 51 56 56 56 45 38 36 33 41 41 45 50 47 43 36 29 28 25 42 51 55 53 35 51
48 48 48 48 48 48 49 49 48 49 48 49 47 49 45 40 46 52 49 48 54 47 45 47 51 49 50 34 34 33 34 47 36 36 36 33 33 30 24 26 33 47 55 55 38 38 50
47 48 48 48 48 48 49 48 49 48 50 50 44 49 45 41 46 50 51 51 55 52 44 46 47 46 41 36 37 35 31 39 38 44 39 38 32 27 29 25 30 52 52 45 45 48 49
48 48 48 48 48 48 48 48 50 51 51 49 42 49 50 44 45 50 51 53 52 60 49 47 49 48 48 43 39 37 36 33 36 33 46 38 41 36 38 36 47 49 49 50 50 49 48

GFSGBSN_sfc_temp_051.txt.gz
Temp
61 61 61 61 61 61 61 61 61 60 60 60 60 60 60 60 60 59 58 58 58 58 58 58 59 59 54 52 57 70 68 67 67 68 65 64 61 59 54 58 58 54 62 65 62 61 60
61 60 60 60 60 60 61 61 60 60 59 59 59 59 59 59 59 59 58 57 57 57 57 58 59 58 51 50 70 71 70 68 68 64 64 65 65 65 60 59 57 61 60 58 60 59 61
60 60 60 59 59 59 60 59 59 59 59 59 59 59 59 59 59 58 58 57 57 57 57 58 58 57 50 56 66 66 68 68 69 68 66 68 68 63 61 61 64 63 57 57 58 59 60
59 60 60 59 59 58 58 58 58 59 59 59 59 58 58 58 58 57 57 57 56 57 57 57 58 51 49 67 63 67 66 70 72 71 70 72 70 65 61 63 62 57 54 48 57 59 60
58 59 59 59 59 58 58 58 58 58 59 59 59 58 58 57 57 56 56 56 56 57 57 57 50 48 50 68 65 71 71 70 72 71 69 77 67 59 60 52 49 51 44 47 52 61 57
59 59 58 59 59 58 58 58 57 57 57 57 58 58 58 57 57 56 55 56 57 56 56 58 58 48 58 63 70 73 70 74 69 67 65 63 57 52 50 48 39 44 49 47 51 60 59
59 58 58 59 58 58 59 58 58 57 57 57 57 58 58 57 57 56 54 53 52 50 52 53 55 55 61 68 72 69 72 70 67 64 53 55 50 46 50 52 54 51 51 50 53 60 56
57 58 58 58 58 59 59 59 58 57 57 57 57 57 57 57 57 56 52 49 55 56 48 57 59 60 66 67 60 66 73 64 60 54 54 52 47 56 59 57 57 53 52 52 56 60 57
55 57 57 58 58 58 58 59 58 57 56 56 56 57 57 57 56 53 50 53 62 60 47 55 59 59 61 65 59 60 68 64 56 52 53 48 55 60 59 55 55 51 48 50 52 54 52
55 54 56 57 57 57 57 58 58 57 56 56 56 56 56 56 52 53 51 59 58 58 41 50 55 59 64 65 59 68 70 66 56 54 53 52 58 57 53 53 56 47 56 56 53 48 43
55 55 54 56 56 56 56 57 57 57 57 56 56 56 55 56 51 50 57 58 57 55 29 56 57 70 65 62 62 63 70 64 56 54 54 52 53 53 52 55 57 51 56 53 53 48 44
54 55 54 53 55 56 56 55 56 56 57 56 55 56 55 53 51 51 55 57 55 39 30 52 60 57 57 59 60 62 65 66 64 56 54 53 56 55 55 59 59 59 53 51 48 45 36
54 54 54 54 53 55 55 55 55 55 56 56 55 55 54 58 52 54 56 53 40 30 53 51 53 56 54 53 56 57 57 54 51 45 45 51 52 56 58 53 56 54 46 35 32 32 34
53 53 54 54 52 54 55 55 54 54 55 55 54 54 54 58 55 54 56 47 34 44 45 56 55 54 51 54 54 55 53 50 52 51 44 43 41 53 58 54 50 48 47 35 32 29 34
53 53 53 53 54 51 54 55 54 54 54 55 54 50 52 56 56 53 49 39 37 45 54 52 54 48 48 53 54 53 50 50 54 54 47 42 44 53 56 57 57 50 44 50 38 35 30
53 53 53 53 53 52 53 54 54 54 54 54 48 47 50 57 57 52 43 43 45 53 56 54 48 50 44 48 50 50 48 54 54 57 56 50 42 51 55 56 57 54 56 41 39 33 30
52 52 52 52 52 52 52 54 54 54 53 54 45 42 51 57 56 46 38 42 49 57 57 51 49 48 50 48 50 47 50 55 57 56 56 51 48 45 51 50 50 48 46 46 45 37 32
52 52 52 52 52 53 51 53 52 53 53 51 42 36 51 56 43 43 40 47 51 54 55 53 52 51 50 50 49 49 50 55 59 56 52 52 45 38 47 54 55 51 49 47 34 37 34
51 51 51 51 51 52 51 52 53 52 53 47 40 43 53 54 38 39 44 47 50 52 51 51 51 52 53 49 46 50 52 57 57 56 52 52 43 35 42 48 50 47 50 50 45 38 35
51 50 51 51 51 51 50 52 53 52 53 49 42 35 44 48 50 45 42 43 44 54 50 52 51 52 50 49 52 50 51 56 56 56 52 54 46 43 37 44 48 45 49 49 46 32 36
50 50 50 50 51 51 50 52 53 52 52 47 42 38 44 38 41 45 47 44 43 45 50 53 48 49 48 44 48 48 50 52 54 51 53 52 44 45 47 49 50 50 48 47 46 45 39
50 49 50 50 50 50 50 51 52 51 50 43 39 38 42 40 45 45 45 43 43 47 48 47 48 51 52 47 50 47 51 50 51 51 51 51 42 43 39 46 48 45 49 49 48 47 46
49 49 49 50 50 50 50 51 51 51 49 42 45 46 42 43 42 40 43 44 45 49 50 53 52 51 49 51 55 56 57 55 55 51 47 47 42 38 36 41 41 34 43 48 48 48 48
48 48 49 50 49 49 49 50 51 52 50 46 46 45 41 34 41 42 45 48 46 48 46 52 55 49 54 58 56 54 52 52 52 50 51 43 40 34 30 32 25 45 50 51 47 45 46
48 48 49 49 49 49 49 50 50 51 51 45 46 45 43 31 43 44 45 46 48 50 48 50 54 58 58 55 47 43 38 41 44 48 48 48 38 32 30 29 38 44 47 46 45 42 47
48 49 49 49 48 49 49 50 50 50 51 46 45 46 44 40 42 50 46 47 43 43 44 49 55 56 55 44 37 37 35 40 39 43 47 45 41 36 28 27 25 41 49 53 50 35 49
47 49 48 48 49 49 49 49 49 50 51 47 46 48 45 39 46 50 45 44 49 46 42 44 50 49 51 35 33 32 34 45 36 36 35 33 32 32 25 27 34 45 51 52 38 39 48
47 47 47 48 48 48 48 48 49 49 49 46 44 49 45 40 43 48 47 46 50 49 42 44 46 45 41 37 35 32 29 38 37 42 39 38 32 27 28 25 30 49 49 43 45 45 47
48 48 48 48 48 48 48 48 49 49 48 48 43 49 49 42 43 49 49 50 48 48 48 45 46 46 46 41 37 35 33 30 36 33 44 38 41 37 39 36 45 46 48 46 47 48 46

GFSGBSN_sfc_temp_054.txt.gz
Temp
61 61 61 61 61 60 61 61 60 59 59 59 59 60 60 60 60 59 58 58 58 58 58 58 59 59 54 51 56 67 67 66 65 65 63 62 59 57 52 54 54 52 58 62 62 58 57
60 60 60 60 60 60 61 60 59 59 59 59 59 59 59 59 59 59 58 58 57 57 57 58 58 58 50 48 66 68 68 64 66 63 62 63 62 63 57 56 53 58 58 56 57 58 59
60 59 59 59 59 59 59 59 59 58 58 59 59 59 59 59 59 59 58 57 57 57 57 58 58 56 49 55 64 64 66 65 66 66 63 65 64 60 59 57 61 59 54 56 57 56 56
59 59 59 59 59 59 58 58 58 58 58 58 59 58 58 58 58 58 57 57 56 57 57 58 57 51 49 65 61 64 63 66 68 68 67 67 66 61 57 60 59 53 51 47 53 57 56
59 59 59 59 59 58 58 58 58 58 58 58 58 58 57 57 56 56 56 56 56 57 57 57 50 49 50 66 62 69 69 67 69 68 65 74 64 57 57 49 46 49 43 46 51 57 54
57 59 59 59 59 58 58 58 59 58 57 57 57 57 57 57 57 56 55 56 56 55 56 58 57 48 57 60 67 69 66 70 67 64 63 60 55 50 48 46 39 41 44 44 48 54 54
58 58 58 59 58 59 59 58 58 57 57 57 57 57 57 57 57 56 54 51 50 48 52 54 54 54 58 65 67 65 68 68 64 62 52 54 49 44 50 51 52 49 47 46 52 57 54
57 57 57 57 59 58 59 59 57 57 57 57 56 56 57 57 57 56 53 48 55 54 47 56 57 57 62 64 58 63 69 62 58 52 52 50 46 54 56 54 53 50 48 47 53 56 52
56 56 56 56 56 59 58 58 57 57 57 56 56 56 56 56 55 54 52 53 60 57 44 53 56 56 59 62 57 58 65 61 54 51 50 47 52 57 56 52 52 49 47 47 49 53 51
56 55 55 56 56 56 58 58 57 57 56 56 56 56 55 55 52 54 50 58 58 55 39 48 52 57 60 61 56 65 67 63 54 53 51 50 55 54 52 51 53 45 53 51 50 47 41
55 55 55 55 56 55 55 57 57 57 56 56 56 55 55 55 53 48 55 57 57 54 28 53 53 66 61 58 60 60 67 62 53 53 52 49 50 51 49 52 55 51 54 51 49 45 42
55 55 55 55 55 55 54 55 56 56 56 56 56 55 55 53 52 51 57 55 54 40 30 50 56 54 53 56 57 59 61 63 60 53 50 51 54 53 53 55 56 56 52 49 46 43 36
54 54 54 54 54 54 54 54 56 56 55 55 56 55 54 57 52 53 57 51 39 32 51 48 50 53 50 51 53 55 53 52 48 43 42 48 49 54 56 50 54 51 44 35 32 31 33
54 54 54 54 54 54 54 53 55 55 54 55 55 54 53 56 57 54 55 44 33 41 44 53 52 50 48 51 51 53 50 47 49 49 42 41 39 51 56 52 49 46 46 34 31 29 34
54 54 54 53 54 54 54 53 54 54 54 54 54 47 49 55 56 56 48 38 35 43 51 50 51 47 46 50 50 50 47 47 51 52 45 40 43 51 54 54 53 47 42 48 37 33 29
54 54 53 53 53 53 53 53 52 54 54 53 48 46 46 57 56 51 43 40 43 51 54 52 45 48 43 46 47 47 46 51 52 54 54 49 41 48 52 53 53 50 53 41 37 32 30
53 54 53 53 52 52 53 53 52 54 54 53 47 41 47 56 54 46 37 41 48 55 54 49 46 45 47 46 47 44 47 52 55 53 53 48 46 42 49 48 48 46 44 43 43 36 31
52 53 52 52 52 52 52 53 52 52 53 50 44 34 49 54 42 44 41 44 50 53 54 51 50 49 48 48 46 46 47 53 56 54 50 50 44 36 45 50 52 49 47 45 34 36 33
51 52 52 52 52 52 52 52 52 52 53 46 39 40 52 52 36 38 46 47 48 50 49 49 48 50 51 46 43 47 48 56 54 54 50 50 41 35 40 45 47 46 47 47 42 37 34
51 51 51 51 52 52 52 52 51 52 54 47 39 32 43 45 48 43 43 43 42 51 50 49 48 50 48 47 49 46 48 54 54 55 51 54 43 41 37 42 45 41 45 46 44 32 36
52 51 51 50 51 51 51 52 51 50 53 47 40 36 42 36 39 42 45 45 41 42 49 50 45 47 46 43 45 44 49 50 52 50 50 51 43 42 44 46 47 47 46 44 43 43 38
52 51 50 50 50 51 51 52 51 51 53 43 36 35 43 38 43 42 43 43 42 44 46 45 44 48 48 44 47 45 50 47 48 48 48 48 42 41 38 44 44 42 44 44 45 44 43
51 49 50 50 50 51 51 51 51 51 51 42 43 41 43 42 42 38 40 43 43 47 49 50 50 48 45 49 54 53 53 53 53 48 45 45 40 36 36 39 41 34 43 45 45 45 46
50 48 50 50 49 50 51 51 50 51 50 44 44 41 39 33 41 39 43 45 45 46 45 51 52 47 52 59 57 53 50 50 50 48 49 41 39 34 30 32 25 44 47 48 46 46 46
50 50 50 49 49 50 50 50 50 51 52 46 44 41 40 33 40 41 43 44 46 48 46 48 52 55 57 54 44 41 38 41 43 46 45 45 37 31 31 30 37 41 46 45 44 44 46
50 49 49 48 49 49 50 49 49 50 51 47 45 43 43 38 37 46 43 44 42 40 40 44 52 54 54 43 36 34 32 39 39 41 45 44 40 36 28 27 26 40 47 50 49 37 47
48 48 48 48 48 49 49 49 50 51 50 48 44 46 43 37 43 44 42 42 47 43 37 42 45 45 50 30 29 31 35 43 35 36 35 33 31 30 23 26 33 45 48 50 37 39 46
47 47 47 48 49 49 49 49 49 50 51 48 44 47 44 40 43 46 45 43 45 46 36 41 42 42 37 35 34 34 30 38 36 41 38 39 34 28 28 25 31 49 49 43 45 42 45
47 48 48 48 48 48 49 49 49 50 50 48 41 48 49 42 43 47 47 47 47 49 47 43 44 43 44 39 36 32 31 30 36 34 43 39 42 38 39 38 46 47 47 47 47 45 46

GFSGBSN_sfc_temp_057.txt.gz
Temp
61 61 60 60 61 61 62 61 60 59 59 59 59 59 60 61 61 60 59 58 58 58 58 59 59 59 58 57 61 71 66 66 67 69 70 68 66 65 62 63 63 61 65 66 67 65 63
60 60 60 60 60 60 60 60 60 59 58 58 58 58 59 59 60 59 59 58 58 57 58 58 59 58 56 52 72 70 69 68 70 70 69 69 68 69 66 63 63 65 64 64 63 62 63
60 60 59 59 59 59 60 59 59 59 58 58 58 58 58 59 59 59 59 58 57 57 57 58 58 57 52 57 70 68 67 71 71 71 69 70 72 69 68 63 67 66 61 62 62 63 62
59 58 60 59 59 59 59 58 59 59 58 58 58 57 57 57 57 57 57 57 57 57 57 58 58 55 51 68 67 66 68 70 71 72 73 74 73 69 66 67 64 61 60 56 61 64 61
58 58 58 58 59 58 58 58 58 58 59 58 57 57 57 56 57 56 56 56 56 57 57 57 53 53 52 69 66 71 71 71 70 70 71 75 72 64 64 59 57 57 53 54 58 63 62
58 58 58 58 57 59 59 58 58 58 58 58 57 57 56 56 56 56 55 56 57 56 57 58 57 51 59 64 69 71 71 73 72 68 67 66 63 60 58 58 49 52 52 54 55 62 61
58 58 58 58 58 57 59 59 59 57 58 58 57 57 56 56 56 56 56 57 54 51 52 53 55 55 61 68 70 69 70 70 70 67 60 60 59 54 58 57 58 56 54 54 58 63 60
57 57 57 57 57 58 57 59 58 57 57 57 58 56 56 56 56 55 55 53 55 55 47 56 56 57 62 66 60 66 71 66 63 58 59 58 53 59 59 58 56 57 55 55 59 61 59
56 56 57 57 57 57 57 57 58 57 57 57 57 57 56 55 55 54 55 55 61 60 46 53 57 56 59 63 58 61 68 64 60 55 56 53 58 59 59 58 55 56 55 54 55 58 59
56 56 56 56 56 56 57 57 56 57 57 56 56 56 55 55 52 54 52 59 59 59 41 48 53 57 60 62 57 67 69 67 60 57 55 56 59 58 56 56 58 52 59 57 55 55 50
55 55 55 55 56 55 55 56 56 56 57 56 56 56 55 54 52 50 56 58 57 55 31 54 53 67 61 59 62 61 68 66 57 56 57 55 55 55 54 56 59 56 59 57 56 53 52
55 55 55 55 55 55 55 55 55 55 56 56 55 55 55 52 53 55 57 59 56 41 30 50 55 53 53 57 61 62 64 67 64 57 57 57 61 60 60 60 59 59 56 54 52 50 44
54 54 55 54 54 54 54 54 55 54 55 56 55 55 54 56 50 56 59 55 40 33 51 49 50 54 52 52 56 57 55 55 54 48 48 55 56 61 61 58 59 57 53 44 41 41 41
54 54 54 54 54 54 54 54 54 54 54 55 54 54 54 55 58 56 56 44 32 42 43 54 53 52 49 53 54 55 53 52 55 55 49 48 46 56 60 59 56 54 54 44 37 38 43
54 54 54 54 54 53 53 54 54 53 53 55 54 50 49 52 54 55 48 36 38 43 50 50 53 47 47 52 53 53 52 54 55 56 51 45 48 57 59 60 61 53 50 54 42 39 39
54 53 53 53 53 53 53 53 53 53 53 54 48 46 47 53 55 50 42 40 44 51 53 53 46 50 44 48 49 51 48 54 54 57 60 53 47 53 57 60 58 57 57 47 46 37 35
53 53 53 53 53 53 53 53 53 53 53 54 46 41 50 54 53 45 37 42 47 54 55 50 47 47 49 47 50 47 49 55 58 55 59 54 53 50 55 54 54 52 51 48 50 45 40
52 53 53 53 53 52 52 53 53 52 53 50 43 34 47 53 39 41 39 46 49 52 55 52 52 50 49 49 47 48 49 55 58 57 54 56 50 43 51 56 58 56 54 52 44 42 40
52 53 53 52 52 52 52 52 52 52 52 46 39 40 48 50 33 37 45 46 50 49 51 50 49 52 53 50 46 49 50 56 54 56 54 54 47 42 46 52 54 53 53 51 48 44 41
51 52 52 52 52 52 51 52 52 52 53 47 39 33 40 43 47 42 41 42 43 52 50 52 50 51 51 50 51 49 50 55 54 57 51 56 48 47 44 49 52 47 49 51 51 42 44
51 51 52 52 52 51 51 51 52 52 52 46 39 36 42 34 37 40 44 44 43 43 50 51 48 48 48 46 47 47 52 53 54 51 54 56 48 48 50 51 51 52 51 49 49 51 46
51 51 51 52 52 51 50 50 51 52 52 42 36 36 40 41 42 39 42 41 43 46 47 46 46 48 50 46 48 45 50 52 51 52 51 53 47 46 46 48 50 48 51 50 50 50 50
51 51 51 51 51 51 50 50 50 51 50 41 43 42 44 42 40 37 39 43 44 48 49 51 50 48 46 50 53 55 55 55 55 54 49 48 44 42 41 45 46 39 47 49 50 52 53
50 50 51 51 51 50 50 49 50 52 50 45 45 42 39 34 39 38 42 46 45 46 44 50 51 48 52 58 57 55 53 52 51 50 53 46 44 40 37 37 33 52 53 54 52 53 54
50 50 50 51 50 50 49 49 50 51 52 46 46 43 41 31 41 42 42 44 47 49 47 48 52 54 56 55 46 43 41 43 45 49 48 50 42 36 35 38 43 49 51 51 50 54 54
49 50 50 51 50 49 49 49 50 51 51 48 45 45 42 39 38 46 43 44 41 42 42 46 53 55 54 43 39 36 36 42 42 44 48 44 44 42 35 35 33 47 54 55 57 45 55
49 50 50 51 49 49 49 49 50 51 50 48 43 46 43 40 42 46 42 42 48 43 40 43 48 48 52 37 35 35 37 46 40 37 37 38 37 38 33 37 41 49 53 55 44 50 53
49 49 49 49 48 48 49 50 50 50 50 48 44 46 44 41 42 46 44 44 47 47 39 43 44 44 40 36 36 37 34 40 42 44 41 41 37 35 35 34 37 52 52 48 54 52 53
48 48 48 48 48 48 49 49 50 51 50 49 42 47 47 42 42 47 48 48 49 55 48 45 46 44 45 40 38 38 35 34 41 40 45 40 45 42 44 45 53 54 56 55 53 55 51

GFSGBSN_sfc_temp_060.txt.gz
Temp
61 61 61 61 61 61 61 61 60 60 59 59 59 59 59 60 61 60 59 59 59 59 59 59 59 59 67 67 72 80 68 68 77 79 80 78 75 75 70 73 73 70 74 76 78 75 74
60 59 60 60 61 60 61 61 60 59 59 58 58 58 58 59 59 59 59 59 58 58 58 59 59 58 64 60 81 79 78 77 81 81 80 79 77 78 73 72 71 74 75 75 73 72 71
59 59 59 59 59 60 60 59 59 59 59 58 58 57 57 58 58 58 59 58 58 57 58 59 59 63 60 65 81 81 76 80 83 83 78 81 81 76 76 71 75 74 69 73 72 73 71
59 59 59 59 58 58 59 59 59 59 59 59 58 57 57 57 57 57 57 57 57 57 58 58 58 63 59 78 81 76 79 79 82 83 81 82 81 77 74 76 74 70 69 65 72 72 70
58 59 58 58 58 58 58 58 59 59 59 58 58 57 56 56 56 56 56 56 57 58 58 58 60 61 61 73 71 80 80 78 80 79 80 81 79 74 73 68 66 68 62 63 65 73 71
59 59 58 58 58 58 58 57 58 58 58 58 58 58 57 56 56 55 55 56 59 57 61 62 64 57 68 71 76 77 80 82 77 76 74 73 74 70 70 67 57 60 61 65 64 70 70
58 58 58 58 58 58 58 58 57 58 58 58 58 58 57 56 56 55 58 64 62 59 59 62 63 65 69 76 77 76 79 77 79 75 67 71 67 63 66 68 66 66 63 62 67 70 67
57 57 58 58 58 58 58 58 58 56 57 58 58 57 57 56 56 56 57 59 62 61 54 64 64 66 70 72 65 73 80 73 70 65 69 65 62 70 69 67 64 65 64 63 66 69 66
56 56 57 57 57 57 58 57 57 56 56 57 57 57 57 56 55 55 57 63 70 66 55 59 65 64 67 69 65 71 76 75 69 66 66 63 66 68 66 65 62 64 62 62 62 66 70
55 55 56 57 57 57 57 57 57 57 55 56 56 56 56 55 54 61 59 68 69 66 50 55 57 63 67 69 62 78 79 75 69 65 67 66 72 65 65 63 66 60 68 66 63 63 57
55 55 55 55 55 56 56 56 56 56 56 55 56 56 55 54 55 55 64 68 66 61 38 60 57 72 68 66 68 70 80 73 66 66 66 63 64 63 62 65 68 63 67 65 65 63 60
55 55 55 55 55 55 55 55 55 55 55 55 55 55 55 57 57 63 67 66 63 47 37 54 59 57 57 62 65 70 70 75 77 68 67 68 70 68 68 68 68 68 64 63 63 61 51
54 54 55 55 55 55 55 55 55 55 55 55 54 55 54 63 56 66 64 59 45 40 57 54 53 56 59 57 61 65 63 61 61 55 56 64 65 69 69 64 66 66 62 50 46 48 48
54 54 54 54 54 54 54 54 54 54 54 54 54 54 54 61 64 63 58 46 39 51 52 59 57 56 54 61 61 63 62 59 67 66 61 56 52 64 69 66 63 63 63 52 41 44 50
54 54 54 54 54 54 54 54 54 54 54 54 53 51 50 55 62 56 48 37 46 51 57 55 57 51 51 59 61 61 61 61 65 68 58 56 57 66 68 68 69 61 57 64 52 49 48
54 54 54 54 54 54 54 54 54 54 54 54 50 47 48 56 60 48 42 43 52 59 59 57 52 56 48 51 55 59 58 65 64 69 72 63 54 63 64 68 66 64 68 54 57 42 41
53 54 53 54 53 53 53 54 53 53 53 54 47 40 55 56 53 42 36 46 54 62 60 54 55 52 55 54 56 57 57 62 68 65 71 67 62 55 61 60 62 60 59 59 60 56 46
53 53 53 53 53 53 53 53 53 53 53 51 43 34 55 55 36 39 39 51 54 57 61 57 56 54 54 56 55 57 58 63 70 69 61 67 62 54 58 64 66 67 63 62 52 49 52
52 52 53 52 52 52 52 52 52 52 53 49 39 39 52 54 31 34 46 49 55 55 57 55 53 56 58 55 52 58 60 67 67 68 64 65 58 50 53 58 62 61 63 64 61 57 52
51 52 52 52 52 53 53 52 52 52 53 51 39 33 39 42 52 42 42 46 47 57 57 58 55 57 54 53 58 55 57 59 63 68 56 63 62 56 49 56 63 57 60 63 60 51 54
51 51 51 51 52 52 52 52 51 51 52 48 40 40 42 32 39 46 47 48 46 47 55 57 54 54 53 49 52 53 57 58 60 55 64 65 56 59 62 64 64 62 62 62 59 60 54
51 50 51 51 51 52 52 52 51 51 51 43 37 46 47 46 46 45 45 44 47 50 52 51 52 54 54 50 53 50 55 58 58 59 61 63 56 59 55 62 61 58 62 63 63 63 61
51 51 50 50 51 52 52 51 50 50 50 41 43 57 52 46 44 41 45 44 49 53 55 57 55 52 50 54 58 60 60 60 60 58 58 58 57 53 49 56 55 44 56 61 62 63 63
50 50 51 50 51 52 52 51 50 50 50 52 46 54 46 42 43 41 46 48 49 52 50 55 58 53 57 62 62 61 59 59 60 60 62 55 56 54 48 43 36 59 64 68 63 66 68
49 50 51 51 51 51 51 51 50 50 50 50 49 50 49 40 48 46 45 47 52 54 52 54 56 61 62 57 50 47 48 50 54 58 58 60 55 46 41 45 55 56 58 59 59 62 70
49 49 50 50 50 51 51 50 49 50 50 48 49 56 52 46 45 53 44 48 47 49 50 54 61 62 59 50 48 42 41 49 48 49 54 55 55 52 44 42 37 57 67 69 67 53 72
49 49 50 50 50 50 51 50 49 49 51 48 50 55 52 46 54 54 46 46 54 52 48 52 53 54 58 46 40 42 43 54 46 44 39 44 45 43 45 43 53 63 64 66 50 56 71
49 50 50 50 50 50 49 49 49 49 50 50 48 55 53 49 52 51 55 51 54 53 46 53 51 51 48 43 44 45 42 50 50 55 48 47 44 41 46 40 39 61 61 58 67 66 70
49 49 49 50 50 49 49 48 48 49 50 50 44 52 56 52 47 51 51 56 61 61 56 55 55 54 54 49 48 50 42 43 51 44 56 47 53 51 51 54 63 64 70 71 68 71 66

GFSGBSN_sfc_temp_063.txt.gz
Temp
60 60 60 60 61 61 61 61 60 60 60 59 59 59 59 60 60 60 59 59 59 60 59 59 60 60 68 71 76 83 69 69 80 82 82 82 79 79 74 78 79 75 78 81 82 82 81
59 60 60 60 59 60 61 61 60 59 59 60 59 58 58 58 59 59 59 58 58 59 59 59 60 58 69 61 88 88 86 82 85 83 83 85 82 84 78 77 76 79 78 79 81 80 79
59 59 59 59 59 59 58 60 60 59 59 59 59 58 58 58 58 58 58 58 58 58 58 59 60 68 65 67 89 90 85 85 87 86 83 87 87 81 81 75 82 78 72 77 79 80 78
59 59 59 59 58 58 58 58 58 59 59 59 59 59 58 57 57 57 57 57 57 58 58 59 59 69 62 85 90 86 87 84 87 89 86 89 87 82 79 83 77 73 73 66 72 78 79
59 59 59 59 58 58 57 58 58 58 59 59 58 58 58 57 56 56 56 56 57 58 59 59 64 66 64 75 77 84 86 81 83 85 85 86 84 78 79 71 68 71 63 62 65 79 75
58 59 58 58 58 58 58 57 57 57 58 58 58 58 58 57 56 56 55 56 61 58 61 69 70 62 70 73 82 84 87 84 81 80 78 77 76 72 73 70 59 63 65 68 67 70 74
58 58 58 58 58 58 58 58 57 57 57 57 58 58 58 58 56 56 58 69 65 61 66 65 70 69 74 81 83 80 85 80 81 77 68 74 68 65 71 73 72 69 68 67 71 75 70
57 57 57 57 58 58 58 58 57 57 57 57 57 57 57 57 57 56 60 63 69 67 59 71 69 72 77 79 69 79 85 73 71 67 73 70 63 74 75 72 68 68 66 65 71 73 71
56 56 56 57 57 57 58 58 57 57 56 56 56 57 57 57 56 58 62 65 77 72 58 66 73 70 72 76 68 75 79 76 71 68 70 66 71 76 71 69 66 67 65 62 63 69 73
56 55 56 56 56 57 57 57 57 57 56 56 55 56 56 56 54 65 64 72 75 71 53 62 63 69 73 75 66 80 83 78 74 67 71 69 75 70 69 67 69 62 72 69 67 65 57
55 55 55 55 56 55 55 56 56 56 56 56 55 55 55 54 58 61 71 76 74 64 40 67 66 78 74 68 74 73 84 78 69 69 71 66 69 68 65 68 72 66 71 68 68 65 63
55 55 55 55 55 55 55 55 55 55 56 56 55 55 55 55 59 61 66 72 67 50 40 60 66 62 62 65 71 76 74 79 79 71 72 71 78 74 72 74 72 74 68 68 67 65 51
54 55 55 55 55 55 55 55 55 54 55 55 55 55 55 62 56 67 62 57 48 42 63 60 59 62 62 60 63 69 66 64 62 56 59 66 68 74 75 67 71 69 63 51 48 45 48
54 54 54 54 55 54 54 54 54 54 54 54 54 54 55 62 66 63 57 45 41 55 57 65 63 61 57 63 61 65 63 61 67 67 63 57 54 68 73 69 66 65 64 53 40 44 44
54 54 54 54 54 54 54 54 54 54 54 54 54 57 50 58 63 57 43 36 46 56 65 63 62 56 56 61 60 62 62 62 65 70 61 58 59 74 74 74 73 65 59 68 56 57 51
54 54 54 54 54 54 54 54 54 54 54 53 50 53 50 60 62 51 37 40 53 64 67 65 56 60 54 57 56 58 59 66 65 72 75 67 57 69 71 73 73 67 72 56 59 43 42
53 54 54 54 54 53 53 53 53 54 53 53 47 41 57 60 56 44 33 43 53 67 68 62 58 60 60 56 58 56 60 67 70 70 75 71 65 61 67 63 64 64 62 63 60 54 47
53 52 53 53 53 53 53 53 53 53 53 50 46 35 56 54 37 44 37 49 54 59 67 64 62 64 60 61 56 55 58 65 73 73 65 71 64 56 60 72 74 70 65 65 53 53 56
52 52 52 53 53 53 53 53 53 53 52 47 40 40 54 52 33 40 48 49 51 56 60 61 59 62 63 59 55 55 58 68 72 71 67 69 60 52 56 62 68 64 67 68 66 63 53
51 52 52 52 52 53 53 53 53 52 52 47 40 33 41 44 52 47 45 46 47 56 59 64 62 62 58 56 61 58 57 63 67 70 60 65 63 58 52 58 64 59 64 67 64 53 54
51 51 51 51 52 52 53 52 52 52 52 46 40 38 42 34 39 48 50 50 47 48 58 62 59 60 57 52 56 55 61 60 62 59 66 67 57 61 64 67 67 65 64 65 62 63 56
50 50 50 50 51 51 52 52 51 52 51 43 37 47 48 48 46 46 47 48 48 53 56 53 55 58 60 55 56 54 59 60 59 65 64 68 58 60 58 65 65 61 65 67 67 66 65
50 50 50 50 51 51 52 52 51 51 50 42 48 58 52 45 45 45 47 48 51 55 58 61 59 58 57 59 60 60 62 61 62 61 62 63 59 56 50 62 61 51 61 65 66 69 67
50 50 50 50 50 51 51 51 52 51 50 46 52 58 43 41 44 47 50 52 51 55 54 60 62 57 64 65 62 62 61 60 61 62 65 61 59 58 48 46 39 60 71 70 66 69 72
50 50 50 50 51 50 51 51 51 51 51 48 56 55 48 39 49 48 50 50 54 56 55 58 60 66 67 60 52 47 46 49 54 60 62 63 60 52 45 47 55 62 64 64 63 64 73
49 49 50 49 50 49 50 51 51 51 50 49 56 60 54 46 48 55 50 53 49 51 52 58 65 66 64 55 50 43 41 48 48 51 63 63 61 53 49 43 39 57 68 74 73 56 74
49 49 49 50 50 50 50 51 51 50 50 48 55 59 53 48 55 54 50 50 57 55 51 56 54 54 60 48 42 44 45 56 48 46 43 47 49 45 47 45 54 67 71 75 52 56 75
49 49 49 49 50 49 50 50 50 50 49 48 53 59 54 49 54 57 56 55 54 56 49 56 50 54 51 45 46 49 46 53 53 58 51 46 45 43 47 43 41 67 66 59 67 75 76
48 49 49 49 49 49 50 50 50 50 49 50 49 56 59 51 50 60 59 64 58 64 59 56 53 56 58 52 52 54 47 47 53 46 62 47 57 51 55 55 67 67 69 71 76 74 75

GFSGBSN_sfc_temp_066.txt.gz
Temp
60 60 60 60 60 60 60 61 61 60 59 60 60 59 59 60 60 59 59 58 59 59 60 60 60 60 65 69 72 81 70 69 79 80 80 79 76 76 71 75 79 75 77 79 81 81 80
60 59 59 59 59 59 60 59 59 60 59 59 59 60 59 59 59 58 58 58 58 58 59 59 60 58 65 58 86 92 87 82 83 81 80 81 79 82 76 75 74 78 78 78 80 79 80
60 60 59 59 59 59 59 58 58 58 59 59 59 59 59 59 58 58 57 57 57 58 58 59 60 64 62 63 85 90 88 85 86 85 79 84 85 79 79 73 81 78 71 75 76 78 77
59 59 59 59 59 58 58 58 58 58 58 59 60 59 59 59 58 57 57 56 56 57 59 59 60 64 58 82 88 85 86 84 88 88 85 87 87 80 76 80 76 71 71 63 74 77 77
59 59 59 59 58 58 58 57 57 58 58 58 58 59 58 58 57 56 56 56 56 57 59 60 61 62 60 79 76 83 87 81 84 85 85 87 83 75 75 68 64 68 59 64 68 77 75
59 59 59 58 58 58 58 58 57 57 57 57 57 58 58 58 57 56 55 56 60 59 62 68 67 60 68 70 83 84 86 84 79 78 76 74 73 67 68 64 54 61 62 65 65 71 73
58 58 58 58 58 58 58 58 58 57 57 57 57 57 58 58 57 57 57 64 61 56 60 62 65 64 74 82 86 81 85 79 79 74 64 70 63 59 65 69 70 69 66 64 68 74 70
57 57 57 57 57 58 58 58 57 57 57 57 57 57 57 57 57 57 59 56 69 69 57 68 67 68 74 78 70 77 85 71 69 63 68 65 58 69 73 73 70 67 64 64 70 73 70
56 56 56 57 57 57 57 57 57 57 57 56 56 56 56 57 57 56 57 59 74 74 57 63 70 69 71 74 68 72 79 73 68 64 65 60 67 74 71 70 65 66 63 62 62 69 72
55 55 55 56 56 56 57 57 57 57 57 56 56 56 55 57 52 61 58 70 71 71 49 58 67 71 74 74 65 78 82 74 70 63 65 66 73 71 69 66 68 61 71 68 67 63 55
55 55 55 55 56 55 55 55 56 56 56 56 55 55 55 55 60 58 67 70 75 65 35 68 71 80 76 67 71 70 80 75 64 66 67 63 68 67 64 67 71 65 71 67 67 63 61
54 55 55 55 55 55 55 55 55 55 56 56 55 55 55 54 57 61 67 61 63 45 36 61 67 63 64 66 67 76 72 77 75 68 70 68 77 73 71 73 73 74 68 66 66 61 49
54 54 55 55 55 55 55 55 55 55 55 55 55 55 55 60 51 66 63 51 41 37 62 59 60 64 62 61 63 67 64 63 60 54 55 64 66 74 75 67 72 69 62 49 45 45 46
54 54 54 54 54 54 55 55 54 54 54 54 54 54 56 60 63 61 54 41 35 51 53 68 67 64 57 63 61 62 64 59 65 64 58 53 51 67 73 68 64 63 61 50 38 34 43
54 54 54 54 54 54 54 54 54 54 54 54 54 53 54 59 61 57 44 33 38 51 62 59 63 57 56 62 63 61 60 61 64 66 56 54 55 71 72 72 70 63 57 66 48 48 42
54 54 54 54 54 54 54 54 54 54 54 53 49 49 50 61 61 50 38 35 46 57 60 64 54 60 54 58 58 59 59 65 63 68 69 62 54 68 70 73 72 67 70 55 56 37 40
53 53 53 53 54 53 54 54 54 54 54 53 46 40 54 61 56 42 32 38 48 60 62 58 57 57 59 59 60 58 58 63 65 66 68 66 60 61 69 63 62 63 60 61 62 57 45
52 52 52 53 53 53 53 53 53 53 53 50 44 35 54 58 37 39 35 44 51 55 61 58 60 61 60 61 59 58 57 62 70 66 61 66 61 53 60 70 72 69 63 63 51 50 53
52 52 52 52 52 52 53 53 53 52 52 47 39 39 52 54 32 33 43 46 50 52 57 58 55 62 64 59 55 59 61 67 67 64 59 64 57 50 52 62 67 63 66 66 64 61 52
52 52 51 52 52 52 52 52 52 52 52 48 39 32 41 43 49 43 41 43 44 53 55 59 58 61 59 55 62 56 59 62 63 65 59 61 62 57 48 54 62 58 63 65 62 49 52
51 51 51 51 51 51 52 52 52 52 52 47 39 37 44 34 37 44 46 48 45 45 54 58 55 55 55 52 55 56 61 60 62 60 62 64 55 60 62 64 64 63 62 63 60 61 53
50 50 51 51 51 52 52 51 52 52 52 44 33 45 49 48 42 42 43 44 47 49 52 50 51 56 53 53 57 55 60 58 55 61 59 62 55 58 55 63 63 60 64 64 64 64 63
50 50 50 50 51 51 51 51 50 51 51 43 42 54 49 43 42 37 41 45 48 53 55 58 57 56 51 52 53 61 59 61 60 58 57 57 53 52 46 59 59 48 59 64 65 67 66
50 50 50 50 50 51 51 50 50 50 50 46 45 54 45 41 41 42 45 48 49 52 51 57 59 56 61 65 59 57 60 59 59 59 60 54 55 52 44 43 37 58 70 69 64 67 70
49 50 50 51 50 50 50 50 50 50 50 45 51 52 46 39 48 46 47 49 51 55 53 55 60 65 60 53 45 47 46 48 53 58 57 59 53 43 41 43 52 59 64 64 61 61 71
50 50 50 50 50 50 49 50 50 50 51 47 49 56 53 44 44 52 48 51 47 49 51 55 62 65 59 50 39 40 37 46 47 48 58 58 57 48 44 40 36 54 67 72 70 51 70
49 49 49 49 49 50 49 50 50 51 51 46 47 54 51 44 51 51 47 47 55 53 50 54 54 54 60 44 36 40 42 53 42 40 38 43 46 43 42 41 49 63 67 70 50 52 70
48 48 49 50 49 49 49 50 50 51 50 47 47 53 50 45 49 51 54 52 55 55 47 54 51 46 49 43 42 44 42 48 48 53 47 43 42 41 43 39 38 67 66 56 62 67 72
48 49 49 49 49 49 49 50 50 51 50 50 45 51 54 48 47 55 53 57 63 64 58 56 52 48 55 49 49 51 44 45 49 40 57 42 51 48 51 50 64 63 64 66 69 68 68

GFSGBSN_sfc_temp_069.txt.gz
Temp
61 60 60 60 60 60 60 60 59 58 59 59 59 60 61 60 60 59 58 57 58 58 59 59 60 60 57 56 61 75 69 68 72 73 70 70 67 65 61 65 67 65 67 71 72 71 69
60 60 60 59 59 60 60 59 59 58 58 58 59 59 59 61 60 58 58 57 57 57 58 59 60 59 55 47 73 79 74 72 74 71 71 71 69 72 68 67 63 70 69 68 70 70 71
60 59 59 59 59 59 59 58 58 58 58 58 58 59 60 60 60 59 58 57 56 57 57 59 59 60 55 53 71 73 76 74 75 74 70 74 75 70 68 64 71 70 62 65 67 68 67
59 59 59 59 58 58 58 58 58 58 58 58 58 58 58 60 59 59 58 56 56 57 57 58 59 58 50 71 71 70 71 71 78 78 77 77 77 72 66 69 67 61 60 51 64 68 70
59 59 59 58 58 58 58 58 58 58 58 57 57 57 57 57 59 59 58 56 56 57 58 58 54 52 50 73 66 72 74 72 76 77 76 83 74 66 65 57 52 54 48 53 59 70 67
59 58 58 58 58 58 58 58 57 57 57 57 57 57 57 57 57 57 57 56 58 58 59 62 62 50 59 63 74 77 76 76 72 71 69 67 61 56 54 49 42 48 54 56 54 61 65
58 58 58 58 58 58 58 58 58 57 57 57 57 57 56 56 57 57 53 51 50 48 53 53 54 56 65 73 77 75 76 73 71 66 56 61 51 50 53 57 60 59 58 55 60 68 63
56 57 57 57 57 58 58 58 57 57 57 57 56 56 56 56 56 57 50 45 52 56 47 58 60 61 67 70 63 70 77 65 61 55 61 56 50 60 64 64 62 62 57 54 63 68 61
56 56 56 56 57 57 57 57 57 56 56 56 56 56 56 56 56 50 47 50 60 58 45 55 62 61 62 67 59 62 70 67 60 56 58 52 59 65 63 61 60 60 56 54 56 62 61
55 55 55 56 56 56 56 56 56 56 56 56 56 55 55 55 50 50 47 58 61 58 39 48 58 61 66 67 58 70 72 68 61 56 59 57 65 63 61 60 63 54 64 63 60 54 45
55 55 55 55 55 55 55 55 56 56 56 56 56 55 55 55 48 49 58 61 60 57 23 57 61 75 70 61 63 64 72 66 58 59 59 56 60 59 58 62 65 59 67 62 60 52 49
54 54 54 54 55 55 55 55 55 55 55 55 55 55 54 50 48 51 57 56 51 36 26 52 62 60 59 60 61 65 63 68 65 60 61 60 68 66 64 67 67 68 62 59 56 51 39
53 54 54 54 54 55 55 55 55 55 55 55 55 55 53 55 47 53 57 49 35 27 54 52 54 59 57 55 57 59 56 54 50 47 48 57 59 67 70 61 65 62 52 39 34 33 34
53 53 53 54 54 54 54 55 54 54 54 54 54 53 53 54 55 55 50 39 29 42 44 59 58 58 52 56 55 56 54 50 56 55 50 47 44 61 67 63 57 56 53 39 33 30 36
52 53 54 54 54 54 54 54 54 54 54 54 53 50 49 52 53 51 43 31 32 41 53 49 53 50 50 56 55 54 52 52 57 59 48 47 49 65 67 68 65 56 49 57 43 41 36
53 53 53 53 53 54 54 54 54 54 54 53 48 46 46 55 53 46 37 33 39 49 54 54 44 50 47 51 51 51 50 57 56 62 64 54 48 62 65 67 65 60 63 47 46 31 31
52 52 53 53 53 53 53 53 54 54 54 53 46 40 49 55 50 40 30 35 41 51 53 49 47 45 49 46 53 50 52 58 60 61 65 60 53 52 60 57 57 56 54 55 53 45 34
51 51 52 52 52 53 53 53 53 53 53 50 44 34 50 54 36 37 33 39 45 47 52 49 51 49 47 48 47 52 52 56 64 61 56 59 52 44 50 62 68 63 56 54 40 43 44
51 51 52 52 52 52 52 52 53 53 53 48 40 39 49 50 31 32 40 40 43 44 46 47 47 51 54 49 43 52 55 61 62 59 53 56 47 38 45 56 63 58 58 60 56 50 42
51 51 51 52 52 52 52 52 52 53 53 48 38 32 39 42 43 37 36 37 38 46 46 49 48 50 49 47 51 49 50 58 58 60 56 57 52 47 40 46 56 51 57 59 54 38 42
51 51 51 51 52 52 52 52 52 52 52 48 37 35 39 33 34 38 40 41 37 38 46 49 46 45 45 43 44 46 49 51 58 54 56 54 45 50 51 57 58 57 56 57 55 54 44
51 50 50 51 51 51 52 52 52 52 52 45 32 36 41 38 41 37 39 37 39 41 45 41 41 45 49 45 46 42 45 49 46 58 53 54 45 50 48 56 58 54 57 58 58 56 54
50 50 50 50 50 51 51 51 51 51 51 45 40 45 44 40 39 34 35 38 40 45 47 51 47 46 45 47 51 50 49 51 50 50 50 50 48 45 40 51 52 40 52 53 58 59 57
50 50 50 50 50 50 51 50 51 51 50 43 41 45 39 34 36 37 40 41 41 45 42 50 51 47 52 59 53 52 51 49 52 51 54 48 49 44 38 40 34 50 62 62 58 61 61
49 49 50 50 50 50 50 50 51 51 51 46 43 45 40 33 41 40 41 41 44 46 45 48 52 56 55 52 45 41 39 41 45 52 51 53 47 36 37 38 46 52 58 57 55 54 61
49 49 50 49 49 50 50 50 50 51 51 47 44 46 44 38 39 47 41 44 39 40 41 45 54 56 52 43 38 32 31 39 41 45 53 53 49 40 35 34 33 47 58 64 62 43 61
48 49 49 50 50 49 50 50 50 50 50 47 43 46 44 39 44 49 43 42 48 44 41 44 46 46 50 35 34 30 30 44 37 36 36 35 37 34 32 33 41 56 61 63 43 42 61
49 48 48 49 50 50 50 50 50 50 50 47 44 47 44 42 44 49 51 47 48 47 39 43 43 42 37 36 35 32 28 40 40 44 40 37 35 34 34 34 33 60 59 51 53 59 61
48 48 49 49 49 49 50 50 50 49 50 48 41 49 50 44 44 50 50 51 49 49 48 47 45 43 41 38 40 38 33 32 40 30 48 37 43 40 43 40 54 58 56 60 62 61 60

GFSGBSN_sfc_temp_072.txt.gz
Temp
60 60 60 60 60 60 60 60 59 58 58 58 58 59 60 60 61 60 58 57 57 58 58 58 59 60 56 52 56 72 68 68 67 70 68 66 63 60 56 59 61 58 63 66 68 67 65
60 60 60 59 59 60 60 60 59 58 58 58 58 58 59 60 60 60 59 58 57 57 57 58 59 59 56 45 70 72 71 67 69 67 67 67 65 67 62 61 57 63 63 63 65 65 65
60 59 59 59 59 59 59 58 58 58 58 57 57 57 58 59 60 60 59 58 57 57 57 58 59 58 54 51 66 66 69 67 69 69 66 69 70 63 62 60 66 64 59 61 63 63 63
59 59 59 58 58 58 58 58 58 58 58 58 57 57 56 57 57 59 58 57 57 57 58 58 58 57 48 67 65 65 64 64 70 71 72 72 71 66 62 65 63 58 54 48 59 62 67
59 58 58 58 58 58 57 57 57 58 58 57 57 57 56 56 56 56 57 57 57 58 58 58 52 51 47 67 63 67 67 65 70 71 71 78 69 62 61 52 48 48 43 48 54 67 63
58 58 58 58 58 57 57 57 57 57 57 57 57 56 56 56 55 55 55 56 58 56 56 60 59 49 55 60 69 72 68 69 66 66 65 64 60 54 50 47 39 43 46 45 49 59 56
58 58 58 57 57 57 58 58 57 57 56 57 57 56 56 56 55 55 51 49 47 47 49 49 52 51 59 67 73 69 71 67 65 61 54 57 50 48 51 52 55 53 51 49 56 64 61
56 57 57 57 57 57 58 58 57 56 56 56 56 56 56 56 55 55 49 45 48 49 39 54 55 57 62 65 57 64 70 61 58 52 56 52 49 58 59 57 55 54 51 50 58 64 59
56 56 56 56 56 57 57 57 57 56 56 56 56 56 56 55 55 51 47 49 58 54 38 49 57 56 58 62 54 57 64 61 57 52 52 50 55 62 58 55 54 54 51 52 53 58 56
55 55 55 55 56 56 56 56 56 56 56 56 55 55 55 55 49 49 46 57 59 55 33 43 52 57 61 61 54 67 68 63 57 53 54 52 61 58 56 54 57 49 60 59 56 51 43
54 54 54 54 55 55 54 54 55 55 55 55 55 55 55 55 45 44 53 56 58 49 22 51 55 67 63 56 58 58 68 61 53 54 54 50 54 54 53 56 62 54 61 60 58 50 45
54 54 54 54 54 54 54 54 55 55 55 55 54 55 55 51 45 47 53 53 51 36 22 45 58 54 52 56 57 60 58 62 62 56 55 55 63 60 59 63 63 65 59 56 51 47 37
53 53 53 53 54 54 54 54 54 54 54 54 54 54 53 54 42 49 51 47 35 26 50 46 51 55 52 50 53 54 52 51 48 43 45 53 54 61 63 56 61 60 50 38 35 33 33
53 53 53 53 53 54 54 54 54 54 54 54 54 53 53 53 51 48 49 39 27 39 40 53 51 52 48 51 50 52 49 46 53 49 46 42 39 55 62 58 55 54 51 38 33 30 35
53 53 53 53 53 53 53 53 53 54 54 53 53 50 49 52 51 48 40 28 32 40 48 46 48 44 45 52 50 49 46 46 52 54 44 43 44 59 64 65 63 54 46 55 41 39 33
53 53 52 52 52 53 53 53 54 54 54 53 48 46 46 54 52 44 35 32 37 47 50 47 38 47 42 44 44 45 45 53 51 57 57 50 42 57 60 63 63 57 60 44 44 32 29
51 51 52 52 52 52 53 53 53 53 53 53 47 40 48 53 49 38 29 33 40 47 47 44 42 42 43 43 46 44 46 53 56 55 59 55 47 47 56 54 52 52 51 50 50 43 33
51 51 51 51 52 52 52 52 53 53 53 50 45 35 49 52 35 35 31 38 44 44 48 44 46 45 43 44 43 44 45 51 57 59 51 55 48 41 48 58 61 57 55 52 39 39 41
50 50 51 51 51 51 51 51 52 52 52 47 40 38 48 48 30 31 38 39 42 42 43 43 43 46 49 45 38 47 48 55 59 56 53 53 44 37 42 53 57 53 56 56 51 46 40
50 50 50 51 51 51 51 51 51 52 52 47 36 31 38 40 41 38 34 35 36 45 42 44 43 46 42 41 46 44 46 53 53 57 53 57 46 46 39 44 51 47 54 58 52 38 41
50 51 50 51 51 51 51 51 52 52 52 47 35 33 38 32 34 38 39 38 35 35 44 45 39 40 40 36 40 42 45 47 53 54 53 53 42 47 49 52 53 51 52 54 52 49 44
51 51 51 51 51 51 52 51 51 51 52 45 31 34 38 39 39 36 37 34 36 39 42 38 37 42 43 38 41 39 44 43 45 49 49 51 42 45 42 51 52 48 52 55 54 53 52
50 51 50 50 50 51 51 51 51 52 50 44 43 42 43 39 36 33 34 37 37 42 43 45 43 40 39 42 47 49 48 49 48 44 44 47 44 40 35 48 47 38 46 50 52 54 54
50 50 50 50 50 50 50 51 51 51 50 46 42 43 37 33 36 35 39 40 39 41 39 45 46 42 46 53 52 51 50 49 48 47 49 44 44 40 32 39 29 44 57 56 52 56 58
49 49 50 50 50 50 50 50 50 51 51 46 43 42 38 33 37 39 39 39 41 43 41 43 47 50 52 48 42 38 35 37 41 47 47 48 45 34 33 34 40 47 54 54 53 52 60
49 49 49 49 49 49 49 50 50 50 51 47 43 45 42 36 34 44 39 41 36 37 38 42 49 50 47 40 36 30 28 35 37 41 49 47 44 40 31 31 27 43 57 62 60 43 60
49 49 49 49 49 49 49 49 50 50 51 47 43 46 41 35 40 45 39 39 44 40 36 40 44 42 47 33 28 27 29 41 33 33 36 34 34 32 29 29 36 50 58 61 44 43 59
49 49 49 49 49 49 49 49 49 50 50 47 44 46 41 35 42 49 48 44 45 44 35 40 40 39 36 31 32 29 27 35 36 42 39 39 35 32 32 28 30 54 56 49 51 56 58
49 49 48 48 49 49 49 49 49 50 50 49 41 46 47 41 42 48 50 54 55 54 46 43 42 40 40 35 34 33 28 28 35 33 46 36 41 37 39 38 50 51 53 54 55 54 57

GFSGBSN_sfc_temp_075.txt.gz
Temp
60 60 60 60 59 59 60 60 59 58 58 57 57 58 59 60 61 60 59 58 58 58 58 58 58 59 56 49 52 67 68 67 67 67 65 64 60 59 55 56 56 54 59 62 64 63 60
60 60 59 59 59 59 59 59 58 58 58 57 57 57 57 58 59 60 59 58 58 57 58 58 58 58 55 42 66 68 67 64 65 64 64 64 63 63 58 57 56 59 60 60 61 62 61
59 59 59 58 58 58 58 58 58 58 58 58 57 57 57 57 57 57 57 58 57 57 58 58 59 57 52 49 62 63 63 62 63 65 63 65 66 61 59 56 61 60 56 56 58 59 59
59 59 59 58 58 58 57 57 57 58 57 57 57 57 56 56 56 56 56 56 56 57 58 58 58 55 46 65 61 61 60 60 64 65 65 67 66 62 59 61 59 53 51 45 54 58 61
58 58 59 58 58 57 57 57 57 57 57 57 57 56 56 56 55 55 55 55 56 57 58 58 51 49 44 65 60 65 64 62 66 67 65 73 65 59 57 50 45 45 40 45 51 59 58
58 57 58 58 58 57 57 57 57 57 57 57 57 56 56 56 55 55 54 55 57 56 55 58 56 47 53 56 65 67 63 65 62 65 62 61 56 50 48 46 38 40 43 41 46 55 56
58 58 58 57 57 57 58 58 57 56 56 56 57 56 56 56 55 55 52 50 46 45 47 46 49 49 56 63 69 65 67 63 62 59 52 55 48 46 50 51 51 50 47 45 50 58 54
56 56 57 57 57 57 57 57 57 56 56 56 56 56 56 55 55 55 49 45 49 48 39 50 50 51 57 60 52 60 66 57 54 49 53 50 45 56 56 54 52 50 46 46 52 58 54
55 55 56 56 56 56 57 57 56 56 56 56 56 56 56 55 55 50 46 49 59 56 39 45 51 52 55 57 50 53 60 57 53 48 50 48 52 59 56 52 50 49 46 47 49 53 53
55 55 55 55 55 56 56 56 56 56 55 55 55 55 55 54 48 47 45 56 56 55 31 40 46 52 58 59 50 62 64 59 54 50 50 49 58 55 52 50 52 45 55 54 51 46 40
54 55 54 54 54 54 54 54 55 55 55 55 55 55 54 55 44 44 50 53 54 47 22 49 51 64 59 53 55 55 63 58 51 51 51 47 51 51 50 52 55 50 57 54 52 46 43
54 54 54 54 54 53 54 54 54 54 54 55 54 54 54 51 45 46 51 51 49 32 23 43 53 50 49 53 53 56 55 59 59 53 51 51 56 55 54 59 58 60 54 52 48 45 35
53 53 53 53 53 53 53 53 54 54 54 54 54 54 53 54 42 47 47 45 32 25 46 43 47 50 48 47 49 51 48 47 44 41 42 48 51 54 59 51 55 54 46 35 33 32 32
53 53 53 53 53 53 53 53 53 53 54 53 54 53 53 53 50 47 45 36 25 36 38 48 47 48 43 48 47 48 46 42 48 47 41 40 36 52 57 54 49 49 47 35 32 30 34
53 52 52 52 53 53 53 53 53 53 53 53 53 50 49 51 51 49 38 28 31 37 45 43 45 40 41 45 45 44 43 42 49 49 42 38 40 54 58 59 59 49 43 54 38 36 32
52 52 52 52 52 52 52 52 52 53 53 53 47 46 47 53 51 45 34 30 35 44 44 45 36 42 37 41 43 41 40 48 48 54 52 46 39 53 56 59 59 55 56 43 40 31 29
51 52 52 52 52 51 52 52 52 52 53 53 46 40 48 52 49 39 28 32 38 45 46 40 39 38 40 39 42 38 41 48 51 50 55 50 44 44 54 50 48 49 47 47 46 39 32
51 51 51 51 51 51 51 52 52 52 52 50 44 35 48 50 34 34 31 36 43 42 46 43 42 40 39 41 40 39 40 45 53 50 47 51 44 39 45 54 57 55 50 49 37 36 37
50 50 51 51 51 51 51 51 52 52 52 47 40 38 47 48 30 31 38 37 40 40 41 41 40 41 44 40 36 41 45 49 54 50 47 49 41 34 40 48 53 49 51 52 48 43 36
49 49 49 50 50 51 51 51 51 52 52 47 34 31 38 41 38 37 34 33 33 42 40 42 41 42 39 37 42 39 43 49 51 52 51 50 43 43 37 41 49 45 49 53 50 37 38
49 49 49 50 50 50 51 51 51 51 51 47 35 33 37 31 34 38 39 38 33 33 41 42 38 37 35 32 38 38 45 47 50 51 48 50 41 43 48 52 51 49 49 50 46 49 44
49 49 49 50 50 50 51 51 51 51 51 43 31 34 39 35 39 36 37 34 35 37 40 36 36 39 38 34 35 36 42 45 44 48 44 48 41 44 43 49 52 48 50 48 47 49 49
50 50 50 50 50 51 51 51 51 50 50 42 42 41 41 39 36 33 34 37 36 40 41 43 41 38 36 39 43 45 46 47 47 45 43 42 39 38 35 45 45 35 43 50 48 49 48
49 50 50 50 50 50 50 50 51 51 49 46 44 42 36 32 34 34 39 39 39 39 37 43 43 39 44 49 47 46 45 47 47 46 48 40 40 36 33 38 27 42 53 54 50 52 55
49 49 50 50 50 50 50 50 50 50 51 45 45 42 38 32 36 37 38 38 41 42 39 41 45 47 48 43 36 34 33 35 39 45 46 46 41 34 31 32 39 43 49 50 47 47 55
49 49 49 49 49 49 49 49 50 50 50 46 45 46 42 36 34 42 38 41 35 35 37 40 48 48 46 36 32 27 25 32 33 38 46 43 43 37 32 29 24 40 54 59 55 38 56
49 49 49 49 49 49 49 49 49 50 50 46 44 47 41 35 39 43 37 37 42 39 33 39 41 40 44 31 28 27 28 37 31 31 33 33 32 32 32 31 36 48 54 58 39 39 56
48 48 49 49 49 49 49 49 49 49 50 47 44 47 39 35 37 45 47 41 41 41 33 39 40 37 34 30 31 28 24 33 33 38 35 35 32 27 31 29 30 52 51 46 49 53 56
48 48 48 49 49 49 49 49 49 49 50 49 41 45 46 40 40 44 49 53 52 51 46 44 41 39 38 34 32 30 27 25 32 28 42 33 39 35 40 36 50 51 52 53 54 54 54

GFSGBSN_sfc_temp_081.txt.gz
Temp
60 60 60 60 59 59 59 59 59 58 57 57 57 57 58 58 58 58 57 57 57 57 58 58 59 59 54 52 56 67 66 67 67 68 68 66 64 63 59 61 62 58 62 65 66 65 65
59 59 59 59 59 59 59 59 58 57 57 57 57 57 57 57 57 57 57 56 56 56 57 57 58 58 51 45 69 67 65 66 67 67 67 67 66 67 63 62 61 64 63 65 65 65 65
60 59 58 59 59 59 59 58 57 57 57 57 57 57 57 57 57 57 56 56 56 56 56 57 58 56 47 49 66 66 63 64 67 66 64 67 69 66 65 60 65 63 59 62 64 66 65
59 59 59 58 58 57 57 57 57 57 57 57 57 56 56 56 56 56 56 55 55 56 57 57 58 53 44 62 64 61 62 61 64 66 65 67 67 66 64 65 62 58 57 53 61 61 64
58 58 58 58 57 57 57 57 56 57 57 57 56 56 56 55 55 55 55 55 55 57 57 57 52 49 44 63 57 65 64 61 62 62 64 71 66 62 62 57 53 52 50 50 56 63 63
57 58 57 57 57 57 56 56 56 56 56 56 56 56 56 55 55 54 54 55 56 56 56 56 55 44 52 56 63 66 64 64 62 59 59 60 60 56 55 52 45 48 48 50 52 59 59
57 57 57 57 57 57 57 56 56 56 56 56 56 56 56 55 55 54 51 50 48 47 48 46 47 47 52 59 64 63 63 62 63 58 52 55 51 47 53 55 55 54 52 51 56 59 57
56 56 57 56 56 57 57 56 56 55 56 56 56 55 55 55 55 54 50 46 48 48 38 48 47 49 55 57 49 58 65 56 54 51 54 50 47 54 56 55 54 54 51 51 55 59 57
55 56 56 56 56 56 56 56 56 55 55 55 55 55 55 54 54 50 47 48 54 52 39 45 49 48 50 54 47 51 60 58 53 49 50 49 52 57 55 52 50 51 50 51 51 54 59
55 55 55 55 56 55 55 55 55 55 54 54 54 54 54 54 49 48 45 53 54 51 34 40 44 49 54 55 47 58 62 59 53 50 51 51 58 54 52 51 53 47 55 53 52 49 45
54 54 54 54 54 54 54 54 54 54 54 54 54 54 54 54 47 45 51 54 54 49 26 47 47 61 57 50 53 53 62 57 50 50 51 48 50 51 50 51 54 51 57 54 53 50 48
54 54 54 53 53 54 54 54 54 53 53 53 53 53 53 51 48 51 52 52 49 34 25 43 50 48 48 50 52 55 54 59 58 51 52 51 57 56 56 57 56 58 54 53 50 48 39
53 53 53 53 53 53 53 53 53 53 53 53 53 53 51 52 45 51 50 46 32 26 44 40 43 47 47 47 48 50 47 46 44 40 41 48 51 56 58 52 55 55 49 40 37 37 38
52 52 52 52 52 53 53 53 53 53 52 52 52 52 50 51 51 50 47 38 24 36 36 46 46 46 43 47 47 47 45 42 49 47 43 40 39 52 56 55 50 50 50 41 34 36 42
53 53 52 53 53 53 52 52 53 52 52 52 51 48 46 50 51 49 40 26 32 37 42 41 44 40 40 45 45 45 43 43 47 49 42 40 41 54 56 58 58 48 44 54 42 40 39
52 53 52 52 52 52 52 52 52 52 52 52 45 44 45 50 50 45 34 30 35 42 43 43 37 41 36 39 40 41 42 48 47 51 52 47 40 52 55 58 59 55 56 42 45 35 34
51 51 52 51 51 51 51 51 52 52 52 51 43 38 47 51 48 39 29 33 38 44 44 39 37 36 37 37 40 39 41 47 48 48 52 49 45 45 51 49 48 50 48 49 50 45 39
50 51 50 50 51 51 51 51 51 51 51 48 41 32 47 49 35 34 32 37 43 41 45 42 42 39 37 39 38 40 39 44 51 50 42 46 42 39 45 54 56 56 51 51 43 40 43
50 50 50 50 50 50 50 51 51 51 51 44 37 37 47 47 29 31 35 35 41 39 40 39 39 41 42 38 35 40 42 50 50 50 44 45 40 35 40 49 54 50 52 54 52 47 44
50 50 50 50 50 50 50 50 50 51 51 45 37 30 37 41 39 37 34 33 33 43 40 41 40 42 39 37 41 37 39 46 48 49 48 48 39 35 34 39 46 45 50 52 51 42 45
49 50 50 50 50 50 49 50 49 50 50 44 36 31 38 30 33 35 38 38 34 33 41 42 38 37 37 32 34 35 41 43 48 50 48 46 37 40 40 43 44 45 48 52 49 50 45
50 49 49 49 49 49 49 49 49 49 50 42 32 34 36 36 39 35 37 36 36 36 37 35 35 38 39 33 36 35 40 41 39 45 43 46 34 36 36 43 44 41 48 50 51 51 50
50 50 50 50 50 49 49 49 49 49 48 40 41 41 40 37 35 33 33 37 37 41 41 43 40 38 33 37 43 44 45 44 43 39 38 38 35 34 33 39 37 36 45 49 52 53 53
49 50 50 50 50 50 50 50 48 48 48 44 41 41 36 32 34 35 38 39 39 40 37 42 44 37 42 49 48 46 43 42 42 41 43 38 37 34 31 33 27 46 53 55 52 55 56
49 49 49 50 50 50 49 49 49 49 48 45 44 41 37 32 36 37 38 38 41 41 39 40 43 46 48 41 34 32 34 35 38 41 41 42 38 32 30 30 33 43 49 50 49 50 57
49 49 49 49 49 49 49 49 49 50 49 44 43 45 41 35 34 42 38 41 36 36 35 38 47 48 46 36 33 27 28 33 34 38 44 41 42 35 33 29 27 40 50 57 56 43 55
49 49 49 49 49 49 49 49 49 49 50 44 42 44 38 34 40 43 38 36 42 39 35 39 40 38 43 34 30 28 29 38 32 32 33 34 35 32 32 31 38 48 52 55 41 45 55
48 48 48 48 48 49 49 49 49 49 50 46 42 45 38 34 37 45 46 41 42 42 35 38 36 36 35 31 32 32 31 36 36 39 37 36 33 32 34 31 30 51 52 45 51 53 55
48 48 48 48 49 48 48 49 49 49 49 48 41 45 45 38 39 44 45 47 51 50 44 42 41 39 39 35 35 36 32 32 36 32 43 36 40 37 39 39 49 51 53 55 55 53 58

GFSGBSN_sfc_temp_084.txt.gz
Temp
60 60 60 60 60 59 60 60 59 58 58 57 57 58 58 58 58 58 57 57 57 57 57 58 58 59 62 63 68 77 68 70 77 77 76 75 73 73 68 73 74 68 73 76 77 77 76
59 60 59 59 59 59 60 60 59 58 57 58 58 57 57 57 57 57 57 57 56 56 57 57 58 58 59 54 79 77 74 75 78 77 76 76 73 77 72 72 70 74 73 75 76 76 75
59 59 59 59 59 58 58 58 58 58 57 57 57 57 57 57 57 57 56 56 56 56 57 57 58 61 55 60 76 77 73 74 75 77 73 76 77 72 73 68 74 72 66 72 73 75 73
59 58 59 58 58 58 57 57 57 57 57 57 57 57 56 56 56 56 55 55 55 56 57 57 58 60 51 73 75 71 76 72 75 75 73 75 76 73 71 74 70 66 68 62 73 72 73
59 58 58 58 57 57 57 57 57 57 57 57 57 56 56 55 55 55 55 55 55 57 57 57 57 56 55 69 65 74 75 68 70 71 72 75 73 69 70 62 61 64 58 63 66 74 73
57 57 58 58 57 57 57 57 56 57 57 56 56 56 56 55 55 55 54 55 58 57 61 63 62 50 60 63 69 71 73 71 66 62 63 66 67 63 63 62 51 57 59 63 62 70 69
57 58 58 57 57 57 57 58 57 55 56 56 56 56 55 55 55 55 57 63 61 56 57 56 58 56 62 68 70 70 71 68 68 63 55 62 58 54 60 61 64 65 61 62 69 69 64
57 56 56 57 57 56 57 57 56 56 55 56 55 55 55 55 55 55 59 55 53 52 43 57 57 58 64 66 55 65 71 63 61 57 60 58 53 64 64 64 60 61 59 60 67 68 64
55 56 56 57 57 56 57 57 56 55 55 55 55 55 55 54 54 57 57 55 62 60 42 52 57 56 57 60 54 57 65 64 60 57 55 52 59 64 62 58 56 58 57 59 60 66 68
55 55 54 55 55 55 56 55 55 56 55 54 54 54 54 53 52 59 57 60 63 56 39 51 50 56 58 59 52 64 67 64 60 55 57 54 59 60 59 56 59 53 64 62 59 58 53
55 54 54 55 54 53 54 54 55 55 54 54 54 53 53 53 55 55 58 60 58 54 32 52 53 66 61 55 57 56 64 62 55 55 55 54 54 54 53 57 61 56 64 62 60 58 57
54 54 54 54 54 53 54 54 54 54 54 53 53 53 53 56 57 57 61 60 54 37 31 49 55 53 52 53 55 58 56 63 62 54 57 55 62 59 57 62 63 63 60 59 59 57 46
53 53 53 53 53 53 53 53 53 53 53 53 53 53 53 56 50 61 60 52 38 33 51 46 48 52 52 51 52 53 49 47 48 42 43 52 54 61 62 58 62 60 56 47 44 44 44
53 53 53 53 52 52 52 52 53 53 53 53 52 51 54 56 59 55 53 42 28 42 44 51 50 52 48 51 52 52 50 47 53 51 50 44 43 53 60 57 55 55 56 49 39 43 49
52 52 53 53 52 52 53 53 53 52 53 52 52 54 50 57 57 52 40 31 39 44 48 46 50 46 47 49 51 51 50 51 53 54 47 47 47 61 62 63 63 57 51 62 51 52 44
52 52 52 52 52 52 52 52 52 52 52 52 49 47 50 59 58 46 35 32 43 48 48 48 42 46 42 45 47 49 48 51 50 56 57 52 44 57 59 62 64 61 64 49 51 38 38
51 51 51 51 51 51 51 51 52 52 52 51 45 38 54 59 53 39 30 33 43 51 48 44 43 42 44 42 46 46 46 50 54 54 57 53 50 51 56 53 52 54 52 55 56 52 44
50 50 51 51 51 51 51 51 51 51 51 48 42 32 56 54 35 34 32 41 43 47 51 47 46 44 43 44 44 44 44 49 56 55 48 51 48 43 50 60 62 60 56 56 47 47 51
50 50 50 50 51 51 51 51 51 51 51 48 37 38 53 49 31 33 36 37 46 45 46 46 44 46 48 44 40 45 47 53 55 53 49 52 42 41 45 53 59 54 57 58 57 55 48
50 50 50 50 50 51 51 51 51 51 51 46 37 31 42 42 41 39 40 35 35 45 46 48 45 48 45 42 47 43 45 51 53 53 49 52 47 39 37 42 48 45 51 56 55 46 48
50 50 50 50 50 50 50 50 50 51 51 45 37 33 44 33 34 34 41 41 37 35 45 48 43 44 43 39 42 42 46 48 52 52 53 51 42 46 48 50 51 50 50 52 52 55 50
50 50 50 50 50 49 49 50 49 49 50 41 33 34 43 43 45 38 35 37 39 44 42 41 41 45 46 41 43 40 44 45 44 49 46 48 38 42 40 48 50 47 51 53 54 55 58
50 50 50 49 50 50 50 49 49 49 48 40 40 43 39 40 41 34 36 40 41 45 46 49 47 45 42 46 49 48 48 48 47 45 44 42 40 35 35 47 45 41 49 51 56 59 58
50 50 50 50 50 50 50 50 49 49 48 44 42 41 36 33 39 40 42 42 42 45 43 47 49 45 47 50 49 49 49 49 48 48 49 41 41 38 35 38 29 47 50 53 55 60 63
50 50 50 50 50 50 50 50 50 49 49 44 44 42 38 33 39 41 42 40 45 45 41 43 49 51 50 41 38 38 39 40 43 47 48 48 43 35 32 36 43 41 44 45 49 55 65
49 49 50 49 49 49 49 49 49 50 49 44 44 46 42 39 39 47 43 44 41 40 37 42 48 48 44 37 34 31 33 39 39 43 51 49 46 40 37 32 31 44 50 53 56 45 61
49 49 49 49 49 49 49 49 49 49 50 46 41 45 42 35 47 49 43 43 46 43 39 40 39 38 41 34 33 34 35 43 36 36 33 38 37 33 35 31 42 53 55 57 36 39 55
48 48 48 49 49 49 48 49 49 49 50 46 42 46 39 37 45 51 52 48 47 45 39 41 37 36 34 33 35 37 36 42 41 45 39 34 35 34 35 32 32 56 56 45 46 56 59
48 48 48 48 48 49 49 49 49 49 50 49 41 46 44 38 39 47 46 53 57 55 47 44 44 41 44 39 41 43 37 40 42 37 50 39 41 36 43 44 54 55 53 57 58 55 56

GFSGBSN_sfc_temp_087.txt.gz
Temp
60 60 60 60 60 60 60 60 60 59 58 58 58 58 58 58 58 58 57 57 57 57 57 58 58 58 63 66 71 84 70 70 80 80 79 79 76 76 72 77 79 75 77 80 83 82 81
59 60 60 60 59 60 60 59 59 58 58 58 58 58 58 58 58 58 57 57 56 56 57 58 58 57 63 56 85 86 83 82 83 82 80 82 79 82 77 76 75 78 78 78 80 81 81
60 59 58 59 59 59 59 58 58 58 58 58 57 57 57 57 57 57 57 56 56 56 56 57 58 62 59 62 84 85 81 80 85 84 79 83 84 77 77 72 79 76 70 74 76 79 78
58 59 59 58 58 58 58 58 58 58 58 57 57 57 56 56 56 56 56 55 55 56 57 57 58 63 56 79 83 79 81 79 82 83 81 84 82 76 74 78 73 68 69 62 74 79 81
58 57 58 58 58 57 57 57 57 58 58 57 57 56 56 56 55 55 55 55 55 56 58 58 60 61 59 72 71 78 80 74 79 79 80 80 78 71 72 65 62 65 57 62 68 81 77
58 58 58 57 58 58 57 57 57 57 56 56 57 56 56 56 55 55 54 55 59 57 60 68 69 55 65 67 74 76 79 78 73 73 70 68 70 65 66 64 53 56 58 63 65 76 78
57 57 58 58 58 58 58 57 57 56 56 56 56 56 56 55 55 55 57 67 63 60 62 61 64 62 68 74 78 74 77 72 73 68 60 66 60 57 63 65 66 65 64 65 71 78 71
56 56 56 57 57 57 58 57 57 56 56 55 55 55 55 55 55 54 59 60 60 57 48 63 63 64 70 73 62 70 79 66 65 60 66 64 55 66 69 67 64 62 61 62 68 74 71
54 54 56 56 56 57 57 56 56 56 55 55 55 54 54 54 54 57 63 61 68 63 51 59 65 64 66 68 60 64 73 68 64 60 63 59 64 69 64 61 56 59 59 60 61 70 73
54 54 55 55 55 55 55 55 55 55 55 55 54 54 54 53 52 65 61 66 68 62 46 57 58 61 63 64 57 71 74 68 63 59 61 63 68 64 62 60 60 53 65 63 62 62 56
54 54 54 55 54 54 54 54 55 55 55 54 54 54 53 53 54 57 60 67 65 56 36 59 59 72 67 60 63 62 70 66 57 59 60 58 60 60 56 60 63 58 66 62 63 62 60
53 53 54 54 54 54 54 53 53 54 54 54 54 53 53 58 59 63 66 65 60 39 34 54 61 57 57 60 60 62 59 66 67 58 61 60 69 64 63 64 63 64 61 62 62 60 48
53 52 53 53 53 52 54 53 53 54 54 54 53 53 53 58 54 63 62 55 40 36 56 53 54 58 58 56 57 58 53 52 52 44 45 54 58 65 65 57 62 59 55 46 45 45 45
51 52 52 53 53 53 52 53 52 52 53 53 53 52 56 61 63 62 55 42 30 48 51 57 55 57 53 57 56 56 54 53 58 57 52 47 45 58 65 60 57 56 54 45 39 44 51
52 52 52 52 52 53 53 52 53 52 53 53 52 57 57 60 63 57 43 30 40 47 55 51 54 50 52 55 54 55 54 56 58 60 50 51 51 66 64 64 62 58 51 60 52 55 48
51 51 52 52 52 52 52 52 52 52 52 52 54 53 55 63 61 50 35 33 46 54 53 52 46 52 49 51 51 52 53 56 54 59 62 55 47 60 62 65 63 58 66 50 53 40 39
51 51 51 51 51 51 51 52 52 52 52 52 50 41 58 64 56 40 31 36 46 53 54 48 49 47 50 48 50 50 51 54 57 56 61 58 52 53 59 56 55 55 54 57 56 52 44
50 51 51 50 50 51 51 51 52 52 52 50 45 34 61 58 36 38 32 43 43 49 56 52 50 49 48 49 47 47 48 53 59 58 51 56 51 46 52 63 66 63 59 58 47 47 54
50 50 50 50 51 51 51 51 51 51 51 52 39 44 58 53 33 36 45 40 43 44 48 49 49 51 52 48 43 49 51 57 56 56 50 54 47 42 47 55 60 56 59 60 59 57 50
50 50 50 50 51 51 51 51 51 51 51 48 39 33 47 45 47 39 40 42 41 47 45 52 50 52 49 46 50 45 48 54 56 56 51 52 49 45 39 43 53 50 56 58 56 49 50
50 50 50 50 50 50 50 51 51 51 50 46 38 35 48 33 39 43 44 42 40 41 45 50 45 47 47 42 45 44 49 51 55 54 54 52 42 48 51 53 53 53 53 55 53 54 49
49 49 49 49 49 50 50 50 50 50 50 42 33 34 47 46 48 43 42 41 41 40 41 42 43 48 49 44 46 40 43 46 45 53 51 51 42 47 45 52 52 49 54 56 57 56 57
49 49 49 49 49 49 50 49 49 49 49 40 43 49 43 42 43 41 42 43 44 47 49 50 49 48 46 48 52 53 53 52 51 46 46 45 42 39 36 49 48 42 52 55 56 58 57
49 49 50 50 50 50 50 50 50 49 48 43 41 43 37 35 40 42 46 48 46 48 45 49 53 49 52 56 55 54 52 50 49 49 50 43 42 40 36 41 29 51 58 54 51 53 59
49 50 50 50 50 50 50 50 50 50 49 44 44 42 38 34 44 44 45 46 49 50 47 48 54 53 52 48 39 38 41 42 46 51 50 49 43 34 33 36 44 50 56 51 48 46 59
49 49 50 50 49 49 49 49 49 50 50 46 44 46 44 38 41 50 46 48 43 43 45 49 53 50 49 38 36 33 34 42 42 47 54 52 48 40 38 33 32 47 56 57 56 43 51
49 49 49 49 49 49 49 49 49 49 50 50 43 46 42 37 50 51 45 44 49 47 44 45 40 39 46 36 33 34 36 47 38 40 39 42 40 34 36 35 42 53 58 58 39 38 50
48 48 49 49 49 49 49 49 49 49 50 49 45 48 40 37 50 53 56 49 50 48 39 41 38 37 35 33 36 40 40 45 44 48 41 39 36 34 38 35 32 58 56 44 46 51 51
48 48 48 48 49 49 49 49 49 49 50 49 42 50 45 38 42 53 58 59 59 58 48 43 46 40 45 40 44 45 40 44 44 37 53 38 44 41 45 45 50 58 54 55 55 53 56

GFSGBSN_sfc_temp_093.txt.gz
Temp
60 60 60 59 59 60 60 60 59 58 58 58 58 58 58 58 58 58 57 57 57 57 57 57 58 58 53 53 57 73 68 68 70 71 69 67 65 63 59 63 64 63 66 70 73 72 70
59 59 58 58 59 59 59 60 59 58 58 57 57 57 57 57 57 57 57 56 56 56 57 57 58 58 51 43 70 75 73 73 74 71 70 70 68 70 65 64 62 68 68 69 70 69 71
59 58 58 58 58 58 58 58 58 58 57 57 57 57 57 57 57 56 56 56 55 56 56 57 58 57 49 48 68 68 69 68 71 73 69 74 74 67 66 61 70 68 60 65 66 66 64
58 58 58 58 57 57 57 57 57 57 57 57 57 57 56 56 55 55 55 55 55 56 56 57 58 53 43 66 65 67 69 69 73 74 71 74 74 67 63 67 65 58 57 51 60 66 68
57 57 57 57 57 57 57 57 57 57 57 57 57 56 56 55 55 55 55 55 55 56 57 57 51 48 45 70 63 68 68 66 69 71 70 78 69 60 61 52 48 50 45 49 55 65 65
57 57 57 57 57 57 57 57 57 57 56 56 56 56 56 55 54 54 54 54 56 57 57 61 58 47 54 60 72 73 71 71 66 64 63 61 56 50 49 46 39 43 46 48 50 59 64
57 57 57 57 57 57 57 56 56 56 56 56 56 56 55 55 54 54 51 48 50 47 52 50 52 52 60 69 74 70 74 69 66 60 49 55 45 42 46 50 53 53 51 50 55 62 61
54 55 56 56 55 55 56 55 55 55 56 56 55 55 55 55 54 54 48 44 52 51 41 55 56 57 62 65 57 63 71 60 58 50 55 51 45 53 57 56 54 53 50 49 56 62 61
54 53 52 53 53 54 54 55 55 54 54 55 55 55 55 54 53 49 46 50 62 57 40 49 56 55 57 61 54 56 63 60 56 52 53 48 53 60 56 54 52 52 50 50 51 55 54
53 53 52 53 54 54 54 54 54 55 55 53 54 54 53 53 47 50 50 60 59 54 31 43 53 59 62 62 55 65 66 60 56 51 54 52 59 58 56 53 55 47 57 56 55 46 38
53 52 52 52 53 53 53 54 53 54 54 53 54 54 53 53 44 44 54 60 59 49 20 54 57 70 65 57 60 60 67 60 51 52 52 49 52 51 51 54 58 52 57 56 51 44 42
52 52 51 51 51 52 52 52 52 53 53 53 53 53 53 49 44 48 56 54 49 31 22 48 57 54 53 56 57 60 59 61 60 52 54 52 59 55 54 58 59 59 55 53 49 46 33
52 52 51 50 51 51 51 52 53 53 52 53 53 53 51 52 40 53 51 45 29 24 49 49 50 54 52 49 51 54 51 48 42 37 38 47 50 56 59 50 56 53 48 34 31 32 31
52 52 52 51 51 52 52 52 53 52 52 52 52 52 49 51 48 53 47 36 24 40 41 52 48 51 48 52 52 52 48 42 49 46 41 37 35 49 57 52 49 51 49 35 28 29 34
52 52 51 51 51 51 52 52 52 52 51 52 52 43 43 48 49 50 39 26 29 39 47 43 44 43 46 53 51 50 48 46 51 50 41 41 43 55 57 58 56 49 44 53 42 44 36
51 51 51 51 52 52 52 51 51 51 50 50 42 40 43 51 50 42 33 29 35 45 47 44 35 44 36 40 42 46 47 51 53 53 54 48 39 53 57 58 57 53 57 42 42 30 29
51 51 51 51 51 51 51 51 50 51 51 52 39 34 45 50 48 36 27 29 38 47 48 42 37 34 38 35 38 42 45 46 48 53 53 47 42 45 55 48 48 49 48 48 48 41 31
51 51 50 51 51 51 51 51 51 50 50 46 37 28 47 49 31 31 29 38 43 43 48 43 41 40 36 38 37 37 35 42 49 51 46 46 43 37 44 55 56 55 51 50 38 38 42
51 50 50 50 51 50 50 50 51 51 50 40 33 33 48 46 23 28 36 39 42 41 42 44 39 41 44 36 33 36 41 52 53 50 44 46 39 33 39 47 50 46 53 53 49 47 40
50 50 50 50 50 50 51 51 50 50 51 43 34 24 34 37 37 34 35 35 36 46 44 46 43 44 40 39 43 39 41 48 52 51 50 49 41 37 31 37 42 40 46 51 46 38 40
50 50 50 49 50 50 50 51 51 50 50 40 33 30 38 26 31 36 37 37 36 36 44 45 40 41 39 34 38 39 46 46 50 49 49 46 36 40 43 46 47 46 46 47 46 45 38
50 50 49 49 49 49 50 50 50 50 50 39 31 31 39 37 39 34 34 34 36 40 39 39 39 42 40 36 39 37 41 41 40 47 45 48 36 40 38 45 46 44 48 48 48 49 49
49 50 49 49 50 50 49 49 50 50 48 37 40 41 36 35 35 33 33 35 39 42 44 46 42 39 37 38 43 43 44 44 43 40 40 40 37 33 31 41 40 33 42 47 49 52 50
49 49 50 50 50 50 50 50 49 49 49 41 40 40 32 27 32 33 38 40 40 42 39 45 43 37 44 50 47 48 47 46 44 44 47 39 37 34 28 33 21 42 53 53 50 46 46
49 49 49 50 50 50 50 50 49 49 49 42 42 39 34 28 35 37 38 39 40 40 41 43 45 45 47 43 36 34 33 35 40 45 45 45 38 27 26 26 36 43 46 43 39 40 46
48 49 49 49 49 49 49 49 49 49 49 44 41 44 39 31 32 42 38 39 35 33 36 41 45 46 44 36 30 26 24 34 36 41 48 45 41 32 28 26 23 40 46 50 50 34 48
48 48 49 49 49 49 49 49 49 49 50 45 41 44 39 32 39 42 35 34 41 38 35 38 39 38 41 33 26 26 26 41 31 33 33 34 34 29 28 27 34 44 46 50 34 34 47
48 48 48 48 49 49 49 49 49 49 50 46 42 44 38 33 38 44 46 40 39 37 32 36 35 36 34 28 27 28 26 35 35 39 37 33 30 28 28 28 25 44 46 38 39 47 45
47 48 48 48 48 49 48 49 49 49 49 48 40 45 45 37 37 42 43 46 45 45 40 39 38 37 36 31 32 33 27 30 33 29 42 31 37 31 35 33 41 44 44 50 48 44 44

GFSGBSN_sfc_temp_096.txt.gz
Temp
59 59 59 59 59 59 59 59 59 59 58 57 57 58 58 58 58 58 57 57 57 57 57 57 58 58 52 47 52 69 68 68 68 67 64 63 60 58 54 57 59 56 61 65 67 67 67
59 59 59 59 58 58 59 59 58 58 58 57 57 57 57 57 57 57 57 56 56 56 56 57 57 58 47 39 65 69 68 68 68 67 67 66 64 65 60 59 58 64 63 63 65 65 66
59 58 58 58 58 58 58 57 57 57 57 57 57 57 57 57 57 57 56 56 56 56 56 57 57 55 48 45 62 62 63 63 67 67 65 69 69 62 62 58 65 63 57 61 61 62 61
58 58 58 57 57 57 57 57 57 57 57 57 57 57 56 56 55 55 55 55 55 55 56 56 57 52 42 61 59 60 61 64 68 68 68 69 68 63 61 63 62 55 53 46 58 61 64
57 57 57 57 57 57 57 56 56 57 57 57 56 56 55 55 55 55 55 54 55 56 56 57 51 47 40 63 58 63 64 62 66 68 64 74 64 59 58 51 46 48 45 46 50 61 59
57 57 57 57 57 57 56 56 56 56 56 55 56 56 55 55 54 54 54 54 55 55 55 58 56 44 51 56 65 69 65 66 62 61 61 58 54 49 46 44 39 42 42 40 44 52 58
56 55 55 55 55 55 55 55 55 54 55 55 56 55 55 54 54 54 51 47 48 47 50 46 48 47 54 64 68 65 68 64 62 57 49 54 44 39 45 50 50 48 46 44 45 56 54
55 55 55 55 54 54 55 55 53 54 54 55 55 55 54 55 54 53 48 41 50 52 41 53 53 53 57 59 51 58 65 55 55 48 51 47 42 50 52 51 49 48 45 45 51 56 55
54 54 54 54 54 54 54 55 54 54 54 54 54 54 54 54 53 46 42 48 58 57 39 46 52 51 53 56 49 52 59 55 50 48 49 44 51 56 52 49 47 46 44 45 46 52 52
53 53 53 53 53 53 54 54 54 54 54 54 53 53 53 53 45 44 44 56 57 50 30 40 47 52 56 56 48 59 62 55 51 46 49 47 55 53 52 49 50 42 53 51 49 44 39
52 53 52 52 52 52 52 52 53 53 53 53 53 53 53 53 40 43 52 55 55 46 21 50 52 65 59 52 55 56 61 54 47 48 48 44 47 48 48 50 53 47 54 51 50 42 39
53 53 53 52 52 51 52 52 52 53 53 53 53 53 52 47 40 48 52 51 45 29 21 44 54 52 49 52 53 56 55 57 55 46 49 47 54 50 50 55 55 56 51 50 45 41 30
52 53 52 52 52 51 52 52 52 52 53 52 52 52 50 49 37 48 48 41 27 23 45 42 43 47 47 47 50 51 49 46 41 35 37 43 47 52 55 47 52 50 43 32 28 29 29
52 52 52 52 52 52 52 52 52 52 52 52 51 51 48 48 43 45 45 34 22 36 38 46 44 46 44 48 48 48 45 41 46 43 37 34 32 47 52 49 44 44 43 32 27 27 32
52 52 52 52 52 52 52 52 52 51 52 51 50 41 40 43 45 47 36 26 28 35 42 39 42 39 41 46 44 46 44 44 47 47 37 35 37 51 53 56 52 45 41 48 38 37 32
52 51 52 52 51 51 51 52 51 50 50 50 42 37 37 46 44 41 33 29 32 41 42 41 32 37 32 35 37 40 43 48 49 51 52 44 36 50 53 52 51 50 52 38 38 29 27
51 51 51 51 51 51 51 50 51 50 51 50 42 31 41 45 45 37 24 28 35 44 44 38 35 34 36 35 36 36 37 45 45 48 51 46 40 42 49 44 43 44 42 45 44 37 30
51 51 51 51 51 51 51 50 50 51 50 47 36 21 42 44 30 32 23 35 41 40 44 41 40 38 37 35 33 35 35 38 44 43 41 44 40 36 42 51 52 48 46 44 33 34 36
51 51 51 51 51 51 50 50 51 50 49 41 33 29 42 44 25 26 32 36 39 38 39 40 39 41 40 33 31 34 36 44 44 42 41 45 38 33 37 44 45 40 44 47 46 42 36
50 50 50 50 50 50 50 50 51 50 51 41 34 24 30 34 36 32 31 32 32 43 40 42 41 44 40 35 38 35 35 42 46 43 48 48 40 35 30 34 39 37 38 45 41 32 34
50 50 50 50 50 50 50 50 50 50 50 42 32 25 31 28 28 34 34 33 32 33 42 41 38 40 39 33 34 35 36 38 42 45 48 45 34 38 40 43 43 44 40 43 42 41 35
50 50 50 50 50 50 50 50 50 50 49 39 28 25 33 33 37 34 34 32 32 35 38 34 35 39 39 34 36 33 37 39 41 43 42 45 35 37 36 42 42 40 44 44 46 47 46
49 50 50 49 50 50 50 50 49 50 47 37 36 37 34 33 32 30 30 35 34 36 38 41 40 39 37 39 41 43 42 44 43 40 37 38 34 30 29 37 38 32 40 44 46 42 44
49 49 50 50 50 50 50 50 49 49 48 38 37 36 30 26 30 31 36 37 36 37 35 40 41 37 44 47 46 44 43 42 43 42 42 36 35 31 28 31 20 41 50 48 42 43 44
49 49 49 49 50 50 49 50 50 49 49 41 39 36 32 24 32 34 35 36 38 38 36 38 42 43 45 40 34 33 32 34 37 42 41 42 35 28 25 23 34 41 42 42 41 38 46
48 48 49 49 49 49 49 49 49 50 49 44 42 40 36 30 30 39 35 37 30 30 32 37 43 43 42 33 31 27 25 30 31 36 44 41 38 32 27 25 22 36 46 50 48 34 44
48 48 48 49 49 49 49 48 49 50 50 46 41 44 39 32 38 39 32 33 38 35 31 34 36 36 39 31 28 25 25 37 29 30 30 30 30 28 28 25 32 41 44 47 31 32 43
47 48 48 48 48 48 48 49 49 49 50 45 41 45 38 33 38 41 43 37 36 35 30 34 33 35 34 31 28 26 24 32 33 37 33 31 28 27 29 26 24 44 44 36 39 43 44
47 47 47 48 48 48 49 49 49 49 50 47 40 44 45 37 36 40 41 43 43 41 37 39 35 37 37 31 30 30 26 29 34 28 37 31 36 31 34 32 42 42 42 46 46 43 42

GFSGBSN_sfc_temp_099.txt.gz
Temp
59 59 59 58 58 58 59 59 58 58 57 58 57 57 58 58 58 58 57 57 57 57 57 57 57 58 51 44 49 64 68 68 65 64 62 60 56 55 51 53 54 52 54 59 62 61 60
58 58 58 58 58 58 58 58 57 57 57 57 57 57 57 57 57 57 57 56 56 56 56 57 57 57 48 37 62 64 61 62 64 61 62 62 60 62 56 55 53 58 58 60 61 62 62
58 58 58 57 57 57 57 57 57 57 57 57 57 57 56 57 57 56 56 56 55 56 56 57 57 54 46 44 60 59 60 58 62 63 60 64 64 58 59 56 62 61 54 56 57 58 59
57 57 57 57 57 57 56 56 57 57 57 57 57 56 56 56 55 55 55 55 55 55 56 56 57 52 42 61 59 57 56 56 62 63 63 65 64 58 56 59 57 53 51 44 55 58 61
57 56 56 56 56 56 56 56 56 56 56 56 56 55 55 55 55 54 54 54 54 55 56 56 51 48 40 62 56 61 60 58 61 61 62 71 61 55 54 48 43 44 38 44 49 59 58
56 56 56 55 55 55 55 55 55 54 55 55 55 55 55 55 54 54 53 53 54 54 54 56 55 43 49 54 64 66 60 62 60 59 56 56 52 46 44 42 36 40 40 37 42 50 54
55 55 55 55 55 55 55 55 55 55 54 55 55 55 55 54 54 54 49 43 44 42 47 44 47 47 52 62 66 63 66 61 59 55 45 49 42 39 42 47 50 47 43 41 42 53 50
55 55 55 54 55 55 55 55 55 55 54 55 55 55 55 54 54 54 45 38 47 49 38 50 50 51 55 57 49 57 63 55 52 45 48 44 39 47 49 49 46 45 42 40 46 52 50
54 53 53 54 54 54 54 54 54 54 54 54 54 54 53 53 53 45 40 46 56 53 39 44 50 50 52 55 47 50 58 54 49 45 45 40 45 52 49 45 44 43 41 41 43 46 47
54 53 53 53 53 53 53 53 53 53 53 53 53 53 52 51 44 40 43 54 54 52 30 37 43 49 53 54 44 58 59 55 48 44 45 44 51 50 46 45 46 39 49 48 45 40 33
53 53 53 53 53 53 52 52 53 53 53 53 52 53 52 50 40 38 48 52 52 45 18 46 47 59 55 49 53 51 59 52 44 45 46 42 44 44 44 46 48 43 50 47 46 40 37
53 53 53 53 52 52 52 52 52 52 52 52 52 53 52 46 39 42 48 49 46 27 19 42 50 47 45 48 51 52 51 54 51 44 45 44 49 47 46 50 50 52 46 45 42 38 28
52 52 52 52 52 52 52 52 52 52 52 52 52 51 50 48 37 43 46 41 28 21 42 37 39 45 44 44 46 48 45 43 38 33 32 40 44 46 51 43 47 46 40 30 27 28 29
52 52 52 52 52 52 52 52 52 52 52 51 51 51 47 47 42 42 43 34 21 34 34 43 42 44 39 42 44 45 42 38 43 41 34 31 31 43 49 47 41 41 40 30 26 26 32
52 52 52 51 52 52 51 51 51 51 51 51 50 39 38 42 43 41 36 21 27 32 38 36 39 35 36 39 39 41 40 40 43 44 36 33 34 47 49 51 50 42 38 46 37 34 30
51 51 51 51 51 51 51 51 51 51 51 50 38 38 36 43 43 38 30 27 31 40 40 39 31 36 31 34 34 36 37 42 39 44 47 41 33 47 50 50 49 48 50 35 35 28 27
51 51 51 51 51 51 51 51 50 51 50 50 36 31 42 42 42 31 18 25 34 42 41 36 33 32 34 33 34 34 37 40 41 40 42 42 39 40 48 42 40 41 40 42 41 34 31
51 51 51 51 51 51 51 51 50 50 50 44 34 22 44 42 27 27 18 32 40 38 41 39 38 37 34 34 32 34 34 37 45 43 36 42 37 31 39 46 47 44 41 41 32 32 33
50 50 50 50 50 50 50 50 50 50 49 40 33 33 39 40 26 28 31 33 37 36 37 37 36 39 38 33 29 34 36 44 44 43 37 38 34 30 33 39 44 40 42 43 41 37 32
50 50 50 50 50 50 50 50 50 50 49 41 32 25 30 33 35 31 30 30 30 40 38 39 38 40 36 34 37 32 35 40 43 43 46 41 35 31 30 32 41 35 40 40 38 31 31
49 50 50 50 50 50 50 50 50 50 49 40 34 24 29 25 30 31 32 32 31 31 40 40 35 36 35 30 34 32 37 37 43 45 44 41 30 35 40 42 42 40 40 40 39 39 33
49 49 49 49 50 50 50 50 50 50 49 37 26 24 30 28 33 31 33 32 32 34 35 35 33 37 37 31 35 31 37 34 35 44 37 43 32 37 34 38 39 37 41 42 42 44 43
49 49 49 49 50 50 50 50 50 49 47 37 36 33 30 30 29 28 30 34 34 36 36 39 37 35 33 38 41 43 43 42 41 37 37 38 35 30 29 34 35 31 37 40 39 40 41
49 49 49 49 50 50 50 50 49 50 48 37 39 33 27 23 29 30 34 36 34 36 33 38 39 36 42 46 44 43 40 40 40 39 42 36 34 30 26 30 19 38 47 45 42 42 43
48 49 49 49 49 49 49 49 49 49 49 41 38 34 30 21 30 32 33 33 35 37 34 36 40 42 44 41 33 32 31 33 36 40 39 40 34 26 22 23 31 38 41 41 39 35 43
48 48 48 49 49 48 49 49 49 49 50 43 42 40 35 28 27 37 32 34 30 30 32 34 41 42 41 33 28 27 26 30 31 36 42 39 37 30 25 24 18 35 43 46 45 33 42
47 48 48 48 48 48 48 49 49 49 50 46 42 45 38 30 36 37 31 32 36 33 30 32 36 35 39 31 25 25 28 35 28 30 29 29 29 27 25 23 30 41 42 45 31 31 41
47 47 47 48 48 48 48 49 48 49 49 46 41 45 38 33 37 40 41 35 35 33 28 32 30 31 32 30 27 27 26 30 30 35 31 31 28 27 29 23 23 42 42 35 37 41 42
46 47 47 47 48 48 48 48 49 49 49 48 39 44 44 37 36 40 40 43 41 40 35 35 35 34 36 32 31 30 27 25 31 26 36 30 34 29 32 31 40 41 39 42 43 39 40

GFSGBSN_sfc_temp_102.txt.gz
Temp
58 58 58 58 58 58 58 58 57 57 57 57 57 57 57 58 58 57 57 56 56 57 57 57 57 57 50 42 45 61 65 64 62 62 60 58 55 53 49 51 51 49 51 56 58 58 57
58 57 57 57 57 57 57 57 57 57 57 56 56 56 57 57 57 57 57 56 56 56 56 56 57 57 47 35 60 62 58 59 61 59 58 59 57 57 53 52 50 54 55 58 57 59 57
57 57 57 57 57 56 56 56 56 56 56 56 56 56 56 56 56 56 56 56 55 55 56 56 57 54 45 42 59 61 61 57 59 60 57 60 61 56 55 51 57 56 51 53 52 54 54
56 56 56 56 56 55 56 56 56 56 56 56 56 55 55 55 55 55 55 55 54 55 55 56 56 51 40 59 60 57 57 54 59 60 60 63 62 56 53 56 54 48 47 41 51 55 58
56 56 56 56 55 55 55 55 55 55 55 55 55 55 55 54 54 54 54 54 54 55 56 56 50 46 39 59 54 58 58 54 59 57 59 68 59 53 50 45 41 41 36 40 45 56 56
55 55 56 56 55 55 56 56 55 55 55 55 55 55 55 54 54 54 54 53 54 54 54 55 53 41 46 50 61 64 59 59 59 56 55 54 50 44 42 39 34 37 38 37 39 46 50
55 55 55 55 54 55 55 55 55 54 54 54 54 54 54 54 54 54 48 41 41 40 48 42 43 42 50 57 63 59 61 59 59 54 45 50 44 37 40 45 47 43 41 39 40 49 48
54 54 54 54 54 55 55 54 54 54 54 54 54 54 54 54 53 52 43 37 43 45 34 45 45 47 52 53 46 54 60 53 52 45 49 44 39 46 48 46 45 43 40 38 43 49 48
53 53 53 54 54 54 54 53 53 53 53 53 53 53 53 53 52 44 39 41 53 49 36 42 46 47 48 51 44 48 55 54 49 46 45 41 46 50 47 43 42 40 39 38 41 43 42
53 53 53 54 53 53 53 53 53 53 53 53 53 53 52 52 45 41 41 49 49 47 29 35 40 45 51 51 42 55 57 55 49 45 46 44 51 48 44 43 44 37 45 45 42 38 31
52 53 53 53 53 52 52 52 53 52 52 52 52 52 52 52 42 39 44 47 48 42 16 42 43 56 52 46 48 49 56 50 44 45 46 42 45 43 43 43 46 41 47 43 42 36 33
52 52 52 52 52 52 52 52 52 52 52 52 52 52 52 45 41 44 43 44 43 28 17 38 46 44 42 45 47 49 50 51 50 45 45 44 48 47 46 48 47 49 44 42 39 35 26
52 52 52 52 52 52 52 52 52 52 52 52 52 51 49 48 37 44 41 39 26 20 39 33 37 42 41 40 45 46 44 41 35 33 34 40 44 46 50 42 45 43 37 29 26 26 28
52 52 52 52 51 52 52 51 51 51 51 51 51 50 45 46 43 41 39 32 19 30 31 41 40 42 36 39 40 40 41 38 43 40 34 32 32 42 48 45 41 39 38 29 25 26 28
52 51 51 51 51 51 51 51 51 51 51 51 49 38 37 41 42 39 34 23 24 29 36 34 37 34 33 38 37 37 38 36 38 39 33 32 33 45 47 48 48 39 34 43 34 33 29
51 51 51 51 51 51 51 51 51 51 51 51 37 38 35 41 41 36 23 25 29 35 38 37 28 33 28 32 32 33 35 39 38 41 41 39 32 45 47 48 47 45 46 34 32 26 26
50 50 51 51 51 51 51 51 51 51 51 50 35 29 39 40 40 31 12 25 31 40 41 34 32 30 32 32 34 32 34 39 41 41 42 38 36 37 45 40 38 39 37 39 38 33 28
50 51 50 50 50 50 50 51 50 50 50 43 34 21 39 45 28 28 18 30 38 35 39 37 36 35 33 32 30 33 33 38 44 43 37 38 34 30 36 45 46 43 39 39 31 30 32
50 50 50 50 50 50 50 50 50 50 49 40 30 33 38 38 19 26 34 31 35 34 35 35 34 38 37 31 26 33 34 42 43 39 37 39 32 29 33 38 41 38 39 40 39 35 32
50 50 50 50 50 50 50 50 50 50 50 39 30 23 28 32 35 30 28 30 29 38 37 37 36 37 34 31 34 30 33 40 41 41 44 43 34 29 27 29 35 33 38 38 37 31 31
50 50 49 49 50 50 50 50 50 50 49 37 33 24 28 20 30 31 31 30 29 30 38 38 34 34 31 28 30 29 34 36 39 42 40 40 28 31 34 35 37 39 36 38 35 36 32
49 49 49 49 49 50 50 50 50 50 49 36 29 23 29 28 31 30 32 30 30 32 34 33 31 33 33 28 32 28 34 33 33 39 37 39 31 32 30 37 38 36 38 38 39 40 39
49 49 49 49 49 50 50 50 50 50 47 37 35 34 31 29 27 25 26 32 32 35 36 37 34 32 30 36 38 39 39 41 40 37 35 34 34 29 27 35 34 30 36 38 37 38 38
49 48 49 49 49 49 50 50 49 50 47 39 36 36 29 22 27 28 32 34 32 34 31 36 36 32 38 43 42 41 40 39 38 39 39 33 34 29 28 30 18 34 43 43 39 41 43
48 48 48 49 49 49 49 49 49 49 49 41 39 35 31 19 30 31 31 31 33 34 32 34 38 40 41 39 32 30 31 31 34 38 37 38 34 27 25 23 30 37 40 39 38 35 41
48 48 48 48 48 48 48 48 49 49 50 44 41 41 35 27 27 35 32 33 29 29 31 34 40 40 38 33 30 26 25 30 30 34 39 37 37 31 27 24 18 33 41 44 42 32 41
47 47 48 48 48 48 48 48 48 49 50 45 41 43 37 30 33 35 30 31 35 32 30 32 34 33 38 29 28 24 26 34 28 29 28 29 30 27 27 25 30 37 41 44 28 29 39
47 47 47 47 48 48 48 48 48 49 49 46 42 45 38 33 35 38 39 34 34 33 28 33 29 33 31 28 28 27 25 29 29 33 27 29 27 25 28 25 22 38 39 32 35 38 38
47 46 47 47 47 47 48 48 48 49 49 47 39 44 44 36 35 39 39 41 41 41 34 34 31 34 32 32 32 32 28 27 28 24 36 29 32 29 32 31 38 38 38 39 40 36 36

GFSGBSN_sfc_temp_105.txt.gz
Temp
58 58 58 58 58 58 58 58 57 57 56 56 56 56 57 57 58 57 57 56 56 57 57 57 57 57 54 44 47 64 65 63 65 63 61 61 59 59 55 56 58 55 59 60 63 64 64
57 57 57 57 57 57 57 57 56 56 56 56 56 56 56 56 56 56 56 56 56 56 56 56 57 57 48 35 60 63 61 62 63 62 63 63 62 64 60 58 58 60 60 62 64 64 63
56 56 56 56 56 56 56 56 56 56 56 55 55 55 55 56 56 56 56 55 55 55 56 56 57 54 45 42 60 62 61 60 61 60 60 64 65 62 61 57 62 60 55 59 60 62 61
56 56 56 55 55 55 55 55 55 56 55 55 55 55 55 55 55 55 55 55 55 55 56 56 57 51 40 58 61 57 58 56 59 60 59 62 64 61 59 62 59 56 55 50 59 60 62
55 56 56 55 55 55 55 55 55 55 55 55 55 55 55 54 54 54 54 54 54 55 56 56 51 46 39 59 53 60 58 54 60 58 60 66 63 58 57 52 50 50 47 46 52 60 62
55 55 55 55 55 55 55 55 55 55 54 54 55 54 54 54 54 53 53 53 55 55 55 55 53 41 46 49 58 61 61 57 57 55 55 55 54 51 51 49 40 44 43 47 50 57 57
54 54 54 54 54 55 55 55 54 54 54 54 54 54 54 53 53 53 50 46 44 42 46 40 41 41 47 55 60 59 60 56 58 55 46 51 44 42 47 50 52 50 48 48 51 56 55
53 53 54 54 54 55 54 54 54 53 53 54 53 53 53 53 53 52 45 41 43 41 31 43 44 45 50 54 44 53 61 52 52 44 50 46 39 49 52 50 49 49 47 47 50 54 54
53 53 53 54 54 54 54 54 53 53 53 53 53 53 53 52 52 45 42 42 50 46 32 38 46 44 47 50 43 47 54 54 51 46 45 41 49 53 49 47 44 46 45 46 46 51 53
53 53 53 53 53 53 53 53 53 53 53 53 52 52 52 52 45 42 41 48 49 46 26 35 40 46 50 51 41 55 59 55 51 46 46 45 52 48 45 45 47 41 49 48 47 45 40
53 53 53 53 53 52 52 52 52 53 53 52 52 52 52 51 42 40 45 47 48 42 16 42 43 56 52 46 49 48 57 53 47 47 48 44 46 46 44 46 48 44 49 48 48 45 43
53 52 52 52 52 52 52 52 52 52 52 52 52 52 51 45 42 45 46 45 42 24 18 36 43 43 42 46 47 51 51 56 55 49 48 48 52 51 50 51 51 53 48 46 44 43 34
52 51 52 52 52 52 52 52 51 51 51 51 51 51 49 47 40 45 44 40 24 20 38 33 32 35 40 40 44 46 44 43 41 37 38 44 46 51 53 46 50 50 45 35 31 32 33
51 51 51 51 51 51 51 51 51 51 51 51 51 49 45 46 44 45 41 31 19 28 30 40 36 36 33 39 41 43 42 40 42 41 39 35 34 46 51 49 44 45 45 38 28 30 36
51 51 51 51 51 51 51 51 51 51 51 51 48 41 40 42 43 42 34 22 24 28 34 33 38 30 33 36 38 40 37 37 39 40 37 36 37 48 49 53 52 43 39 48 39 39 35
51 51 51 51 51 51 51 51 51 51 51 50 40 37 38 42 43 38 26 25 30 37 38 37 29 34 28 33 34 35 36 37 37 43 43 41 36 47 49 52 51 48 51 39 39 29 28
51 51 50 50 51 50 51 51 51 51 50 49 36 33 42 43 43 31 20 26 32 40 40 35 32 31 33 31 33 33 34 38 42 40 44 40 40 41 48 45 43 44 42 44 44 40 34
50 50 50 50 50 50 50 50 50 50 49 43 35 26 41 44 29 29 26 31 37 36 40 38 38 36 34 33 32 34 33 37 44 42 36 40 37 35 40 49 50 49 45 45 37 35 39
50 50 51 50 50 50 50 50 50 50 49 39 31 32 41 40 22 27 34 33 35 35 36 36 35 38 39 34 29 34 36 43 43 41 38 40 35 32 36 41 46 42 44 45 43 42 39
50 50 50 50 50 50 50 50 50 50 49 39 30 22 31 36 35 30 29 30 31 38 37 39 36 38 35 34 37 33 34 41 42 43 43 43 36 32 32 33 37 37 41 43 43 38 39
50 50 50 49 49 49 50 50 50 50 49 38 34 27 31 22 30 32 32 31 30 30 38 39 35 34 32 29 32 32 36 38 42 43 40 39 31 34 36 38 38 39 40 41 40 41 38
50 49 49 49 49 49 50 50 50 50 48 36 27 28 31 30 32 30 32 31 29 32 34 33 32 34 35 30 32 30 35 36 35 41 39 37 31 32 33 38 39 37 41 41 42 42 42
49 49 49 49 49 49 49 50 49 49 47 38 35 36 34 31 30 29 29 32 33 35 37 39 35 33 33 36 39 40 42 41 41 38 36 35 34 33 30 36 37 33 39 41 41 42 41
49 49 49 49 49 49 49 49 49 49 48 40 37 38 31 26 29 30 32 34 32 34 31 37 38 34 40 44 43 42 40 40 40 40 42 34 33 34 31 33 23 37 45 46 43 42 42
48 49 48 49 49 49 49 49 49 49 49 41 40 37 33 25 31 31 32 32 34 35 33 34 39 42 42 40 34 31 33 34 36 38 39 39 35 31 28 29 34 38 41 40 39 37 42
48 48 49 48 48 48 48 48 48 49 49 43 40 41 36 30 29 36 33 34 31 31 33 36 42 43 41 35 32 27 26 31 31 34 40 38 38 34 30 26 23 35 42 46 46 33 43
48 48 48 48 48 48 48 48 48 49 49 45 41 43 37 31 35 37 32 33 37 34 32 34 36 36 39 33 29 28 28 35 29 30 30 31 32 29 30 28 34 38 41 46 32 33 40
47 47 47 47 47 47 48 47 48 49 49 46 42 44 38 33 36 39 40 36 36 35 31 35 33 34 34 30 30 31 29 33 32 34 31 31 29 29 31 27 25 39 41 37 36 38 39
47 47 47 47 47 47 47 47 48 48 49 48 40 43 43 36 36 41 41 43 42 42 37 37 35 34 35 31 32 33 31 31 31 29 37 30 33 31 33 32 37 38 37 39 42 38 37

GFSGBSN_sfc_temp_108.txt.gz
Temp
58 58 57 57 57 57 58 57 57 56 56 56 56 56 57 57 57 57 57 56 56 57 57 57 57 58 59 54 57 77 66 70 73 72 70 69 67 67 63 69 70 66 69 73 73 74 74
57 57 57 56 57 57 57 56 56 56 56 56 56 56 56 56 56 56 56 56 55 56 56 57 57 57 56 43 70 73 71 69 71 71 72 72 69 72 68 67 66 71 70 70 72 71 72
57 57 56 56 55 56 56 56 56 56 56 56 56 55 55 55 55 55 55 55 55 55 56 56 57 59 50 48 68 73 70 69 69 68 67 73 72 69 69 64 71 69 63 67 68 69 69
56 56 56 55 55 55 55 56 56 56 55 55 55 55 55 55 55 55 54 54 54 55 55 57 57 57 45 64 70 67 69 66 68 69 67 70 68 65 67 70 66 62 63 57 69 71 70
55 56 56 55 55 55 55 55 55 55 55 55 55 55 54 54 54 54 54 54 54 55 56 57 56 52 47 64 57 65 67 63 67 68 68 70 68 64 65 58 57 60 55 58 62 70 69
55 55 55 55 55 55 55 55 54 54 54 54 55 54 54 54 54 53 53 53 55 55 60 61 56 41 51 53 62 66 71 67 62 62 59 60 61 57 58 57 47 53 54 57 56 65 65
55 54 54 54 54 55 55 55 54 54 54 54 54 54 54 54 54 53 54 60 54 52 51 46 49 44 52 58 63 61 68 62 62 59 54 58 51 48 56 58 59 59 56 54 60 65 62
54 54 54 54 55 55 54 54 54 54 54 54 54 54 54 53 53 52 56 50 43 45 34 51 50 50 54 58 48 55 65 56 55 51 59 53 47 59 61 59 54 50 46 52 58 61 60
54 54 54 54 54 54 54 54 54 53 53 53 53 53 53 52 53 53 53 50 57 53 39 47 54 52 53 54 48 51 60 59 55 54 54 49 55 58 55 52 50 50 46 45 49 58 59
53 53 53 53 53 53 53 53 53 53 53 53 53 52 52 52 50 54 52 57 58 53 31 44 46 50 51 53 46 61 62 59 57 52 54 54 59 55 52 49 51 47 57 54 50 46 46
53 53 52 53 52 52 52 52 53 53 53 52 52 52 52 50 52 50 54 57 56 47 24 46 40 55 48 47 54 56 64 58 51 54 54 49 52 51 50 52 54 50 57 52 51 50 48
53 52 52 52 52 52 52 52 52 52 52 52 52 52 52 54 54 56 57 55 50 32 23 39 43 37 37 49 51 54 54 60 61 55 56 55 60 59 56 55 55 56 51 52 52 50 40
52 51 52 52 52 52 52 52 52 52 52 52 52 52 52 56 50 56 55 49 33 29 44 37 37 35 36 41 47 50 48 48 48 42 44 52 52 57 59 51 52 53 48 39 36 37 39
52 51 51 52 51 51 51 51 51 51 52 52 51 49 52 56 56 54 51 40 26 34 35 45 41 37 32 37 42 49 49 46 50 51 49 43 39 52 57 54 49 48 48 42 30 36 41
51 51 51 51 51 51 51 51 51 51 51 51 50 56 55 54 54 54 45 35 32 34 41 38 42 33 34 39 35 41 40 39 44 47 44 44 44 55 58 59 58 49 44 55 44 45 41
52 51 51 51 51 51 51 51 51 51 51 50 52 53 51 54 54 50 40 29 36 43 43 43 34 37 28 33 32 34 38 39 40 46 50 47 41 52 54 57 58 54 57 42 46 34 33
52 51 50 51 50 50 50 51 51 51 51 50 51 48 52 55 52 48 31 35 37 45 45 39 37 35 36 35 37 32 33 38 42 45 51 48 48 45 52 49 47 47 46 48 50 47 39
51 50 50 50 50 50 50 50 51 51 50 50 48 38 52 54 41 40 36 38 39 42 46 43 43 41 38 38 37 37 35 38 45 41 38 45 43 41 46 52 58 55 50 50 41 40 45
50 50 51 51 50 50 50 50 50 50 49 52 45 47 54 49 33 36 41 39 40 40 42 41 40 43 45 39 34 40 41 47 48 45 38 42 40 37 40 46 52 50 53 54 52 51 44
50 50 50 50 50 50 50 50 50 50 49 52 42 33 47 48 45 37 36 36 37 44 41 44 41 45 41 40 44 38 40 46 49 46 43 46 41 37 36 40 47 43 48 52 50 44 46
50 50 50 50 49 49 50 50 50 51 50 52 42 36 40 34 39 39 39 37 36 35 43 45 41 41 37 32 38 38 42 44 48 44 42 41 37 41 44 44 44 45 46 49 48 49 43
50 50 49 50 49 49 49 50 50 50 49 49 35 38 43 43 39 37 38 37 34 38 39 39 38 41 41 35 37 36 41 42 41 45 42 40 37 37 38 45 44 42 47 49 50 49 49
50 50 49 49 49 49 49 50 50 50 50 44 50 48 45 39 38 37 39 37 37 40 42 43 41 39 39 43 47 47 48 47 46 43 38 37 37 37 35 42 41 37 44 48 50 50 48
50 49 49 49 49 49 49 49 49 49 49 47 47 50 39 36 39 39 38 40 39 40 37 42 44 40 46 52 50 51 49 47 47 46 48 36 37 39 36 39 26 43 52 52 50 49 50
49 49 49 49 49 49 49 49 49 49 49 44 44 46 40 33 41 39 39 39 41 42 40 41 45 48 51 46 40 39 40 40 43 46 46 46 39 35 32 34 40 44 41 44 45 39 45
49 49 49 49 49 48 48 48 48 49 49 44 42 43 39 34 40 42 40 40 38 39 39 41 49 52 48 42 37 30 30 32 34 38 44 44 42 36 37 30 27 38 40 51 51 34 45
48 48 48 48 48 48 48 48 48 48 49 46 42 45 38 33 43 44 41 41 44 41 39 42 42 43 46 36 34 33 34 41 34 33 32 35 34 32 34 33 40 43 43 47 35 34 41
48 48 48 48 48 48 48 48 48 48 49 46 42 46 40 35 43 46 47 43 44 42 37 43 40 40 40 34 35 36 34 40 38 39 34 36 34 34 36 31 29 42 47 38 38 42 42
47 47 48 48 47 47 47 48 48 48 49 48 41 44 44 36 41 46 49 52 50 49 42 43 40 39 42 36 39 39 35 39 37 34 42 32 37 32 35 34 38 39 37 42 45 44 43

GFSGBSN_sfc_temp_111.txt.gz
Temp
59 59 58 58 58 58 58 57 57 56 56 56 56 56 56 57 57 57 56 56 56 56 57 57 58 58 60 59 62 82 68 72 78 77 75 73 71 71 68 72 75 72 74 77 79 79 80
58 58 57 57 57 57 57 56 56 56 56 56 56 56 56 56 56 56 56 55 55 55 56 57 57 57 58 49 76 79 79 77 76 76 75 76 73 76 71 71 72 76 75 76 77 77 77
57 57 57 56 56 56 56 56 56 56 56 55 56 55 55 55 55 55 55 55 55 55 55 56 57 61 55 55 75 78 78 75 78 77 73 78 79 74 73 68 76 74 68 72 74 75 74
57 57 56 56 56 55 55 56 55 55 55 55 55 55 55 55 54 54 54 54 54 55 55 56 57 60 51 71 75 71 74 72 77 78 74 77 79 73 71 75 71 66 67 60 71 74 74
57 57 56 55 55 55 55 55 55 55 55 55 55 55 54 54 54 54 54 54 54 55 57 57 60 58 51 70 65 71 71 65 72 74 74 74 72 66 67 61 59 63 56 59 64 76 74
56 56 56 55 55 55 55 55 54 54 54 54 54 54 54 54 54 53 53 53 58 58 62 68 65 53 60 57 67 68 71 71 65 66 65 63 64 59 60 59 49 55 57 61 63 73 73
56 55 55 55 55 55 55 55 54 54 54 54 54 54 54 54 54 53 56 66 60 59 59 51 54 52 56 65 69 65 68 62 62 61 53 59 53 51 57 60 63 62 58 58 64 71 67
55 55 55 55 55 55 55 54 54 54 54 54 53 53 53 53 53 53 57 56 54 51 36 54 57 59 64 61 53 60 63 48 47 50 57 55 49 60 64 64 61 60 56 55 63 67 64
54 54 54 54 54 54 54 54 53 53 53 53 53 53 53 53 53 54 59 57 65 56 42 51 59 58 53 55 48 54 58 52 42 48 54 51 56 63 62 60 58 58 55 54 55 60 59
54 53 54 54 54 53 53 53 53 53 53 53 53 53 52 52 50 61 60 63 64 58 37 49 53 53 55 51 44 63 63 55 46 41 56 57 63 61 59 57 60 52 61 56 53 49 41
53 53 53 53 53 52 52 52 52 52 52 53 52 52 52 52 55 57 60 63 62 49 29 52 53 62 57 48 53 55 66 59 47 45 48 54 57 57 55 57 60 55 59 54 53 50 50
53 53 53 52 52 52 52 52 52 52 52 52 52 52 52 59 59 62 63 61 55 32 29 46 54 50 47 46 52 57 60 63 60 50 46 57 66 61 60 63 62 61 54 53 53 51 41
53 52 52 52 52 52 52 52 52 52 52 52 52 52 53 61 55 62 60 56 35 33 50 43 44 48 45 40 40 54 52 50 48 43 38 51 51 63 64 56 60 56 49 34 32 35 37
52 52 52 52 52 52 51 51 51 52 52 52 52 50 53 62 63 60 57 43 29 41 42 49 48 46 37 38 42 43 50 48 54 53 48 44 39 53 61 58 52 52 51 38 29 32 38
52 52 52 52 52 51 51 51 51 52 51 51 50 59 60 59 60 59 52 36 38 39 46 44 48 40 41 44 35 36 44 42 50 55 43 44 45 61 61 62 61 52 48 57 44 47 42
52 52 52 51 51 51 51 51 51 51 51 51 57 58 57 59 60 56 46 35 43 48 48 48 39 43 35 39 36 32 37 40 38 47 54 50 43 57 60 62 62 57 61 46 47 34 35
52 51 51 51 51 51 51 51 51 51 51 51 54 52 57 61 59 54 36 41 44 50 49 44 42 40 42 39 41 32 33 42 44 44 52 51 48 49 57 51 52 53 51 53 53 49 39
51 51 51 51 51 51 50 51 51 51 51 50 54 43 58 60 46 46 42 43 44 47 51 47 46 45 42 42 40 39 38 40 46 43 38 46 44 43 48 60 63 60 54 54 45 43 48
51 51 50 51 50 50 50 50 51 51 51 57 53 53 60 55 39 47 47 45 46 46 46 45 43 46 48 42 37 43 44 50 51 44 38 42 43 32 36 50 58 53 56 55 54 53 43
50 50 50 51 50 50 50 50 51 51 51 53 47 36 53 57 52 43 41 41 43 49 47 48 46 50 46 42 47 41 44 49 52 49 46 45 41 36 33 35 49 47 53 56 53 44 47
50 50 50 50 50 50 50 50 50 51 50 52 47 41 48 39 44 44 44 43 42 41 48 51 46 46 43 38 42 42 47 48 52 49 49 45 38 43 44 45 49 45 47 53 50 51 44
50 50 50 50 50 50 50 50 50 50 50 49 34 42 50 50 44 42 41 43 41 43 45 43 43 45 45 41 43 40 44 45 44 50 46 46 37 44 43 50 49 46 51 52 54 54 53
50 50 50 50 50 50 50 50 50 50 49 49 54 55 49 43 44 43 44 43 42 45 47 48 46 43 42 46 50 51 51 50 49 45 43 41 38 39 37 46 46 40 48 51 53 56 54
50 50 50 50 50 50 49 50 49 50 50 56 53 53 42 37 46 44 44 45 44 45 42 46 48 44 51 56 54 55 54 53 52 50 49 41 40 41 37 41 29 47 56 56 54 52 53
50 50 50 49 50 50 49 49 49 49 50 52 57 49 45 35 44 45 44 44 46 48 44 46 49 53 55 50 41 41 42 42 46 50 49 48 41 37 34 36 43 48 46 42 43 39 48
49 49 50 49 49 49 49 49 49 49 50 44 44 55 47 38 42 48 44 46 43 43 44 46 53 56 52 44 39 33 33 38 36 39 50 49 48 39 38 32 28 34 46 49 48 34 43
49 49 49 49 49 49 48 49 48 49 49 48 44 47 40 35 49 49 45 43 49 46 41 46 47 47 52 38 35 36 36 46 36 32 31 37 37 34 37 35 40 46 50 48 33 32 43
48 48 48 48 48 48 48 48 48 48 49 48 44 47 41 38 48 49 51 47 48 45 37 43 44 42 42 36 37 37 37 42 41 42 37 36 34 33 39 33 29 45 47 35 35 42 44
48 48 48 48 48 48 48 48 48 48 48 49 43 44 45 38 39 49 52 55 53 51 45 46 41 41 44 38 41 41 35 40 39 34 46 35 39 32 35 31 38 41 37 42 45 44 45

GFSGBSN_sfc_temp_114.txt.gz
Temp
60 60 59 59 59 59 58 57 57 56 56 56 56 56 56 57 57 56 56 56 56 56 56 57 57 58 58 56 60 79 67 70 76 76 72 72 69 68 63 68 71 69 71 76 79 78 79
59 59 58 58 58 58 58 57 56 56 56 56 56 56 56 56 56 56 56 55 55 55 56 56 57 57 54 46 74 78 77 77 77 75 72 72 70 73 68 68 67 72 73 74 77 77 78
58 58 57 57 57 57 57 56 56 56 56 55 55 55 55 55 55 55 55 55 55 55 56 56 57 59 53 52 72 74 74 72 74 74 69 73 74 70 71 65 73 71 65 71 73 76 74
58 57 57 56 56 56 56 56 56 55 55 55 55 55 55 55 55 54 54 54 54 55 55 56 57 57 49 70 74 72 73 70 73 73 71 76 77 72 68 71 68 64 64 57 69 73 74
57 56 56 56 56 56 56 55 55 55 55 55 55 55 55 54 54 54 54 53 54 55 56 58 57 57 51 71 67 72 73 67 69 70 71 74 71 64 66 59 56 59 53 56 61 72 71
55 56 56 56 55 56 56 55 54 54 54 55 55 54 54 54 54 53 53 53 58 58 62 66 66 54 61 58 65 69 73 69 64 63 60 60 60 55 56 55 43 49 52 56 58 67 70
55 56 56 56 55 56 55 55 54 54 54 54 54 54 54 54 54 53 55 65 58 57 58 51 53 53 56 65 69 64 68 64 62 58 47 51 49 45 49 55 58 57 57 56 62 69 66
55 55 55 55 55 55 55 55 54 54 54 54 54 54 54 53 53 53 56 57 55 53 40 55 56 57 62 66 55 61 67 54 54 44 50 40 40 53 56 58 55 56 55 56 64 68 62
53 54 55 55 55 55 55 54 53 53 53 53 53 53 53 53 53 55 60 59 66 62 42 51 62 60 60 62 55 57 61 56 50 44 42 33 45 56 54 54 53 55 53 56 57 56 53
53 53 54 55 55 54 53 53 53 53 53 53 53 53 53 52 51 60 59 65 65 60 35 51 56 59 61 63 54 65 63 57 44 37 38 39 48 52 51 50 56 51 61 59 58 51 37
53 53 53 54 54 53 53 53 52 53 53 53 52 53 52 53 54 57 61 64 63 54 28 54 56 69 65 56 55 56 63 53 42 39 41 37 42 50 50 52 59 55 63 59 57 50 44
52 53 53 53 52 52 52 52 52 52 52 52 52 52 52 58 55 62 64 61 56 33 29 48 55 53 52 54 51 55 54 60 58 44 44 42 53 54 57 62 62 64 57 55 53 48 35
52 52 52 52 52 52 52 52 52 52 52 52 52 52 52 60 55 63 60 54 34 32 52 45 45 51 50 46 46 49 48 50 45 38 36 46 50 56 62 56 61 57 50 36 31 33 32
52 52 52 52 52 52 52 51 51 51 52 52 52 51 56 62 64 61 56 44 30 43 43 51 49 50 44 46 44 44 43 47 54 49 42 38 30 46 58 57 53 51 49 36 28 29 36
52 52 52 52 52 52 51 51 51 51 51 51 51 56 56 60 61 59 48 35 37 41 47 44 48 43 43 47 39 37 34 40 45 47 37 37 40 51 55 62 59 50 44 53 43 43 38
52 52 51 52 51 51 51 51 51 51 51 52 52 57 58 61 61 53 44 37 44 50 49 48 39 44 37 41 40 34 36 39 42 47 50 43 35 50 49 61 60 55 57 41 44 32 30
52 52 51 51 51 51 51 51 51 51 51 52 51 51 57 62 58 47 36 42 46 52 51 46 43 40 41 40 42 38 38 43 47 44 50 47 42 44 55 46 48 50 48 50 49 46 36
51 51 51 51 51 51 51 51 51 51 51 49 54 43 59 61 42 46 42 45 46 49 54 50 49 46 43 44 40 42 41 45 52 46 40 46 40 35 46 59 62 58 52 52 41 40 45
51 51 51 51 51 51 51 50 51 51 51 53 51 53 60 56 37 44 49 48 50 47 49 47 46 48 49 44 37 40 46 53 53 49 42 44 37 30 38 48 57 52 55 55 53 51 41
51 51 51 51 51 51 51 50 51 51 51 50 47 37 52 54 52 45 44 44 44 52 49 51 49 49 46 43 47 37 44 50 53 51 48 48 41 33 28 32 41 45 53 55 52 42 43
50 50 50 51 51 51 50 50 50 51 51 50 46 41 49 39 44 45 46 45 43 43 50 52 47 46 43 38 41 41 45 47 50 51 51 47 36 38 42 45 36 39 42 50 50 50 44
50 50 50 50 50 50 50 50 50 50 51 50 35 42 52 49 47 44 41 44 43 45 46 44 43 45 45 40 42 38 43 43 42 48 46 48 35 40 41 49 46 38 42 43 42 46 49
50 50 50 50 50 50 50 50 50 50 50 49 52 55 49 44 46 44 44 44 44 46 48 50 47 44 42 46 48 49 50 50 48 44 44 42 37 37 36 46 46 40 48 50 52 55 52
50 50 50 50 50 50 50 49 49 49 49 50 52 50 43 37 45 45 46 47 45 47 43 47 49 45 50 55 54 54 54 54 53 50 52 42 40 40 35 40 29 43 49 49 49 49 50
50 50 50 50 50 50 49 49 49 49 50 51 49 49 45 37 46 46 46 46 48 49 47 47 50 53 55 50 42 39 42 43 46 51 50 50 43 35 32 33 42 38 42 41 39 38 45
49 50 49 49 49 49 49 49 49 49 50 49 49 50 47 38 42 49 46 47 42 43 44 47 53 56 53 44 38 32 30 38 37 37 46 49 48 39 36 30 27 35 46 52 50 31 35
49 49 49 49 49 49 49 49 49 49 49 48 45 49 45 37 49 49 42 41 48 45 42 46 46 46 52 40 34 34 34 44 34 31 32 38 38 34 35 33 33 39 46 51 34 30 38
49 49 49 49 49 49 48 49 49 48 49 48 47 50 44 36 44 49 51 45 46 45 36 43 43 41 42 35 37 36 35 39 38 42 38 33 31 29 32 32 27 39 45 34 35 39 39
48 48 48 48 48 48 48 48 48 48 48 49 44 49 47 37 40 46 49 52 51 51 46 46 42 42 45 37 38 39 35 39 38 32 42 32 38 33 32 30 35 37 36 39 42 42 44

GFSGBSN_sfc_temp_117.txt.gz
Temp
61 61 60 60 59 59 59 58 57 56 56 56 56 56 56 56 57 56 56 56 56 56 56 56 57 57 52 49 52 70 69 69 68 69 65 63 59 58 53 57 59 58 62 66 69 70 70
60 59 59 59 59 59 59 58 57 56 56 56 56 56 56 56 56 56 56 56 55 55 56 56 57 57 48 39 65 68 67 68 67 65 62 63 61 63 58 58 58 63 63 65 68 68 70
59 58 59 58 58 58 58 57 56 56 56 56 56 55 55 55 55 55 55 55 55 55 56 57 57 55 47 45 63 64 67 65 67 65 60 63 63 58 58 54 64 63 56 61 64 66 66
58 58 58 57 57 57 56 56 56 56 55 55 55 55 55 54 54 54 54 54 54 55 56 57 57 51 41 64 62 63 64 64 68 67 65 65 65 59 54 60 57 53 54 48 60 64 67
57 57 57 56 56 56 56 56 55 55 55 55 55 54 54 54 54 54 54 54 54 55 56 57 50 47 44 67 61 66 65 62 64 65 64 69 61 53 54 47 44 48 41 46 52 63 63
57 56 56 55 55 56 56 56 55 54 54 54 54 54 54 54 54 53 53 54 55 55 58 60 59 45 54 54 61 65 66 66 60 58 56 54 49 43 44 41 31 39 41 44 47 56 61
55 55 54 54 55 55 56 55 55 54 54 54 54 54 54 54 54 53 50 48 47 46 48 45 48 48 52 60 65 61 65 61 56 52 42 48 40 34 40 44 46 46 45 45 51 59 58
54 54 54 55 54 55 56 55 54 54 54 54 54 54 54 53 53 53 47 47 49 47 34 50 52 52 58 59 51 58 64 52 49 41 46 43 35 44 47 45 44 44 41 44 53 60 58
53 54 54 54 55 55 55 55 54 53 53 53 53 53 53 53 53 48 48 52 56 52 34 46 57 56 57 59 51 53 59 52 45 41 41 38 39 48 45 40 38 43 42 43 45 48 52
53 54 54 54 55 55 54 54 53 53 53 53 53 53 52 52 47 49 48 56 54 51 25 45 50 57 59 58 51 62 60 51 44 37 40 35 43 38 39 38 40 38 48 49 48 46 37
53 53 53 54 54 53 53 53 53 53 53 53 52 53 52 53 45 45 51 54 53 45 22 52 53 66 60 51 53 54 62 52 42 40 36 36 40 35 33 38 46 43 49 48 50 44 39
52 52 52 52 52 52 52 52 52 52 52 52 52 52 52 52 45 50 53 52 47 31 23 45 51 49 47 50 51 54 52 56 53 43 43 39 48 44 40 47 50 53 47 48 47 41 29
51 52 52 52 52 52 52 52 52 52 52 52 52 52 50 53 44 53 50 43 29 23 48 40 41 46 46 43 45 47 43 41 38 32 35 44 45 50 50 44 50 50 43 31 27 28 26
52 52 52 52 52 52 52 52 51 51 52 52 52 51 50 53 52 50 45 34 23 38 39 47 45 45 38 43 41 43 38 36 44 41 33 33 29 42 49 45 44 46 42 28 22 23 29
52 52 52 52 52 52 51 51 51 51 52 52 51 46 46 49 52 49 38 22 29 37 44 42 44 37 37 42 36 36 34 35 42 44 32 32 34 46 50 49 48 44 39 45 36 38 31
52 52 52 52 52 52 51 51 51 51 51 51 42 44 46 52 52 44 31 33 40 48 47 46 36 40 31 36 34 27 35 39 40 45 47 40 32 43 44 48 53 49 51 34 36 27 26
52 52 51 51 51 51 51 51 51 51 51 51 41 38 48 53 49 38 23 33 44 50 50 44 40 37 38 36 37 34 35 41 45 44 46 42 38 38 44 42 44 44 43 44 39 40 30
51 51 51 51 51 51 51 51 51 51 51 47 40 34 49 50 32 34 27 43 47 48 51 48 46 43 39 38 36 37 36 41 47 46 37 43 35 31 38 48 54 49 44 45 34 34 38
50 51 50 51 51 51 51 50 50 51 51 42 38 39 48 47 28 30 43 46 49 46 46 45 43 45 43 38 33 39 40 47 47 46 40 41 34 26 33 41 46 42 47 50 47 44 38
51 50 50 51 51 50 51 50 50 51 51 42 37 30 38 39 40 37 37 41 41 49 47 48 46 44 41 38 41 37 39 45 47 47 48 45 38 31 24 29 34 33 41 47 47 37 38
51 50 50 50 50 50 50 50 50 50 51 42 36 32 39 28 33 38 40 41 39 41 48 47 43 42 38 31 35 34 39 41 45 48 44 41 32 37 39 42 34 35 40 42 41 43 39
50 50 50 50 50 50 50 50 50 50 50 40 29 32 39 38 42 38 38 39 40 43 42 40 39 41 40 34 38 32 37 37 36 43 40 41 32 36 35 44 41 40 41 43 43 43 44
50 50 50 50 50 50 50 50 50 50 49 40 43 44 38 38 37 33 37 41 42 43 45 47 42 38 36 41 42 43 44 43 42 39 37 36 34 32 30 41 40 32 35 38 38 40 45
50 50 50 50 50 50 50 50 49 49 49 43 42 40 32 27 34 40 45 45 43 44 39 44 45 40 45 49 47 46 45 46 46 44 44 36 35 34 29 34 25 35 45 45 36 36 38
50 50 50 50 50 50 49 49 49 49 50 45 43 39 35 27 37 41 43 43 43 43 42 43 45 47 47 43 34 32 33 38 44 43 41 43 37 28 26 27 35 36 37 36 36 33 36
50 50 50 50 49 49 49 49 49 49 50 44 45 42 38 29 32 44 39 40 33 33 35 42 46 47 44 36 27 26 25 32 32 37 45 44 40 31 27 26 22 30 36 43 42 27 36
49 49 49 49 49 49 49 49 49 49 49 45 40 43 38 32 39 40 35 34 41 36 32 37 39 38 42 27 25 25 28 40 29 29 28 30 30 27 26 26 30 34 38 43 29 28 38
49 49 49 49 49 49 49 49 49 49 49 44 41 46 38 34 36 42 44 37 37 36 29 35 32 33 31 26 29 27 27 32 32 34 32 29 25 21 27 25 22 36 38 30 34 38 39
48 49 49 49 48 48 48 48 49 48 49 47 40 46 44 36 36 40 41 44 42 42 37 37 35 36 36 27 28 29 26 29 30 28 39 29 33 28 28 27 34 35 34 36 38 37 39

GFSGBSN_sfc_temp_120.txt.gz
Temp
62 62 61 60 60 59 59 58 57 56 56 56 56 56 56 56 56 56 56 56 56 56 56 56 57 57 50 46 48 64 67 66 66 65 60 57 53 51 46 52 53 52 56 60 63 65 65
61 61 60 60 59 59 59 58 57 56 56 56 56 55 56 56 56 56 56 56 55 56 56 56 57 57 45 39 62 65 63 64 64 60 59 57 55 56 50 51 50 56 56 58 61 62 64
61 60 59 59 59 59 59 57 57 56 56 55 55 55 55 55 55 55 55 55 55 55 56 56 57 54 45 45 58 58 60 58 61 61 56 60 58 52 52 47 54 54 47 53 57 60 60
59 59 58 58 58 57 57 57 56 56 56 55 55 55 55 54 54 54 54 54 54 55 56 56 57 50 41 61 58 60 60 59 64 63 61 62 61 54 50 53 51 46 46 39 53 57 61
59 58 58 58 57 57 56 56 56 55 55 55 54 54 54 54 54 54 54 54 54 55 56 57 48 45 41 63 57 61 60 59 61 62 60 66 57 50 48 40 38 41 33 38 44 55 55
58 58 58 57 57 56 56 56 55 55 54 54 54 54 54 54 54 53 53 53 54 55 56 57 57 41 50 52 59 61 63 62 56 56 52 50 46 39 38 34 27 33 34 38 39 47 52
58 58 57 56 56 55 55 56 55 54 54 54 54 54 54 54 54 53 51 47 45 46 47 44 45 46 50 56 60 57 61 57 54 49 39 44 35 31 38 41 41 40 37 35 42 49 47
56 56 55 54 54 55 56 56 55 54 54 54 54 53 54 54 53 53 48 48 49 47 34 48 48 49 54 55 48 54 58 48 47 39 43 37 32 42 45 44 41 39 35 34 42 48 47
55 55 54 54 54 55 56 55 54 54 54 53 53 53 53 53 53 49 48 50 55 51 34 44 53 52 54 54 48 50 54 49 43 38 39 34 39 47 43 40 37 36 34 34 35 44 47
53 54 53 53 54 55 55 55 54 53 53 53 53 52 52 52 48 47 48 54 52 49 28 44 48 54 57 55 48 60 58 51 42 37 39 34 44 42 40 38 40 27 41 40 38 37 30
53 52 52 53 53 53 54 54 53 53 53 52 52 52 52 52 43 46 52 53 50 44 22 48 49 62 57 48 51 51 60 49 41 40 36 35 38 36 34 38 41 32 40 39 39 39 36
52 52 52 53 53 53 53 52 52 52 52 52 52 52 52 49 44 49 52 51 47 29 24 42 48 45 44 48 49 52 50 54 50 41 40 39 48 43 41 45 46 44 39 40 41 38 27
51 52 52 52 52 52 52 52 52 52 52 52 52 52 50 52 45 51 49 45 29 24 45 38 38 43 42 41 43 45 42 40 35 30 31 39 44 47 48 41 45 41 36 25 23 24 26
50 51 51 52 52 52 52 52 51 51 51 51 52 51 49 51 49 49 45 33 25 37 37 44 42 42 35 40 40 41 38 34 42 38 33 29 28 43 49 38 38 39 37 26 20 25 27
51 51 51 52 52 52 52 51 51 51 51 51 51 43 45 48 50 46 37 25 29 36 42 39 41 34 34 39 34 35 31 34 40 41 32 31 33 47 49 47 44 40 33 43 36 35 29
51 50 51 51 51 51 51 51 51 51 51 51 41 43 45 51 49 43 31 33 38 45 45 43 33 37 29 33 32 23 32 38 38 43 45 39 29 44 45 46 49 43 47 34 35 25 23
51 51 51 51 51 51 51 51 51 51 51 51 41 38 47 50 47 36 25 31 42 48 48 42 37 34 36 33 34 26 31 39 42 42 44 40 35 38 44 36 36 39 37 37 38 32 26
51 51 51 51 51 51 51 51 50 51 51 47 40 33 48 48 32 30 26 40 47 45 48 45 43 40 37 36 33 34 34 38 44 42 35 40 35 30 37 47 48 46 39 39 30 29 32
51 51 51 51 51 51 51 50 50 50 50 41 38 38 47 45 26 29 38 43 45 44 43 42 40 42 41 35 30 35 37 45 44 41 36 39 33 26 31 39 43 35 39 41 38 37 32
50 50 50 51 51 51 50 50 50 50 51 42 36 29 37 37 37 34 34 37 38 47 45 45 44 43 38 35 37 33 35 41 43 43 47 43 35 30 25 29 35 33 36 40 38 31 36
50 50 50 50 50 50 50 50 50 50 50 42 34 31 37 24 29 36 36 38 37 38 45 44 40 39 35 30 32 31 36 38 42 45 41 38 29 33 36 40 36 35 35 38 38 39 36
50 50 50 50 50 50 50 50 50 50 50 39 29 32 36 34 40 36 37 36 38 40 39 38 35 38 37 31 34 31 35 35 34 40 37 38 29 34 33 42 35 33 39 37 36 36 38
50 50 50 50 50 50 50 50 49 50 48 38 40 41 36 35 34 31 32 39 39 41 42 44 40 37 34 38 41 42 42 41 40 38 34 33 31 30 28 38 38 29 30 33 34 34 38
50 50 50 50 50 50 50 49 49 49 47 41 39 38 30 26 32 35 42 42 40 40 36 42 42 37 43 46 44 42 41 41 41 39 40 33 32 31 27 32 23 32 38 36 32 33 34
50 50 50 50 50 50 49 49 49 49 50 42 41 37 32 25 34 38 39 39 38 39 38 39 42 45 44 40 32 31 32 36 39 42 40 39 33 27 25 26 31 33 34 33 32 30 35
50 50 50 50 49 49 49 49 48 49 50 42 40 40 36 28 31 41 36 37 31 30 33 38 43 43 41 32 26 26 25 31 31 36 42 41 38 29 27 25 21 30 34 40 39 26 36
49 49 50 49 49 49 48 49 48 49 50 43 39 41 36 26 36 38 32 32 37 33 29 33 36 36 38 25 25 24 26 36 27 27 28 30 29 25 25 25 29 32 35 39 27 27 36
49 49 49 49 49 48 48 48 48 49 49 43 40 41 36 29 34 39 41 34 35 34 28 33 30 32 29 25 26 25 25 30 30 32 30 27 24 25 25 23 20 34 35 29 32 35 37
48 48 48 48 48 48 48 48 48 48 49 45 38 43 42 34 32 39 40 43 41 41 35 34 33 33 34 25 25 27 25 27 29 22 37 28 31 27 29 27 33 34 33 35 36 34 34

GFSGBSN_sfc_temp_123.txt.gz
Temp
62 62 62 61 60 60 60 59 58 57 56 56 56 56 56 56 56 56 56 56 56 56 56 56 56 57 50 45 48 60 65 64 63 63 58 55 51 48 42 45 47 45 50 54 56 58 59
61 61 61 60 60 60 60 59 57 56 56 56 55 55 55 55 56 56 55 55 55 55 55 56 56 57 45 42 58 60 59 60 60 58 56 55 52 53 48 46 44 48 49 49 53 53 56
61 61 61 60 59 59 59 58 57 56 56 56 55 55 55 55 55 55 55 55 54 54 55 56 56 54 44 48 56 56 58 56 58 58 54 57 56 50 49 44 51 49 43 48 50 52 51
61 60 60 59 58 58 58 58 57 57 56 56 55 55 54 54 54 54 54 54 54 54 55 56 56 48 41 59 55 58 56 58 61 59 59 60 58 52 48 49 47 42 41 36 48 50 52
60 60 60 58 58 57 58 57 57 56 56 55 55 54 54 54 54 54 54 54 54 55 55 56 46 43 42 61 55 60 58 56 58 58 57 64 55 47 46 37 33 36 29 34 39 49 48
60 60 59 58 57 57 56 56 56 56 55 55 54 54 54 54 54 53 53 53 54 54 55 55 54 40 49 51 56 59 58 59 54 53 51 47 43 38 35 33 25 31 30 33 34 43 45
60 59 58 58 57 56 56 56 56 55 55 54 54 54 54 54 54 53 49 47 45 43 45 43 44 45 48 54 57 55 57 54 51 46 37 42 33 30 34 38 40 38 35 32 37 44 41
59 58 57 57 56 56 56 55 54 54 54 54 54 53 53 53 53 53 46 45 48 48 35 46 47 47 52 53 46 52 56 47 44 38 40 35 30 41 43 42 39 37 33 32 39 43 41
58 57 56 56 56 55 55 54 53 54 54 54 53 53 53 52 53 49 47 48 54 51 36 45 50 49 51 51 46 48 53 47 42 37 37 32 38 45 42 39 36 36 33 33 34 40 41
56 55 55 55 54 54 53 53 54 54 53 53 52 52 52 52 47 46 47 54 53 51 32 42 46 51 55 52 46 56 55 49 41 36 37 34 41 40 38 36 38 29 41 40 34 29 23
55 54 54 54 54 53 52 52 53 53 53 52 52 52 52 52 42 44 51 52 51 47 26 46 48 59 54 48 49 49 56 48 39 39 36 33 37 36 33 36 42 35 42 36 34 30 29
53 53 53 53 53 52 52 52 52 52 52 52 52 52 52 47 42 46 50 51 48 32 27 41 46 44 42 45 46 49 49 51 48 40 39 38 44 41 40 45 44 45 39 35 35 30 20
52 52 52 52 51 51 51 51 51 51 52 52 51 51 49 49 42 49 47 44 30 26 44 38 38 42 40 39 41 43 40 38 33 28 30 38 38 42 45 38 44 39 31 20 18 18 20
50 50 51 51 51 51 51 51 51 51 51 51 51 50 47 48 46 47 44 33 26 36 37 43 42 41 34 38 38 38 37 33 40 36 31 27 25 39 47 39 37 36 33 25 14 20 25
50 50 50 50 50 51 51 51 51 51 51 51 51 42 42 45 48 46 39 26 31 35 41 38 40 32 32 37 32 34 29 33 38 39 29 30 30 45 46 47 42 36 31 42 32 31 26
50 49 50 50 50 50 50 50 51 51 51 51 40 40 43 49 49 43 33 34 38 44 44 42 31 35 28 31 31 20 30 36 36 40 40 36 28 42 45 45 43 39 43 32 33 22 23
50 50 50 50 50 50 50 51 51 51 51 50 41 37 46 49 47 38 27 33 41 46 46 40 36 33 33 31 31 23 29 37 39 38 40 37 33 35 42 34 33 36 34 36 37 32 26
50 50 50 50 50 50 50 50 51 51 51 47 38 30 45 48 34 32 30 39 46 44 47 43 41 38 35 33 31 32 32 36 41 39 31 38 33 28 35 44 47 43 35 36 28 29 32
51 51 51 51 51 50 50 50 50 50 51 40 36 36 45 45 29 31 38 42 44 42 42 41 38 40 38 33 29 33 35 42 42 38 34 37 31 23 28 36 41 35 39 38 37 35 31
50 49 50 51 51 51 50 50 50 50 50 41 34 29 37 39 37 35 34 36 37 44 43 42 40 40 36 32 36 31 34 39 42 41 46 41 33 25 19 28 33 31 36 39 37 30 33
50 50 50 50 51 50 50 50 50 50 50 41 33 32 38 29 30 33 35 37 36 35 42 41 36 37 33 29 31 30 34 36 40 43 39 36 27 32 34 38 34 33 34 35 33 35 32
50 50 50 50 50 50 50 50 49 50 49 40 32 33 36 34 37 35 36 35 36 37 38 36 34 36 35 31 33 30 33 34 32 37 35 35 27 31 31 39 35 31 34 34 34 33 36
50 50 50 50 50 50 50 49 49 50 47 38 39 40 37 33 33 30 31 36 38 40 40 42 38 34 34 36 39 39 40 40 38 35 33 31 29 29 27 36 34 27 28 31 32 33 34
50 50 50 50 50 50 49 49 49 49 47 40 39 38 33 27 32 33 39 39 37 38 35 38 40 35 41 43 40 40 38 38 38 37 38 31 31 30 26 31 21 30 34 34 31 32 32
49 50 50 50 50 49 49 49 49 49 50 41 40 37 33 26 32 35 37 36 36 37 35 37 40 42 41 37 32 31 32 34 37 40 37 36 31 26 24 26 29 34 33 30 30 29 34
49 50 50 49 49 49 49 48 49 49 49 42 39 39 36 30 30 38 34 35 30 29 32 36 41 41 39 31 26 25 24 30 30 33 39 38 34 30 27 24 19 27 33 38 36 25 34
49 49 49 49 49 49 48 48 49 49 49 42 39 40 36 29 35 36 32 33 35 31 29 32 34 34 36 24 24 23 25 33 26 26 26 28 28 24 25 26 27 31 34 37 25 24 34
49 49 49 49 49 48 48 48 48 49 49 43 39 41 36 29 34 37 39 35 34 32 27 32 29 30 28 23 25 24 24 29 29 31 27 28 26 24 25 22 17 33 34 27 31 33 33
48 48 49 48 48 48 48 48 48 49 49 45 39 42 40 33 34 37 39 41 40 40 33 32 32 32 31 24 23 26 24 25 28 21 34 21 31 28 28 25 32 33 33 34 35 33 33

GFSGBSN_sfc_temp_126.txt.gz
Temp
63 63 62 61 61 61 61 60 59 58 57 57 56 56 56 56 56 56 55 55 55 55 55 56 56 57 49 47 47 57 64 62 60 61 55 52 49 44 40 42 45 42 43 48 50 50 49
62 61 62 61 61 60 61 60 59 57 57 56 56 56 55 55 55 55 55 55 55 55 55 55 56 56 44 41 55 56 57 58 57 55 53 54 49 50 44 43 41 46 46 47 48 48 50
62 62 61 61 60 60 60 59 58 57 57 56 56 55 55 55 55 55 55 54 54 54 55 55 56 52 42 47 54 54 56 54 54 55 52 55 54 49 47 42 48 46 40 46 47 46 46
62 61 61 60 59 59 59 59 58 57 56 56 56 55 54 54 54 54 54 54 54 54 55 55 56 47 42 56 53 55 52 55 57 56 55 56 55 49 46 48 45 40 38 30 42 46 49
61 62 61 60 59 58 58 57 57 57 56 56 55 55 54 54 53 53 53 54 54 55 55 55 45 41 43 60 54 56 56 54 55 55 53 63 53 45 43 35 30 32 27 30 37 45 45
60 61 60 60 59 58 57 57 57 56 56 55 55 54 54 53 53 53 53 53 55 53 54 54 52 40 49 49 54 56 55 55 52 50 49 47 40 36 33 30 23 27 28 27 31 37 43
60 62 61 60 59 58 57 56 55 55 54 55 55 54 54 53 53 53 48 46 42 41 42 42 42 43 48 53 54 52 55 52 49 46 36 41 34 28 32 36 38 36 33 31 36 42 39
59 61 62 59 58 57 57 56 55 54 55 54 54 54 53 53 53 53 45 42 43 45 35 45 45 46 50 50 46 50 53 45 43 37 38 34 29 39 40 38 36 34 30 30 37 42 40
59 60 60 59 58 57 57 55 54 53 54 54 54 53 53 52 52 48 43 46 50 48 34 43 48 47 48 50 46 46 51 45 39 36 35 31 37 43 40 36 34 34 31 33 33 39 40
59 59 60 58 57 56 56 55 53 53 52 52 52 52 52 52 47 43 42 48 49 47 30 41 44 50 51 50 45 54 53 46 40 35 36 33 39 38 35 34 36 28 39 39 36 32 26
58 59 58 56 55 55 54 53 53 52 52 52 52 52 52 52 43 42 47 48 46 44 26 44 45 58 52 47 46 48 53 46 38 38 35 32 36 33 30 34 39 32 41 37 37 31 27
58 57 55 55 54 53 53 52 52 52 52 52 52 52 52 47 42 46 47 48 44 28 25 39 45 43 43 46 45 49 47 49 46 38 37 37 42 39 38 42 42 44 38 36 32 27 19
57 55 54 53 52 52 52 52 51 51 52 52 51 52 49 48 43 46 45 42 27 25 42 35 37 41 40 39 41 42 39 37 32 27 28 35 36 40 43 36 41 37 30 21 18 17 22
54 53 53 52 52 52 51 51 50 51 51 51 51 50 49 48 46 46 44 35 25 34 36 41 40 40 34 38 37 37 36 32 37 34 27 24 22 36 43 38 37 36 32 25 13 22 24
49 51 51 51 51 50 50 50 50 50 51 51 50 42 42 44 47 46 38 24 30 34 40 39 40 32 32 36 32 33 28 32 35 37 27 26 26 41 44 45 43 35 31 37 30 32 24
48 48 49 49 49 49 49 49 49 49 50 50 41 41 43 46 47 43 32 33 36 43 43 41 32 35 29 30 30 21 30 35 34 37 39 33 24 38 42 44 45 39 41 29 30 19 21
48 48 48 47 48 48 48 50 50 50 51 50 41 38 44 48 47 36 25 33 40 46 46 40 35 33 33 31 30 23 28 35 37 37 36 33 30 33 39 35 34 34 33 34 35 30 25
48 49 49 49 49 49 49 49 49 50 50 46 39 32 44 46 32 31 29 38 46 43 46 43 41 38 34 33 31 31 31 35 39 36 31 35 31 27 32 42 43 39 35 34 29 28 31
49 49 49 49 50 49 49 50 50 50 50 41 37 36 44 44 28 30 37 41 44 42 41 40 37 39 38 33 29 32 33 39 39 36 32 35 29 21 26 35 40 34 37 36 36 35 30
50 49 50 50 50 50 50 50 50 50 50 43 36 28 36 37 36 35 35 36 37 44 41 41 38 39 35 32 33 31 32 37 40 38 44 40 31 23 16 24 32 30 34 36 38 29 31
50 50 50 50 50 50 50 50 50 50 50 42 34 29 35 27 30 35 36 38 36 35 41 40 35 36 33 29 30 29 32 34 38 42 38 37 27 30 32 36 33 31 31 31 31 33 31
49 50 50 50 50 50 50 49 49 50 49 38 32 31 35 34 37 35 37 35 36 37 37 34 34 35 33 30 32 30 31 31 31 35 33 34 27 30 29 36 35 29 31 33 32 31 34
50 50 50 50 50 50 49 49 49 49 47 37 37 39 37 34 33 33 33 36 37 38 39 40 37 34 33 35 37 37 37 37 37 33 30 30 28 28 27 35 33 26 28 30 30 31 32
50 50 50 50 50 50 49 49 49 49 46 39 37 36 34 28 34 35 38 39 37 37 35 37 37 34 38 40 39 37 35 35 35 34 36 30 30 30 25 30 21 30 35 34 31 31 31
49 50 50 50 50 49 49 48 49 49 49 39 38 37 35 28 34 36 36 36 36 36 35 36 38 40 39 36 32 31 31 34 35 38 35 34 31 27 23 26 28 33 31 29 28 29 33
49 50 50 49 49 49 48 48 49 49 49 40 38 38 37 33 32 39 34 35 31 30 32 34 39 39 37 31 26 25 23 28 29 31 37 34 32 29 26 23 18 27 32 36 35 25 32
48 49 49 49 48 48 48 48 49 49 49 42 38 39 37 31 35 37 33 33 35 32 29 31 33 33 34 23 24 23 25 31 26 25 26 28 28 25 24 25 27 31 32 36 24 22 32
48 49 48 48 48 48 48 48 48 49 48 43 39 39 36 30 34 38 40 35 34 32 28 32 29 29 27 23 25 24 24 28 28 29 30 28 26 25 27 21 16 32 33 26 30 33 33
48 48 48 48 48 48 48 48 48 48 48 45 37 41 40 34 34 37 39 40 41 39 33 32 31 31 31 23 22 26 24 24 27 21 32 21 31 28 28 26 32 33 31 33 34 32 32